[[{"header":{"parameterUnit":"m.s-1","parameterCategory":1,"la1":30.6,"la2":29.2853,"lo1":-89.7004,"lo2":-87.6739,"dy":0.0162,"dx":0.0183,"nx":112,"ny":82,"refTime":"2024-08-20T06:00:00:Z","depth":0,"parameterNumber":2,"parameterNumberName":"U-component_of_WINDS"},"data":[0.0,0.0,0.0,0.0,0.0,0.0,0.0,0.0,0.0,0.0,0.0,0.0,0.0,0.0,0.0,0.0,0.0,0.0,0.0,0.0,0.0,0.0,0.0,0.0,0.0,0.0,0.0,0.0,0.0,0.0,0.0,0.0,0.0,0.0,0.0,0.0,0.0,0.0,0.0,0.0,0.0,0.0,0.0,0.0,0.0,0.0,0.0,0.0,0.0,0.0,0.0,0.0,0.0,0.0,0.0,0.0,0.0,0.0,0.0,0.0,0.0,0.0,0.0,0.0,0.0,0.0,0.0,0.0,0.0,0.0,0.0,0.0,0.0,0.0,0.0,0.0,0.0,0.0,0.0,0.0,0.0,0.0,0.0,0.0,0.0,0.0,0.0,0.0,0.0,0.0,0.0,-0.6918,-0.6908,-0.6897,-0.6874,-0.6894,-0.6372,-0.5121,0.0,0.0,0.0,0.0,0.0,0.0,0.0,0.0,0.0,0.0,0.0,0.0,0.0,0.0,0.0,0.0,0.0,0.0,0.0,0.0,0.0,0.0,0.0,0.0,0.0,0.0,0.0,0.0,0.0,0.0,0.0,0.0,0.0,0.0,0.0,0.0,0.0,0.0,0.0,0.0,0.0,0.0,0.0,0.0,0.0,0.0,0.0,0.0,0.0,0.0,0.0,0.0,0.0,0.0,0.0,0.0,0.0,0.0,0.0,0.0,0.0,0.0,0.0,0.0,0.0,0.0,0.0,0.0,0.0,0.0,0.0,0.0,0.0,0.0,0.0,0.0,0.0,0.0,0.0,0.0,0.0,0.0,0.0,0.0,0.0,0.0,0.0,0.0,0.0,0.0,0.0,0.0,0.0,0.0,0.0,0.0,0.0,0.0,0.0,0.0,0.0,0.0,0.0,0.0,-0.6789,-0.6894,-0.6908,-0.6853,-0.6746,-0.6833,-0.6289,-0.4856,0.0,0.0,0.0,0.0,0.0,0.0,0.0,0.0,0.0,0.0,0.0,0.0,0.0,0.0,0.0,0.0,0.0,0.0,0.0,0.0,0.0,0.0,0.0,0.0,0.0,0.0,0.0,0.0,0.0,0.0,0.0,0.0,0.0,0.0,0.0,0.0,0.0,0.0,0.0,0.0,0.0,0.0,0.0,0.0,0.0,0.0,0.0,0.0,0.0,0.0,0.0,0.0,0.0,0.0,0.0,0.0,0.0,0.0,0.0,0.0,0.0,0.0,0.0,0.0,0.0,0.0,0.0,0.0,0.0,0.0,0.0,0.0,0.0,0.0,0.0,0.0,0.0,0.0,0.0,0.0,0.0,0.0,0.0,0.0,0.0,0.0,0.0,0.0,0.0,0.0,0.0,0.0,0.0,0.0,0.0,0.0,0.0,0.0,0.0,0.0,0.0,0.0,0.0,-0.6806,-0.6799,-0.6786,-0.6786,-0.6742,-0.661,-0.6641,-0.6353,-0.5607,-0.4709,0.0,0.0,0.0,0.0,0.0,0.0,0.0,0.0,0.0,0.0,0.0,0.0,0.0,0.0,0.0,0.0,0.0,0.0,0.0,0.0,0.0,0.0,0.0,0.0,0.0,0.0,0.0,0.0,0.0,0.0,0.0,0.0,0.0,0.0,0.0,0.0,0.0,0.0,0.0,0.0,0.0,0.0,0.0,0.0,0.0,0.0,0.0,0.0,0.0,0.0,0.0,0.0,0.0,0.0,0.0,0.0,0.0,0.0,0.0,0.0,0.0,0.0,0.0,0.0,0.0,0.0,0.0,0.0,0.0,0.0,0.0,0.0,0.0,0.0,0.0,0.0,0.0,0.0,0.0,0.0,0.0,0.0,0.0,0.0,0.0,0.0,0.0,0.0,0.0,0.0,0.0,0.0,0.0,0.0,0.0,0.0,0.0,0.0,0.0,0.0,0.0,0.0,-0.6982,-0.6887,-0.6719,-0.6702,-0.6624,-0.6457,-0.6463,-0.6385,-0.6201,-0.5414,0.0,0.0,0.0,0.0,0.0,0.0,0.0,0.0,0.0,0.0,0.0,0.0,0.0,0.0,0.0,0.0,0.0,0.0,0.0,0.0,0.0,0.0,0.0,0.0,0.0,0.0,0.0,0.0,0.0,0.0,0.0,0.0,0.0,0.0,0.0,0.0,0.0,0.0,0.0,0.0,0.0,0.0,0.0,0.0,0.0,0.0,0.0,0.0,0.0,0.0,0.0,0.0,0.0,0.0,0.0,0.0,0.0,0.0,0.0,0.0,0.0,0.0,0.0,0.0,0.0,0.0,0.0,0.0,0.0,0.0,0.0,0.0,0.0,0.0,0.0,0.0,0.0,0.0,0.0,0.0,0.0,0.0,0.0,0.0,0.0,0.0,0.0,0.0,0.0,0.0,0.0,0.0,0.0,0.0,0.0,0.0,0.0,0.0,0.0,0.0,0.0,0.0,-0.6941,-0.6995,-0.6729,-0.6702,-0.6603,-0.6337,-0.6313,-0.6168,-0.5854,-0.5769,0.0,0.0,0.0,0.0,0.0,0.0,0.0,0.0,0.0,0.0,0.0,0.0,0.0,0.0,0.0,0.0,0.0,0.0,0.0,0.0,0.0,0.0,0.0,0.0,0.0,0.0,0.0,0.0,0.0,0.0,0.0,0.0,0.0,0.0,0.0,0.0,0.0,0.0,0.0,0.0,0.0,0.0,0.0,0.0,0.0,0.0,0.0,0.0,0.0,0.0,0.0,0.0,0.0,0.0,0.0,0.0,0.0,0.0,0.0,0.0,0.0,0.0,0.0,0.0,0.0,0.0,0.0,0.0,0.0,0.0,0.0,0.0,0.0,0.0,0.0,0.0,0.0,0.0,0.0,0.0,0.0,0.0,0.0,0.0,0.0,0.0,0.0,0.0,0.0,0.0,0.0,0.0,0.0,0.0,0.0,0.0,0.0,0.0,0.0,0.0,0.0,0.0,-0.6935,-0.7006,0.0,-0.6702,-0.658,-0.6323,-0.63,-0.6148,-0.582,0.0,0.0,0.0,0.0,0.0,0.0,0.0,0.0,0.0,0.0,0.0,0.0,0.0,0.0,0.0,0.0,0.0,0.0,0.0,0.0,0.0,0.0,0.0,0.0,0.0,0.0,0.0,0.0,0.0,0.0,0.0,0.0,0.0,0.0,0.0,0.0,0.0,0.0,0.0,0.0,0.0,0.0,0.0,0.0,0.0,0.0,0.0,0.0,0.0,0.0,0.0,0.0,0.0,0.0,0.0,0.0,0.0,0.0,0.0,0.0,0.0,0.0,0.0,0.0,0.0,0.0,0.0,0.0,0.0,0.0,0.0,0.0,0.0,0.0,0.0,0.0,0.0,0.0,0.0,0.0,0.0,0.0,0.0,0.0,0.0,0.0,0.0,0.0,0.0,0.0,0.0,0.0,0.0,0.0,0.0,0.0,0.0,0.0,0.0,0.0,0.0,0.0,-0.6685,-0.7,-0.7077,0.0,-0.6729,-0.662,-0.6388,-0.626,-0.6096,-0.5817,0.0,0.0,0.0,0.0,0.0,0.0,0.0,0.0,0.0,0.0,0.0,0.0,0.0,0.0,0.0,0.0,0.0,0.0,0.0,0.0,0.0,0.0,0.0,0.0,0.0,0.0,0.0,0.0,0.0,0.0,0.0,0.0,0.0,0.0,0.0,0.0,0.0,0.0,0.0,0.0,0.0,0.0,0.0,0.0,0.0,0.0,0.0,0.0,0.0,0.0,0.0,0.0,0.0,0.0,0.0,0.0,0.0,0.0,0.0,0.0,0.0,0.0,0.0,0.0,0.0,0.0,0.0,0.0,0.0,0.0,0.0,0.0,0.0,0.0,0.0,0.0,0.0,0.0,0.0,0.0,0.0,0.0,0.0,0.0,0.0,0.0,0.0,0.0,0.0,0.0,0.0,0.0,0.0,0.0,0.0,0.0,0.0,0.0,0.0,0.0,0.0,0.0,-0.6705,-0.7117,-0.7284,-0.6941,-0.6772,-0.6637,-0.6505,-0.62,-0.5947,0.0,0.0,0.0,0.0,0.0,0.0,0.0,0.0,0.0,0.0,0.0,0.0,0.0,0.0,0.0,0.0,0.0,0.0,0.0,0.0,0.0,0.0,0.0,0.0,0.0,0.0,0.0,0.0,0.0,0.0,0.0,0.0,0.0,0.0,0.0,0.0,0.0,0.0,0.0,0.0,0.0,0.0,0.0,0.0,0.0,0.0,0.0,0.0,0.0,0.0,0.0,0.0,0.0,0.0,0.0,0.0,0.0,0.0,0.0,0.0,0.0,0.0,0.0,0.0,0.0,0.0,0.0,0.0,0.0,0.0,0.0,0.0,0.0,0.0,0.0,0.0,0.0,0.0,0.0,0.0,0.0,0.0,0.0,0.0,0.0,0.0,0.0,0.0,0.0,0.0,0.0,0.0,0.0,0.0,0.0,0.0,0.0,0.0,0.0,0.0,0.0,0.0,0.0,-0.6989,-0.7316,-0.7417,-0.7065,-0.683,-0.6637,-0.6505,-0.6321,-0.61,-0.5817,0.0,0.0,0.0,0.0,0.0,0.0,0.0,0.0,0.0,0.0,0.0,0.0,0.0,0.0,0.0,0.0,0.0,0.0,0.0,0.0,0.0,0.0,0.0,0.0,0.0,0.0,0.0,0.0,0.0,0.0,0.0,0.0,0.0,0.0,0.0,0.0,0.0,0.0,0.0,0.0,0.0,0.0,0.0,0.0,0.0,0.0,0.0,0.0,0.0,0.0,0.0,0.0,0.0,0.0,0.0,0.0,0.0,0.0,0.0,0.0,0.0,0.0,0.0,0.0,0.0,0.0,0.0,0.0,0.0,0.0,0.0,0.0,0.0,0.0,0.0,0.0,0.0,0.0,0.0,0.0,0.0,0.0,0.0,0.0,0.0,0.0,0.0,0.0,0.0,0.0,0.0,0.0,0.0,0.0,0.0,0.0,0.0,0.0,0.0,0.0,0.0,0.0,-0.7095,-0.7384,-0.7506,-0.7235,-0.6948,-0.6756,-0.6661,-0.6484,-0.6279,-0.6018,0.0,0.0,0.0,0.0,0.0,0.0,0.0,0.0,0.0,0.0,0.0,0.0,0.0,0.0,0.0,0.0,0.0,0.0,0.0,0.0,0.0,0.0,0.0,0.0,0.0,0.0,0.0,0.0,0.0,0.0,0.0,0.0,0.0,0.0,0.0,0.0,0.0,0.0,0.0,0.0,0.0,0.0,0.0,0.0,0.0,0.0,0.0,0.0,0.0,0.0,0.0,0.0,0.0,0.0,0.0,0.0,0.0,0.0,0.0,0.0,0.0,0.0,0.0,0.0,0.0,0.0,0.0,0.0,0.0,0.0,0.0,0.0,0.0,0.0,0.0,0.0,0.0,0.0,0.0,0.0,0.0,0.0,0.0,0.0,0.0,0.0,0.0,0.0,0.0,0.0,0.0,0.0,0.0,0.0,0.0,0.0,0.0,0.0,0.0,0.0,0.0,0.0,-0.7136,-0.7405,-0.7546,-0.743,-0.7115,-0.6908,-0.6908,-0.6661,-0.645,-0.6327,0.0,0.0,0.0,0.0,0.0,0.0,0.0,0.0,0.0,0.0,0.0,0.0,0.0,0.0,0.0,0.0,0.0,0.0,0.0,0.0,0.0,0.0,0.0,0.0,0.0,0.0,0.0,0.0,0.0,0.0,0.0,0.0,0.0,0.0,0.0,0.0,0.0,0.0,0.0,0.0,0.0,0.0,0.0,0.0,0.0,0.0,0.0,0.0,0.0,0.0,0.0,0.0,0.0,0.0,0.0,0.0,0.0,0.0,0.0,0.0,-0.7611,0.0,0.0,0.0,0.0,0.0,0.0,0.0,0.0,0.0,0.0,0.0,0.0,0.0,0.0,0.0,0.0,0.0,0.0,0.0,0.0,0.0,0.0,0.0,0.0,0.0,0.0,0.0,0.0,0.0,0.0,0.0,0.0,0.0,0.0,0.0,0.0,0.0,0.0,0.0,0.0,0.0,-0.7485,-0.756,-0.7587,-0.7553,-0.7154,-0.6908,-0.6908,-0.6759,-0.6607,-0.6457,-0.6311,0.0,0.0,0.0,0.0,0.0,0.0,0.0,0.0,0.0,0.0,0.0,0.0,0.0,0.0,0.0,0.0,0.0,0.0,0.0,0.0,0.0,0.0,0.0,0.0,0.0,0.0,0.0,0.0,0.0,0.0,0.0,0.0,0.0,0.0,0.0,0.0,0.0,0.0,0.0,0.0,0.0,0.0,0.0,0.0,0.0,0.0,0.0,0.0,0.0,0.0,0.0,0.0,0.0,0.0,0.0,0.0,0.0,0.0,0.0,0.0,-0.8024,0.0,0.0,0.0,0.0,0.0,0.0,0.0,0.0,0.0,0.0,0.0,0.0,0.0,0.0,0.0,0.0,0.0,0.0,0.0,0.0,0.0,0.0,0.0,0.0,0.0,0.0,0.0,0.0,0.0,0.0,0.0,0.0,0.0,0.0,0.0,0.0,0.0,0.0,0.0,0.0,-0.7672,-0.7702,-0.7675,-0.7607,-0.7326,-0.7112,-0.7016,-0.6874,-0.6776,-0.6698,-0.6573,0.0,0.0,0.0,0.0,0.0,0.0,0.0,0.0,0.0,0.0,0.0,0.0,0.0,0.0,0.0,0.0,0.0,0.0,0.0,0.0,0.0,0.0,0.0,0.0,0.0,0.0,0.0,0.0,0.0,0.0,0.0,0.0,0.0,0.0,0.0,0.0,0.0,0.0,0.0,0.0,0.0,0.0,0.0,0.0,0.0,0.0,0.0,0.0,0.0,0.0,0.0,0.0,0.0,-0.8973,-0.8987,-0.8987,-0.8987,-0.8987,-0.8973,-0.8777,-0.8635,-0.8554,0.0,0.0,0.0,0.0,0.0,0.0,0.0,0.0,0.0,0.0,0.0,0.0,0.0,0.0,0.0,0.0,0.0,0.0,0.0,0.0,0.0,0.0,0.0,0.0,0.0,-0.854,-0.8421,0.0,0.0,0.0,0.0,0.0,0.0,0.0,0.0,0.0,0.0,0.0,0.0,-0.778,-0.7811,-0.7756,-0.7614,-0.7485,-0.7309,-0.7109,-0.6991,-0.6945,-0.6945,-0.6826,-0.679,0.0,0.0,0.0,0.0,0.0,0.0,0.0,0.0,0.0,0.0,0.0,0.0,0.0,0.0,0.0,0.0,0.0,0.0,0.0,0.0,0.0,0.0,0.0,0.0,0.0,0.0,0.0,0.0,0.0,0.0,0.0,0.0,-0.8533,-0.8967,0.0,0.0,0.0,0.0,0.0,0.0,0.0,0.0,0.0,0.0,0.0,0.0,0.0,-0.8862,-0.8882,-0.9052,-0.9152,-0.9155,-0.9288,-0.9323,-0.9323,-0.9323,-0.9323,-0.9327,-0.9422,0.0,-0.8848,-0.8831,0.0,0.0,0.0,0.0,0.0,0.0,0.0,0.0,0.0,0.0,0.0,0.0,0.0,0.0,0.0,0.0,0.0,0.0,0.0,0.0,0.0,0.0,-0.8767,-0.8703,-0.8754,-0.8794,0.0,-0.8364,-0.8196,-0.8155,0.0,0.0,0.0,0.0,0.0,0.0,0.0,0.0,-0.7804,-0.7811,-0.7756,-0.7614,-0.7485,-0.7309,-0.7109,-0.7078,-0.7068,-0.7068,-0.7048,-0.7121,-0.7301,-0.7131,0.0,0.0,0.0,0.0,0.0,0.0,0.0,0.0,0.0,0.0,0.0,0.0,0.0,0.0,0.0,0.0,0.0,0.0,0.0,0.0,0.0,0.0,0.0,0.0,0.0,0.0,0.0,0.0,0.0,-0.8284,-0.8628,-0.8587,-0.8774,-0.8787,0.0,0.0,0.0,0.0,0.0,0.0,0.0,0.0,0.0,-0.9055,-0.9144,-0.9228,-0.9284,-0.9456,-0.953,-0.953,-0.9595,-0.9629,-0.9629,-0.9629,-0.9629,-0.9632,-0.97,-0.9585,-0.9393,-0.9256,-0.9096,-0.8971,0.0,0.0,0.0,0.0,-0.8849,-0.8848,-0.9127,-0.9161,0.0,0.0,0.0,0.0,0.0,0.0,0.0,0.0,0.0,0.0,0.0,0.0,0.0,-0.8804,-0.8862,-0.8892,-0.8825,-0.871,-0.8594,0.0,-0.835,-0.8209,-0.7959,0.0,0.0,0.0,0.0,0.0,-0.7905,-0.7915,-0.7858,-0.7733,-0.7658,-0.756,-0.7388,-0.7374,-0.7374,-0.7374,-0.7374,-0.7428,-0.7519,-0.7434,-0.7374,0.0,0.0,0.0,0.0,0.0,0.0,0.0,0.0,0.0,0.0,0.0,0.0,0.0,0.0,0.0,0.0,0.0,0.0,0.0,0.0,0.0,0.0,0.0,0.0,0.0,0.0,0.0,0.0,-0.8669,-0.8967,-0.8767,-0.907,-0.9138,0.0,0.0,0.0,0.0,0.0,0.0,-0.9183,-0.9193,-0.9289,-0.9464,-0.9513,-0.9605,-0.969,-0.9758,-0.9792,-0.9792,-0.9792,-0.9792,-0.9792,-0.9792,-0.9792,-0.9792,-0.9792,-0.9792,-0.9771,-0.9544,-0.94,-0.9284,-0.911,-0.9024,-0.9038,-0.9199,-0.9167,-0.9129,-0.9493,-0.9537,-0.9445,-0.9483,0.0,-0.9199,-0.895,0.0,0.0,0.0,0.0,-0.8699,-0.875,-0.874,-0.877,-0.8885,-0.8912,-0.8912,-0.8912,-0.8912,-0.8845,0.0,-0.8659,-0.8578,-0.8243,0.0,0.0,0.0,0.0,-0.7888,-0.7975,-0.7988,-0.7956,-0.7804,-0.7811,-0.7753,-0.7611,-0.76,-0.76,-0.76,-0.7634,-0.7655,-0.7655,-0.7692,-0.7692,-0.7655,0.0,0.0,0.0,0.0,0.0,0.0,0.0,0.0,0.0,0.0,0.0,0.0,0.0,0.0,0.0,0.0,0.0,0.0,0.0,0.0,0.0,0.0,0.0,0.0,0.0,0.0,0.0,0.0,0.0,-0.9366,-0.9486,0.0,0.0,0.0,0.0,-0.9327,-0.9376,-0.9537,-0.994,-0.9995,-1.0097,-1.025,-1.0059,-0.9988,-0.9994,-0.9859,-0.9792,-0.9792,-0.9792,-0.9792,-0.9792,-0.9792,-0.9792,-0.9792,-0.9792,-0.9792,-0.9778,-0.9659,-0.9595,-0.9571,-0.9418,-0.9386,-0.939,-0.9396,-0.9456,-0.9581,-0.9602,-0.9605,-0.9618,-0.9724,-0.9605,-0.9396,-0.9379,-0.9271,0.0,0.0,-0.9015,-0.9117,-0.8933,-0.8899,-0.8902,-0.8909,-0.8912,-0.8912,-0.8912,-0.8912,-0.8906,0.0,-0.8777,-0.8703,-0.8679,0.0,-0.8281,-0.8274,-0.8123,-0.7982,-0.7988,-0.7988,-0.7956,-0.7804,-0.7811,-0.7753,-0.7611,-0.76,-0.76,-0.76,-0.7726,-0.7801,-0.7801,-0.7915,-0.7922,-0.7804,-0.7794,0.0,0.0,0.0,0.0,0.0,0.0,0.0,0.0,0.0,0.0,0.0,0.0,0.0,0.0,0.0,0.0,0.0,0.0,0.0,0.0,0.0,0.0,0.0,0.0,0.0,0.0,0.0,0.0,-0.9663,-0.9886,0.0,-0.9612,-0.9508,-0.9562,-0.9765,-0.9781,-0.9893,-1.0185,-1.023,-1.0257,-1.0312,-1.0226,-1.0198,-1.0198,-1.0015,-0.9937,-0.9937,-0.9839,-0.9792,-0.9792,-0.9792,-0.9792,-0.9792,-0.9792,-0.9792,-0.9788,-0.9737,-0.9714,-0.971,-0.9686,-0.9663,-0.9663,-0.9663,-0.97,-0.9714,-0.9714,-0.9714,-0.9724,-0.9775,-0.9721,-0.9646,-0.9554,-0.949,-0.9395,-0.9175,-0.9141,-0.9148,-0.895,-0.8912,-0.8912,-0.8912,-0.8912,-0.8912,-0.8912,-0.8912,-0.8912,-0.8912,-0.8869,-0.8798,-0.8726,-0.8621,-0.8489,-0.8325,-0.825,-0.815,-0.8027,-0.7988,-0.7993,-0.7939,-0.7935,-0.7912,-0.7861,-0.7858,-0.7858,-0.7858,-0.7905,-0.7935,-0.7935,-0.7986,-0.7989,-0.7935,-0.7837,-0.776,0.0,0.0,0.0,0.0,0.0,0.0,0.0,0.0,0.0,0.0,0.0,0.0,0.0,0.0,0.0,0.0,0.0,0.0,0.0,0.0,0.0,0.0,0.0,0.0,0.0,0.0,-0.9958,-0.9873,-1.0168,-1.0232,-0.9896,-0.9944,-1.0008,-1.0157,-1.0167,-1.0266,-1.0422,-1.0429,-1.0429,-1.0429,-1.0378,-1.0383,-1.0383,-1.0202,-1.0096,-1.0096,-1.0022,-0.9978,-0.9975,-0.989,-0.9866,-0.9863,-0.9812,-0.9792,-0.9792,-0.9792,-0.9792,-0.9792,-0.9792,-0.9792,-0.9792,-0.9792,-0.9792,-0.9792,-0.9792,-0.9792,-0.9792,-0.9792,-0.9792,-0.9771,-0.968,-0.968,-0.9629,-0.9407,-0.9298,-0.9226,-0.9049,-0.8946,-0.8912,-0.8912,-0.8912,-0.8912,-0.8912,-0.8519,-0.8156,-0.8156,-0.8546,-0.8879,-0.8777,-0.8716,-0.8645,-0.8475,-0.8359,-0.826,-0.813,-0.8047,-0.7988,-0.7988,-0.7988,-0.7988,-0.7988,-0.7988,-0.7988,-0.7988,-0.7988,-0.7988,-0.7988,-0.7988,-0.7988,-0.7988,-0.7915,-0.7912,-0.8038,0.0,0.0,0.0,0.0,0.0,0.0,0.0,0.0,0.0,0.0,0.0,0.0,0.0,0.0,0.0,0.0,0.0,0.0,0.0,0.0,0.0,0.0,0.0,-0.9056,-0.9947,-1.0169,-1.0024,-1.0324,-1.0385,-1.0038,-1.0205,-1.0383,-1.0487,-1.05,-1.0565,-1.0677,-1.0688,-1.0688,-1.0688,-1.0575,-1.05,-1.05,-1.0358,-1.0318,-1.0318,-1.0315,-1.0312,-1.0276,-1.0096,-1.0025,-0.9984,-0.9869,-0.9805,-0.9805,-0.9805,-0.9802,-0.9798,-0.9792,-0.9792,-0.9792,-0.9792,-0.9792,-0.9792,-0.9792,-0.9792,-0.9792,-0.9727,-0.9727,-0.9727,-0.9667,-0.9636,-0.9606,-0.9496,-0.9353,-0.9235,-0.9084,-0.8909,-0.875,-0.875,-0.8774,-0.8771,-0.8771,-0.7651,-0.6619,-0.6619,-0.7789,-0.8771,-0.8826,-0.8733,-0.8662,-0.8683,-0.8469,0.0,-0.8298,-0.814,-0.7995,-0.7988,-0.7988,-0.7988,-0.7988,-0.7988,-0.7988,-0.7988,-0.7988,-0.7992,-0.7995,-0.7995,-0.8023,-0.8005,-0.8033,-0.8175,-0.8515,0.0,0.0,0.0,0.0,0.0,0.0,0.0,0.0,0.0,0.0,0.0,0.0,0.0,0.0,0.0,0.0,0.0,0.0,0.0,0.0,0.0,-0.5676,-0.5578,-0.7846,-0.8359,-0.8989,-1.0365,-1.0576,-1.0626,-1.0512,-1.0575,-1.0616,-1.0656,-1.0656,-1.0677,-1.0684,-1.0688,-1.0688,-1.0688,-1.0647,-1.0656,-1.0656,-1.051,-1.0465,-1.0432,-1.0363,-1.0312,-1.0312,-1.0236,-1.0215,-1.0215,-1.0171,-1.0154,-1.0154,-1.0154,-1.0086,-0.9944,-0.9836,-0.9792,-0.9792,-0.9792,-0.9792,-0.9792,-0.9792,-0.9792,-0.9606,-0.8434,-0.8066,-0.7822,-0.663,-0.6232,-0.6213,-0.6088,-0.6011,-0.5968,-0.5814,-0.575,-0.5708,-0.5708,-0.5715,-0.5697,-0.5697,-0.5391,-0.5113,-0.5113,-0.5419,-0.6058,-0.7118,-0.7288,-0.7591,-0.8561,-0.8642,0.0,-0.8325,-0.826,-0.8163,-0.8027,-0.7988,-0.7988,-0.7988,-0.7988,-0.7988,-0.7988,-0.7988,-0.8064,-0.8204,-0.8208,-0.8255,-0.8357,-0.8469,-0.8567,0.0,0.0,0.0,0.0,0.0,0.0,0.0,0.0,0.0,0.0,0.0,0.0,0.0,0.0,0.0,0.0,0.0,0.0,0.0,0.0,0.0,0.0,-0.3747,-0.3476,-0.5291,-0.6255,-0.7202,-0.833,-0.8473,-0.8473,-0.8473,-0.9141,-0.9573,-0.9573,-0.9573,-0.9573,-0.9573,-0.8873,-0.8473,-0.8473,-0.8473,-0.8473,-0.8473,-0.8404,-0.8366,-0.8366,-0.9021,-0.8957,-0.8302,-0.9745,-0.9556,0.0,-0.8852,-0.873,-0.8023,-0.8023,-0.7981,0.0,0.0,0.0,0.0,0.0,-0.8346,-0.7734,-0.7734,-0.7734,-0.7579,-0.6658,-0.6353,-0.6169,-0.5192,-0.4885,-0.4877,-0.4803,-0.4737,-0.4672,-0.46,-0.4534,-0.4506,-0.4506,-0.451,-0.4486,-0.4486,-0.3986,-0.3548,-0.3548,0.0,0.0,-0.455,-0.5361,-0.604,-0.6832,-0.6861,-0.6996,-0.7492,-0.7504,-0.7646,-0.8158,-0.8199,-0.8199,-0.8199,-0.8199,0.0,0.0,0.0,-0.8296,-0.8448,-0.8455,0.0,0.0,0.0,0.0,0.0,0.0,0.0,0.0,-0.913,-0.9173,0.0,0.0,0.0,0.0,0.0,0.0,0.0,0.0,0.0,0.0,0.0,0.0,0.0,0.0,0.0,0.0,-0.0981,-0.0564,-0.2179,-0.3791,-0.4927,-0.5362,-0.5397,-0.5397,-0.5397,-0.6798,-0.7698,-0.7698,-0.7698,-0.7698,-0.7698,0.0,0.0,0.0,0.0,-0.5397,-0.5397,-0.5397,-0.5397,-0.5431,-0.6965,-0.6898,-0.5494,-0.8527,-0.8182,-0.5225,-0.6711,-0.6449,-0.4967,-0.4967,-0.4929,-0.5235,-0.8244,-0.9341,-0.9074,-0.7642,-0.6169,-0.4885,-0.4885,0.0,0.0,-0.4702,-0.464,-0.458,-0.4395,-0.4335,-0.4335,-0.4335,-0.4261,-0.4185,-0.4185,-0.4075,-0.3998,-0.3998,-0.4007,-0.3987,-0.3987,-0.2924,-0.194,-0.194,-0.0901,-0.0423,-0.1715,-0.3221,-0.4303,-0.447,-0.4357,-0.472,-0.6069,-0.6146,-0.6558,-0.7846,0.0,0.0,-0.8003,-0.8003,-0.8003,-0.8003,-0.8006,-0.8142,-0.8452,-0.8309,-0.8358,-0.8679,-0.8698,-0.8871,-0.923,-0.7613,-0.7015,-0.7355,-0.8409,-0.835,0.0,0.0,0.0,0.0,0.0,0.0,0.0,0.0,0.0,0.0,0.0,0.0,0.0,0.0,0.0,-0.2414,-0.1061,-0.0134,-0.0471,-0.0807,-0.2116,-0.5063,-0.5397,-0.5397,-0.5397,-0.5696,-0.5897,-0.5897,-0.5897,-0.5897,-0.5897,-0.5598,0.0,-0.5397,-0.5397,-0.5397,-0.5397,-0.5397,-0.5397,-0.5397,0.0,0.0,-0.5429,-0.6082,-0.6007,-0.5373,-0.5692,-0.5618,-0.532,-0.532,-0.5216,-0.5115,-0.5677,-0.5856,-0.5803,-0.549,-0.5192,-0.4885,-0.4885,-0.4885,-0.4671,-0.3383,-0.2954,-0.2708,-0.1356,-0.0956,0.0,-0.0956,-0.0923,-0.0921,-0.0921,-0.088,-0.087,-0.087,-0.0859,-0.0878,-0.0878,-0.0643,-0.0437,-0.0437,-0.0204,-0.0088,-0.0379,-0.1651,-0.3073,-0.4303,-0.4458,-0.4481,-0.4637,-0.4613,-0.4686,-0.4858,-0.4876,-0.4876,-0.4876,-0.4876,-0.4876,-0.4876,-0.498,-0.5652,-0.7045,-0.5937,-0.5335,-0.5408,-0.551,-0.5605,-0.5693,-0.5441,-0.5427,-0.5582,-0.581,-0.5816,0.0,0.0,0.0,0.0,0.0,0.0,0.0,0.0,0.0,0.0,0.0,-0.2126,-0.2221,0.0,-0.1122,-0.1229,-0.0536,0.0,0.0,0.0,-0.0673,-0.2484,-0.2685,-0.2685,-0.2685,-0.3523,-0.4059,-0.4059,-0.4059,-0.4059,-0.4059,-0.3187,-0.2685,-0.2685,-0.2685,-0.2685,-0.2685,-0.2685,-0.2685,-0.2719,-0.3623,-0.359,-0.2752,-0.4559,-0.4426,-0.2752,-0.3657,-0.3523,-0.2685,-0.2685,-0.264,-0.2552,-0.2464,-0.2975,-0.3709,-0.3689,-0.3173,-0.2457,-0.2438,-0.2462,-0.2309,-0.151,-0.1264,-0.1079,-0.0247,0.0,0.0,0.0,0.0,0.0,0.0,0.0,0.0,0.0,0.0,0.0,0.0,0.0,0.0,0.0,0.0,0.0,0.0,-0.061,-0.1349,-0.2122,-0.2237,-0.2487,-0.3116,-0.3202,-0.3463,-0.4187,-0.4238,-0.4259,-0.4239,-0.4242,-0.4242,-0.4242,-0.431,-0.4755,-0.565,-0.4991,-0.4618,-0.4695,-0.4763,-0.4835,-0.4913,-0.4076,-0.3762,-0.3882,-0.2955,-0.302,0.0,0.0,0.0,0.0,0.0,0.0,0.0,0.0,-0.1644,-0.1759,-0.0813,0.0,0.0,0.0,0.0,0.0,0.0,0.0,0.0,0.0,0.0,0.0,0.0,0.0,0.0,-0.1311,-0.2185,-0.2191,-0.2192,-0.2161,-0.2166,-0.0778,0.0,0.0,0.0,0.0,0.0,0.0,0.0,-0.0034,-0.1478,-0.1411,-0.0101,-0.3021,-0.2752,-0.0067,-0.1545,-0.1344,0.0,0.0,0.0,0.0,0.0,-0.082,-0.2007,-0.2006,-0.1172,0.0,0.0,0.0,0.0,0.0,0.0,0.0,0.0,0.0,0.0,0.0,0.0,0.0,0.0,0.0,0.0,0.0,0.0,0.0,0.0,0.0,0.0,0.0,0.0,0.0,0.0,0.0,0.0,0.0,0.0,-0.0441,-0.1616,-0.1772,-0.2257,-0.3485,-0.3622,-0.3612,-0.3632,-0.3636,-0.3758,-0.4093,-0.3801,-0.3828,-0.4251,-0.3964,-0.3837,-0.3941,-0.3953,-0.4012,-0.4119,-0.2705,-0.2058,-0.2149,-0.0673,-0.0773,-0.7533,-0.5962,-0.4343,-0.2795,-0.2403,-0.206,0.0,0.0,-0.0235,-0.0241,-0.0104,0.0,0.0,0.0,0.0,0.0,0.0,0.0,0.0,0.0,0.0,0.0,0.0,0.0,0.0,-0.0168,-0.0304,-0.0308,-0.0308,-0.031,-0.0314,-0.0104,0.0,0.0,0.0,0.0,0.0,0.0,0.0,0.0,-0.0202,-0.0202,0.0,-0.0404,-0.037,0.0,-0.0202,-0.0202,0.0,0.0,0.0,0.0,0.0,-0.0101,-0.0267,-0.0293,-0.0161,0.0,0.0,0.0,0.0,0.0,0.0,0.0,0.0,0.0,0.0,0.0,0.0,0.0,0.0,0.0,0.0,0.0,0.0,0.0,0.0,0.0,0.0,0.0,0.0,0.0,0.0,0.0,0.0,0.0,0.0,-0.0059,-0.0236,-0.0235,-0.0323,-0.0471,-0.0499,-0.0499,-0.05,-0.05,-0.1154,-0.2637,-0.1321,-0.118,-0.2669,-0.1308,-0.0538,-0.0547,-0.0554,-0.0561,-0.057,-0.0369,-0.0302,-0.0303,-0.0101,-0.0101,-0.4786,-0.3854,-0.2951,-0.1334,-0.0923,-0.0767,-0.0137,0.0,0.0,0.0,0.0,0.0,0.0,0.0,0.0,0.0,0.0,0.0,0.0,0.0,0.0,0.0,0.0,0.0,0.0,0.0,0.0,0.0,0.0,0.0,0.0,0.0,0.0,0.0,0.0,0.0,0.0,0.0,0.0,0.0,0.0,0.0,0.0,0.0,0.0,0.0,0.0,0.0,0.0,0.0,0.0,0.0,0.0,0.0,0.0,0.0,0.0,0.0,0.0,0.0,0.0,0.0,0.0,0.0,0.0,0.0,0.0,0.0,0.0,0.0,0.0,0.0,0.0,0.0,0.0,0.0,0.0,0.0,0.0,0.0,0.0,0.0,0.0,0.0,0.0,0.0,0.0,0.0,0.0,0.0,0.0,0.0,0.0,0.0,0.0,0.0,-0.0305,-0.0989,-0.0403,-0.0312,-0.1012,-0.0382,0.0,0.0,0.0,0.0,0.0,0.0,0.0,0.0,0.0,0.0,-0.2828,-0.2172,-0.1529,-0.0299,0.0,0.0,0.0,0.0,0.0,0.0,0.0,0.0,0.0,0.0,0.0,0.0,0.0,0.0,0.0,0.0,0.0,0.0,0.0,0.0,0.0,0.0,0.0,0.0,0.0,0.0,0.0,0.0,0.0,0.0,0.0,0.0,0.0,0.0,0.0,0.0,0.0,0.0,0.0,0.0,0.0,0.0,0.0,0.0,0.0,0.0,0.0,0.0,0.0,0.0,0.0,0.0,0.0,0.0,0.0,0.0,0.0,0.0,0.0,0.0,0.0,0.0,0.0,0.0,0.0,0.0,0.0,0.0,0.0,0.0,0.0,0.0,0.0,0.0,0.0,0.0,0.0,0.0,0.0,0.0,0.0,0.0,0.0,0.0,0.0,0.0,0.0,0.0,0.0,0.0,0.0,0.0,0.0,0.0,0.0,0.0,0.0,0.0,0.0,0.0,0.0,0.0,0.0,0.0,0.0,0.0,0.0,0.0,-0.2499,-0.1321,-0.0066,0.0,0.0,0.0,0.0,0.0,0.0,0.0,0.0,0.0,0.0,0.0,0.0,0.0,0.0,0.0,0.0,0.0,0.0,0.0,0.0,0.0,0.0,0.0,0.0,0.0,0.0,0.0,0.0,0.0,0.0,0.0,0.0,0.0,0.0,0.0,0.0,0.0,0.0,0.0,0.0,0.0,0.0,0.0,0.0,0.0,0.0,0.0,0.0,0.0,0.0,0.0,0.0,0.0,0.0,0.0,0.0,0.0,0.0,0.0,0.0,0.0,0.0,0.0,0.0,0.0,0.0,0.0,0.0,0.0,0.0,0.0,0.0,0.0,0.0,0.0,0.0,0.0,0.0,0.0,0.0,0.0,0.0,0.0,0.0,0.0,0.0,0.0,0.0,0.0,0.0,0.0,0.0,0.0,0.0,0.0,0.0,0.0,0.0,0.0,0.0,0.0,0.0,0.0,0.0,0.0,0.0,0.0,0.0,0.0,-0.084,-0.0425,0.0,0.0,0.0,0.0,0.0,0.0,0.0,0.0,0.0,0.0,0.0,0.0,0.0,0.0,0.0,0.0,0.0,0.0,0.0,0.0,0.0,0.0,0.0,0.0,0.0,0.0,0.0,0.0,0.0,0.0,0.0,0.0,0.0,0.0,0.0,0.0,0.0,0.0,0.0,0.0,0.0,0.0,0.0,0.0,0.0,0.0,0.0,0.0,0.0,0.0,0.0,0.0,0.0,0.0,0.0,0.0,0.0,0.0,0.0,0.0,0.0,0.0,0.0,0.0,0.0,0.0,0.0,0.0,0.0,0.0,0.0,0.0,0.0,0.0,0.0,0.0,0.0,0.0,0.0,0.0,0.0,0.0,0.0,0.0,0.0,0.0,0.0,0.0,0.0,0.0,0.0,0.0,0.0,0.0,0.0,0.0,0.0,0.0,0.0,0.0,0.0,0.0,0.0,0.0,0.0,0.0,0.0,0.0,0.0,0.0,0.0,0.0,0.0,0.0,0.0,0.0,0.0,0.0,0.0,0.0,0.0,0.0,0.0,0.0,0.0,0.0,0.0,0.0,0.0,0.0,0.0,0.0,0.0,0.0,0.0,0.0,0.0,0.0,0.0,0.0,0.0,0.0,0.0,0.0,0.0,0.0,0.0,0.0,0.0,0.0,0.0,0.0,0.0,0.0,0.0,0.0,0.0,0.0,0.0,0.0,0.0,0.0,0.0,0.0,0.0,0.0,0.0,0.0,0.0,0.0,0.0,0.0,0.0,0.0,0.0,0.0,0.0,0.0,0.0,0.0,0.0,0.0,0.0,0.0,0.0,0.0,0.0,0.0,0.0,0.0,0.0,0.0,0.0,0.0,0.0,0.0,0.0,0.0,0.0,0.0,0.0,0.0,0.0,0.0,0.0,0.0,0.0,0.0,0.0,0.0,0.0,0.0,0.0,0.0,0.0,0.0,0.0,0.0,0.0,0.0,0.0,0.0,0.0,0.0,0.0,0.0,0.0,0.0,0.0,0.0,0.0,0.0,0.0,0.0,0.0,0.0,0.0,0.0,0.0,0.0,0.0,0.0,0.0,0.0,0.0,0.0,0.0,0.0,0.0,0.0,0.0,0.0,0.0,0.0,0.0,0.0,0.0,0.0,0.0,0.0,0.0,0.0,0.0,0.0,0.0,0.0,0.0,0.0,0.0,0.0,0.0,0.0,0.0,0.0,0.0,0.0,0.0,0.0,0.0,0.0,0.0,0.0,0.0,0.0,0.0,0.0,0.0,0.0,0.0,0.0,0.0,0.0,0.0,0.0,0.0,0.0,0.0,0.0,0.0,0.0,0.0,0.0,0.0,0.0,0.0,0.0,0.0,0.0,0.0,0.0,0.0,0.0,0.0,0.0,0.0,0.0,0.0,0.0,0.0,0.0,0.0,0.0,0.0,0.0,0.0,0.0,0.0,0.0,0.0,0.0,0.0,0.0,0.0,0.0,0.0,0.0,0.0,0.0,0.0,0.0,0.0,0.0,0.0,0.0,0.0,0.0,0.0,0.0,0.0,0.0,0.0,0.0,0.0,0.0,0.0,0.0,0.0,0.0,0.0,0.0,0.0,0.0,0.0,0.0,0.0,0.0,0.0,0.0,0.0,0.0,0.0,0.0,0.0,0.0,0.0,0.0,0.0,0.0,0.0,0.0,0.0,0.0,0.0,0.0,0.0,0.0,0.0,0.0,0.0,0.0,0.0,0.0,0.0,0.0,0.0,0.0,0.0,0.0,0.0,0.0,0.0,0.0,0.0,0.0,0.0,0.0,0.0,0.0,0.0,0.0,0.0,0.0,0.0,0.0,0.0,0.0,0.0,0.0,0.0,0.0,0.0,0.0,0.0,0.0,0.0,0.0,0.0,0.0,0.0,0.0,0.0,0.0,0.0,0.0,0.0,0.0,0.0,0.0,0.0,0.0,0.0,0.0,0.0,0.0,0.0,0.0,0.0,0.0,0.0,0.0,0.0,0.0,0.0,0.0,0.0,0.0,0.0,0.0,0.0,0.0,0.0,0.0,0.0,0.0,0.0,0.0,0.0,0.0,0.0,0.0,0.0,0.0,0.0,0.0,0.0,0.0,0.0,0.0,0.0,0.0,0.0,0.0,0.0,0.0,0.0,0.0,0.0,0.0,0.0,0.0,0.0,0.0,0.0,0.0,0.0,0.0,0.0,0.0,0.0,0.0,0.0,0.0,0.0,0.0,0.0,0.0,0.0,0.0,0.0,0.0,0.0,0.0,0.0,0.0,0.0,0.0,0.0,0.0,0.0,0.0,0.0,0.0,0.0,0.0,0.0,0.0,0.0,0.0,0.0,0.0,0.0,0.0,0.0,0.0,0.0,0.0,0.0,0.0,0.0,0.0,0.0,0.0,0.0,0.0,0.0,0.0,0.0,0.0,0.0,0.0,0.0,0.0,0.0,0.0,0.0,0.0,0.0,0.0471,0.0,0.0,0.0,0.0,0.0,0.0,0.0,0.0,0.0,0.0,0.0,0.0,0.0,0.0,0.0,0.0,0.0,0.0,0.0,0.0,0.0,0.0,0.0,0.0,0.0,0.0,0.0,0.0,0.0,0.0,0.0,0.0,0.0,0.0,0.0,0.0,0.0,0.0,0.0,0.0,0.0,0.0,0.0,0.0,0.0,0.0,0.0,0.0,0.0,0.0,0.0,0.0,0.0,0.0,0.0,0.0,0.0,0.0,0.0,0.0,0.0,0.0,0.0,0.0,0.0,0.0,0.0,0.0,0.0,0.0,0.0,0.0,0.0,0.0,0.0,0.0,0.0,0.0,0.0,0.0,0.0,0.0,0.0,0.0,0.0,0.0,0.0,0.0,0.0,0.0,0.0,0.0,0.0,0.0,0.0,0.0,0.0,0.0,0.0,0.0,0.0,0.0,0.0,0.0,0.0,0.0,0.0,0.0,0.0143,0.0394,0.0399,0.142,0.0,0.0,0.0,0.0,0.0,0.0,0.0,0.0,0.0,0.0,0.0,0.0,0.0,0.0,0.0,0.0,0.0,0.0,0.0,0.0,0.0,0.0,0.0,0.0,0.0,0.0,0.0,0.0,0.0,0.0,0.0,0.0,0.0,0.0,0.0,0.0,0.0,0.0,0.0,0.0,0.0,0.0,0.0,0.0,0.0,0.0,0.0,0.0,0.0,0.0,0.0,0.0,0.0,0.0,0.0,0.0,0.0,0.0,0.0,0.0,0.0,0.0,0.0,0.0,0.0,0.0,0.0,0.0,0.0,0.0,0.0,0.0,0.0,0.0,0.0,0.0,0.0,0.0,0.0,0.0,0.0,0.0,0.0,0.0,0.0,0.0,0.0,0.0,0.0,0.0,0.0,0.0,0.0,0.0,0.0,0.0,0.0,0.0,0.0,0.0,0.0,0.0,0.0,0.0,0.0,0.0,0.0,0.0,0.0835,0.2392,0.2398,0.3452,0.0,0.0,0.0,0.0,0.0,0.0,0.0,0.0,0.0,0.0,0.0,0.0,0.0,0.0,0.0,0.0,0.0,0.0,0.0,0.0,0.0,0.0,0.0,0.0,0.0,0.0,0.0,0.0,0.0,0.0,0.0,0.0,0.0,0.0,0.0,0.0,0.0,0.0,0.0,0.0,0.0,0.0,0.0,0.0,0.0,0.0,0.0,0.0,0.0,0.0,0.0,0.0,0.0,0.0,0.0,0.0,0.0,0.0,0.0,0.0,0.0,0.0,0.0,0.0,0.0,0.0,0.0,0.0,0.0,0.0,0.0,0.0,0.0,0.0,0.0,0.0,0.0,0.0,0.0,0.0,0.0,0.0,0.0,0.0,0.0,0.0,0.0,0.0,0.0,0.0,0.0,0.0,0.0,0.0,0.0,0.0,0.0,0.0,0.0,0.0,0.0,0.0,0.0,0.0,0.0,0.05,0.15,0.1519,0.251,0.4395,0.4395,0.5446,0.0,0.0,0.0,0.0,0.0,0.0,0.0,0.0,0.0,0.0,0.0,0.0,0.0,0.0,0.0,0.0,0.0,0.0,0.0,0.0,0.0,0.0,0.0,0.0,0.0,0.0,0.0,0.0,0.0,0.0,0.0,0.0,0.0,0.0,0.0,0.0,0.0,0.0,0.0,0.0,0.0,0.0,0.0,0.0,0.0,0.0,0.0,0.0,0.0,0.0,0.0,0.0,0.0,0.0,0.0,0.0,0.0,0.0,0.0,0.0,0.0,0.0,0.0,0.0,0.0,0.0,0.0,0.0,0.0,0.0,0.0,0.0303,0.0572,0.0572,0.0269,0.0101,0.0504,0.027,0.0101,0.0507,0.0271,0.0,0.0,0.0,0.0,0.0,0.0,0.0,0.0,0.0,0.0,0.0,0.0,0.0,0.0,0.0,0.0,0.0,0.0,0.0,0.0,0.0,0.0,0.0,0.0392,0.14,0.2947,0.3376,0.46,0.6513,0.6496,0.7505,0.0,0.0,0.0,0.0,0.0,0.0,0.0,0.0,0.0,0.0,0.0,0.0,0.0,0.0,0.0,0.0,0.0,0.0,0.0,0.0,0.0,0.0,0.0,0.0,0.0,0.0,0.0,0.0,0.0,0.0,0.0,0.0,0.0,0.0,0.0,0.0,0.0,0.0,0.0,0.0,0.0,0.0,0.0,0.0,0.0,0.0,0.0,0.0,0.0,0.0,0.0,0.0,0.0,0.0,0.0,0.0,0.0,0.0,0.0,0.0,0.0,0.0,0.0,0.0,0.0,0.0,0.0,0.0,0.0,0.0,0.0,0.121,0.245,0.245,0.121,0.0437,0.2082,0.1154,0.048,0.2122,0.1107,0.0,0.0,0.0,0.0,0.0,0.0,0.0,0.0,0.0,0.0,0.0,0.0,0.0,0.0,0.0,0.0,0.0,0.0,0.0,0.0,0.0,0.0,0.0,0.1733,0.2775,0.3102,0.4872,0.679,0.8887,0.8718,0.9668,0.0,0.0,0.0,0.0,0.0,0.0,0.0,0.0,0.0,0.0,0.0,0.0,0.0,0.0,0.0,0.0,0.0,0.0,0.0,0.0,0.0,0.0,0.0,0.0,0.0,0.0,0.0,0.0,0.0,0.0,0.0,0.0,0.0,0.0,0.0,0.0,0.0,0.0,0.0,0.0,0.0,0.0,0.0,0.0,0.0,0.0,0.0,0.0,0.0,0.0,0.0,0.0,0.0,0.0,0.0,0.0,0.0,0.0,0.0,0.0,0.0171,0.1283,0.1613,0.1411,0.0336,0.0773,0.1411,0.0303,0.1579,0.2987,0.1914,0.3038,0.4445,0.4445,0.3961,0.3678,0.4398,0.4003,0.3708,0.4433,0.3967,0.3111,0.1961,0.1762,0.1346,0.0177,0.0,0.0,0.0,0.0,0.0,0.0,0.0,0.0,0.0,0.0,0.0,0.0,0.0,0.0,0.0,0.1112,0.1734,0.1734,0.3724,0.5372,0.6585,0.7486,0.8954,1.0921,1.0869,1.1258,0.0,0.0,0.0,0.0,0.0,0.0,0.0,0.0,0.0,0.0,0.0,0.0,0.0,0.0,0.0,0.0,0.0,0.0,0.0,0.0,0.0,0.0,0.0,0.0,0.0,0.0,0.0,0.0,0.0,0.0,0.0,0.0,0.0,0.0,0.0,0.0312,0.092,0.0309,0.031,0.0924,0.0302,0.03,0.087,0.0848,0.1166,0.1675,0.0,0.0,0.0,0.0474,0.0328,0.0875,0.0875,0.051,0.0073,0.0649,0.0503,0.0072,0.0628,0.0795,0.1102,0.2903,0.3489,0.3254,0.1981,0.2484,0.3221,0.1948,0.3422,0.5235,0.4549,0.4992,0.5747,0.632,0.6132,0.5931,0.649,0.6196,0.5968,0.649,0.6161,0.5368,0.3996,0.3741,0.3298,0.1903,0.1231,0.0875,0.0875,0.0362,0.0,0.0,0.0,0.0,0.0,0.0,0.0,0.0,0.0537,0.0864,0.0904,0.2802,0.3842,0.3895,0.5922,0.7632,0.9045,0.9765,1.0851,1.2227,1.2186,1.2142,0.0,0.0,0.0,0.0,0.0,0.0,0.0,0.0,0.0,0.0,0.0,0.0,0.0,0.0,0.0,0.0,0.0,0.0,0.0,0.0,0.0,0.0,0.0,0.0,0.0,0.0,0.0,0.0,0.0,0.0,0.0,0.0,0.0,0.0,0.0,0.097,0.306,0.1047,0.1014,0.3039,0.099,0.1022,0.2868,0.2869,0.3923,0.0,0.0,0.0,0.0,0.1602,0.1129,0.2871,0.2871,0.1711,0.0219,0.2146,0.1638,0.0254,0.2048,0.2658,0.2959,0.477,0.5364,0.5364,0.5362,0.5364,0.5364,0.5362,0.5364,0.5848,0.773,0.6938,0.6069,0.7998,0.7118,0.6279,0.8094,0.7051,0.6333,0.8139,0.7008,0.5806,0.577,0.577,0.5772,0.5736,0.4105,0.2871,0.2871,0.1202,0.0,0.0,0.0,0.0,0.0,0.0,0.0,0.0,0.1819,0.2925,0.3073,0.4919,0.6061,0.6251,0.8169,0.9239,0.9394,1.1321,1.2359,1.2491,1.2352,1.2244,0.0,0.0,0.0,0.0,0.0,0.0,0.0,0.0,0.0,0.0,0.0,0.0,0.0,0.0,0.0,0.0,0.0,0.0,0.0,0.0,0.0,0.0,0.0,0.0,0.0,0.0,0.0,0.0,0.0,0.0,0.0,0.1246,0.1971,0.1964,0.2063,0.3069,0.5079,0.458,0.4647,0.5289,0.4496,0.4413,0.501,0.4923,0.0,0.0,0.0,0.0,0.0,0.4469,0.4323,0.4866,0.4866,0.4505,0.4034,0.465,0.4505,0.406,0.4631,0.4814,0.5109,0.6821,0.7371,0.7595,0.8698,0.8169,0.7448,0.8775,0.8288,0.7837,0.9774,0.9911,0.9707,1.0353,1.0113,0.993,1.0505,1.0179,0.992,1.0496,1.0168,0.9324,0.8016,0.7797,0.7327,0.5991,0.5265,0.4395,0.3053,0.3526,0.3453,0.211,0.3163,0.2905,0.0218,0.1231,0.1992,0.1965,0.3882,0.5046,0.5067,0.7079,0.8211,0.8281,1.0292,1.1356,1.1362,1.2076,1.2457,1.2501,1.2457,1.241,0.0,0.0,0.0,0.0,0.0,0.0,0.0,0.0,0.0,0.0,0.0,0.0,0.0,0.0,0.0,0.0,0.0,0.0,0.0,0.0,0.0,0.0,0.0,0.0,0.0,0.0,0.0,0.0,0.0,0.0,0.0,0.1861,0.3224,0.397,0.4073,0.5109,0.7199,0.649,0.6531,0.7372,0.64,0.6323,0.7027,0.6922,0.0,0.0,0.0,0.0,0.0,0.6457,0.627,0.6898,0.6932,0.6488,0.5882,0.664,0.6423,0.5906,0.6577,0.6831,0.7089,0.8843,0.9402,0.9549,1.0477,0.999,0.9329,1.0546,1.0159,0.9674,1.0963,1.1353,1.1406,1.1463,1.1552,1.1584,1.1584,1.1584,1.1584,1.1584,1.1584,1.1217,1.0011,0.9793,0.9396,0.8165,0.7365,0.646,0.5225,0.5517,0.5337,0.4105,0.5084,0.4831,0.2402,0.3308,0.4004,0.4059,0.5963,0.7164,0.7269,0.9251,1.0376,1.0457,1.1702,1.2369,1.2369,1.2461,1.2501,1.2501,1.2501,1.2501,0.0,0.0,0.0,0.0,0.0,0.0,0.0,0.0,0.0,0.0,0.0,0.0,0.0,0.0,0.0,0.0,0.0,0.0,0.0,0.0,0.0,0.0,0.0,0.0,0.0,0.0,0.0,0.0,0.0,0.0,0.0,0.2207,0.4161,0.5954,0.6171,0.7258,0.9374,0.7304,0.7316,0.9404,0.7265,0.7178,0.8953,0.8905,0.0,0.0,0.0,0.0,0.0,0.7881,0.7424,0.8954,0.9056,0.7929,0.6433,0.8237,0.7763,0.645,0.8152,0.8722,0.8987,1.0664,1.1206,1.1172,1.0968,1.0931,1.0931,1.0941,1.1077,1.1247,1.1369,1.1406,1.1443,1.1586,1.1584,1.1584,1.1584,1.1584,1.1584,1.1584,1.1584,1.1584,1.1584,1.1584,1.1584,1.1584,1.005,0.885,0.8714,0.7259,0.6174,0.6034,0.6139,0.6206,0.6206,0.6098,0.6057,0.6205,0.8028,0.9282,0.9579,1.1333,1.2369,1.2501,1.2501,1.2501,1.2501,1.2501,1.2501,1.2501,1.2501,1.2501,0.0,0.0,0.0,0.0,0.0,0.0,0.0,0.0,0.0,0.0,0.0,0.0,0.0,0.0,0.0,0.0,0.0,0.0,0.0,0.0,0.0,0.0,0.0,0.0,0.0,0.0,0.0,0.0,0.0,0.0,0.0,0.5631,0.771,0.8176,0.9626,1.0703,1.1413,1.0887,1.1003,1.1702,1.0825,1.0703,1.1284,1.1038,0.0,0.0,0.0,0.0,1.1922,1.1014,1.0934,1.1273,1.1156,1.0809,1.0441,1.0781,1.0635,1.0302,1.0706,1.0875,1.0921,1.1245,1.1291,1.1189,1.1124,1.1149,1.1138,1.1253,1.1311,1.1372,1.1528,1.1565,1.1575,1.1573,1.1584,1.1584,1.1584,1.1584,1.1584,1.1584,1.1584,1.1584,1.1584,1.1584,1.1584,1.1584,1.1217,1.0414,0.9043,0.9674,0.9688,0.8311,0.9418,1.0236,1.0236,0.8886,0.806,0.82,1.0184,1.1448,1.1625,1.2159,1.2467,1.2501,1.2501,1.2501,1.2501,1.2501,1.2501,1.2501,1.2501,1.2501,0.0,0.0,0.0,0.0,0.0,0.0,0.0,0.0,0.0,0.0,0.0,0.0,0.0,0.0,0.0,0.0,0.0,0.0,0.0,0.0,0.0,0.0,0.0,0.0,0.0,0.0,0.0,0.0,0.0,0.0,0.0,0.5952,0.7995,0.8855,1.0792,1.1904,1.2098,1.2098,1.2179,1.2294,1.1982,1.1874,1.1948,1.1753,1.1796,0.0,0.0,0.0,1.2104,1.2176,1.2162,1.2098,1.2047,1.1955,1.1786,1.1709,1.1641,1.1584,1.1584,1.1584,1.1596,1.144,1.1382,1.1358,1.1325,1.1318,1.1375,1.1389,1.1443,1.1514,1.1563,1.1584,1.1584,1.1584,1.1584,1.1584,1.1584,1.1584,1.1584,1.1584,1.1584,1.1584,1.1584,1.1584,1.1584,1.1584,1.1584,1.127,1.0334,1.11,1.1305,1.0343,1.11,1.1678,1.1678,1.0722,1.0162,1.0236,1.1475,1.2203,1.2288,1.2427,1.2501,1.2501,1.2501,1.2501,1.2501,1.2501,1.2501,1.2501,1.2501,1.2501,0.0,0.0,0.0,0.0,0.0,0.0,0.0,0.0,0.0,0.0,0.0,0.0,0.0,0.0,0.0,0.0,0.0,0.0,0.0,0.0,0.0,0.0,0.0,0.0,0.0,0.0,0.0,0.0,0.0,0.0,0.0,0.5718,0.7714,0.9374,1.1033,1.1962,1.2132,1.2087,1.2087,1.2132,1.1938,1.1867,1.1867,1.1867,1.1948,0.0,0.0,0.0,1.2176,1.2271,1.2247,1.2176,1.2247,1.2132,1.1857,1.181,1.1719,1.1614,1.1626,1.1584,1.1563,1.1467,1.1514,1.1596,1.1463,1.1514,1.1592,1.1463,1.1518,1.1584,1.1584,1.1584,1.1584,1.1584,1.1584,1.1584,1.1584,1.1584,1.1584,1.1584,1.1584,1.1584,1.1584,1.1584,1.1584,1.1584,1.1584,1.1634,1.1776,1.1776,1.1769,1.1793,1.1776,1.1763,1.1763,1.1803,1.181,1.1763,1.2084,1.2267,1.2288,1.2427,1.2501,1.2501,1.2501,1.2501,1.2501,1.2501,1.2501,1.2501,1.2501,1.2501,0.0,0.0,0.0,0.0,0.0,0.0,0.0,0.0,0.0,0.0,0.0,0.0,0.0,0.0,0.0,0.0,0.0,0.0,0.0,0.0,0.0,0.0,0.0,0.0,0.0,0.0,0.0,0.0,0.0,0.0,0.0,0.931,1.147,1.1757,1.2079,1.2233,1.2254,1.1996,1.1996,1.2254,1.2139,1.2064,1.2064,1.2064,1.2149,0.0,0.0,1.2325,1.2437,1.2461,1.2457,1.2423,1.2328,1.226,1.2189,1.1888,1.178,1.1746,1.1624,1.1584,1.1616,1.1592,1.1563,1.1616,1.1592,1.1563,1.1613,1.1592,1.1567,1.1584,1.1584,1.1584,1.1584,1.1584,1.1584,1.1584,1.1584,1.1584,1.1584,1.1584,1.1584,1.1584,1.1584,1.1584,1.1584,1.1584,1.1584,1.1634,1.1776,1.1692,1.1661,1.1783,1.1688,1.1614,1.1614,1.1881,1.1921,1.1667,1.1932,1.2193,1.2284,1.2427,1.2501,1.2501,1.2501,1.2501,1.2501,1.2501,1.2501,1.2501,1.2501,1.2501,0.0,0.0,0.0,0.0,0.0,0.0,0.0,0.0,0.0,0.0,0.0,0.0,0.0,0.0,0.0,0.0,0.0,0.0,0.0,0.0,0.0,0.0,0.0,0.0,0.0,0.0,0.0,0.0,0.0,0.0,0.0,0.0,1.0048,1.2215,1.2291,1.2291,1.2291,1.2152,1.2152,1.2291,1.2258,1.2224,1.2224,1.2224,1.2267,1.2406,0.0,1.244,1.2501,1.2501,1.2501,1.2494,1.243,1.2305,1.2169,1.1826,1.1678,1.1671,1.1607,1.1584,1.1584,1.1584,1.1584,1.1584,1.1584,1.1584,1.1584,1.1584,1.1584,1.1584,1.1584,1.1584,1.1584,1.1584,1.1584,1.1584,1.1584,1.1584,1.1584,1.1584,1.1584,1.1584,1.1584,1.1584,1.1584,1.1584,1.1648,1.1786,1.1935,1.1972,1.2006,1.2074,1.202,1.1982,1.1982,1.2067,1.2108,1.2094,1.2074,1.2203,1.2393,1.2467,1.2501,1.2501,1.2501,1.2501,1.2501,1.2501,1.2545,1.2623,1.2539,1.2545,0.0,0.0,0.0,0.0,0.0,0.0,0.0,0.0,0.0,0.0,0.0,0.0,0.0,0.0,0.0,0.0,0.0,0.0,0.0,0.0,0.0,0.0,0.0,0.0,0.0,0.0,0.0,0.0,0.0,0.0,0.0,0.0,0.8675,1.2227,1.2338,1.2338,1.2338,1.2338,1.2325,1.2291,1.2325,1.2322,1.2291,1.2325,1.24,1.2501,1.2501,1.2501,1.2501,1.2501,1.2501,1.2501,1.2501,1.2342,1.2125,1.186,1.1695,1.1634,1.1634,1.1647,1.1584,1.1584,1.1584,1.1584,1.1584,1.1584,1.1584,1.1584,1.1584,1.1584,1.1584,1.1584,1.1584,1.1584,1.1584,1.1584,1.1584,1.1584,1.1584,1.1584,1.1584,1.1584,1.1584,1.1584,1.1584,1.1584,1.1675,1.1837,1.2026,1.2111,1.2196,1.2233,1.2237,1.225,1.2288,1.2115,1.2149,1.2481,1.2298,1.2254,1.2444,1.2484,1.2501,1.2501,1.2501,1.2501,1.2501,1.2501,1.2562,1.2635,1.2556,1.2583,0.0,0.0,0.0,0.0,0.0,0.0,0.0,0.0,0.0,0.0,0.0,0.0,0.0,0.0,0.0,0.0,0.0,0.0,0.0,0.0,0.0,0.0,0.0,0.0,0.0,0.0,0.0,0.0,0.0,0.0,0.0,0.0,0.0,1.2407,1.2484,1.2484,1.2484,1.2484,1.242,1.2291,1.2423,1.2416,1.2294,1.2427,1.2491,1.2501,1.2501,1.2501,1.2501,1.2501,1.2501,1.2501,1.2501,1.241,1.2271,1.225,1.206,1.178,1.178,1.1692,1.1584,1.1584,1.1584,1.1584,1.1584,1.1584,1.1584,1.1584,1.1584,1.1584,1.1584,1.1584,1.1584,1.1584,1.1584,1.1584,1.1584,1.1584,1.1584,1.1584,1.1584,1.1584,1.1584,1.1584,1.1584,1.1584,1.1594,1.1651,1.1793,1.182,1.1918,1.2101,1.2115,1.2173,1.2277,1.202,1.2033,1.2474,1.2359,1.2284,1.2305,1.243,1.2501,1.2501,1.2501,1.2501,1.2501,1.2501,1.2508,1.2518,1.2508,1.2583,0.0,0.0,0.0,0.0,0.0,0.0,0.0,0.0,0.0,0.0,0.0,0.0,0.0,0.0,0.0,0.0,0.0,0.0,0.0,0.0,0.0,0.0,0.0,0.0,0.0,0.0,0.0,0.0,0.0,0.0,0.0,0.0,0.0,1.0505,1.1753,1.2413,1.2501,1.2413,1.2386,1.2423,1.2474,1.2474,1.2423,1.2478,1.2501,1.2501,1.2501,1.2501,1.2501,1.2501,1.2501,1.2491,1.2406,1.2338,1.2277,1.222,1.2111,1.1976,1.1976,1.1874,1.1715,1.1715,1.1655,1.1584,1.1584,1.1584,1.1636,1.1692,1.1651,1.1604,1.1692,1.1651,1.1607,1.1695,1.1648,1.1584,1.1584,1.1584,1.1584,1.1584,1.1584,1.1584,1.1584,1.1584,1.1584,1.1584,1.1658,1.1806,1.1955,1.2057,1.2172,1.2322,1.2335,1.2325,1.2291,1.2264,1.2284,1.2366,1.2322,1.2328,1.242,1.2474,1.2501,1.2501,1.2501,1.2501,1.2501,1.2501,1.2552,1.2601,1.2545,1.2637,0.0,0.0,0.0,0.0,0.0,0.0,0.0,0.0,0.0,0.0,0.0,0.0,0.0,0.0,0.0,0.0,0.0,0.0,0.0,0.0,0.0,0.0,0.0,0.0,0.0,0.0,0.0,0.0,0.0,0.0,0.0,0.0,0.0,0.0,1.1584,1.2335,1.2433,1.2383,1.2406,1.2501,1.2501,1.2501,1.2501,1.2501,1.2501,1.2501,1.2501,1.2501,1.2501,1.2501,1.2501,1.2491,1.2393,1.2355,1.2345,1.2278,1.221,1.2173,1.2173,1.2033,1.1898,1.181,1.1729,1.1677,1.1597,1.1584,1.1614,1.1753,1.1692,1.1664,1.1853,1.1762,1.1617,1.1759,1.1688,1.1584,1.1584,1.1584,1.1584,1.1584,1.1584,1.1584,1.1584,1.1584,1.1584,1.1584,1.1665,1.1837,1.2074,1.219,1.2291,1.2481,1.2461,1.2413,1.2362,1.2406,1.2413,1.2362,1.2355,1.24,1.2498,1.2501,1.2501,1.2501,1.2501,1.2501,1.2501,1.2501,1.2579,1.2686,1.2573,1.2691,0.0,0.0,0.0,0.0,0.0,0.0,0.0,0.0,0.0,0.0,0.0,0.0,0.0,0.0,0.0,0.0,0.0,0.0,0.0,0.0,0.0,0.0,0.0,0.0,0.0,0.0,0.0,0.0,0.0,0.0,0.0,0.0,0.0,0.0,1.2206,1.2288,1.2291,1.2427,1.2498,1.2501,1.2501,1.2501,1.2501,1.2501,1.2501,1.2501,1.2501,1.2501,1.2501,1.2501,1.2501,1.2501,1.2501,1.2501,1.2501,1.2501,1.2413,1.2291,1.2291,1.2193,1.2074,1.1881,1.1793,1.1766,1.1624,1.1584,1.1614,1.1753,1.1692,1.1687,1.2019,1.1843,1.1617,1.1759,1.1688,1.1584,1.1584,1.1584,1.1584,1.1584,1.1584,1.1584,1.1584,1.1584,1.1584,1.1584,1.1584,1.1728,1.2064,1.2101,1.2217,1.2471,1.2376,1.2349,1.2488,1.2372,1.2352,1.2491,1.2501,1.2501,1.2501,1.2501,1.2501,1.2501,1.2505,1.2505,1.2501,1.2505,1.2583,1.2686,1.2573,1.2742,0.0,0.0,0.0,0.0,0.0,0.0,0.0,0.0,0.0,0.0,0.0,0.0,0.0,0.0,0.0,0.0,0.0,0.0,0.0,0.0,0.0,0.0,0.0,0.0,0.0,0.0,0.0,0.0,0.0,0.0,0.0,0.0,0.0,0.0,1.0494,1.2071,1.2288,1.2118,1.2152,1.2501,1.24,1.2406,1.2501,1.2501,1.2501,1.2501,1.2501,1.2501,1.2501,1.2501,1.2501,1.2501,1.2501,1.2501,1.2501,1.2501,1.2474,1.2437,1.2437,1.2274,1.2091,1.2047,1.1853,1.1638,1.1597,1.1584,1.1614,1.1753,1.1692,1.1687,1.2019,1.1843,1.1617,1.1759,1.1763,1.1705,1.1604,1.1661,1.1702,1.1604,1.1584,1.1584,1.1584,1.1584,1.1584,1.1584,1.1668,1.184,1.2182,1.2311,1.2406,1.2491,1.2464,1.2457,1.2498,1.2464,1.2457,1.2498,1.2501,1.2501,1.2501,1.2501,1.2501,1.2501,1.2606,1.261,1.2501,1.2571,1.2645,1.2689,1.2642,1.2844,0.0,0.0,0.0,0.0,0.0,0.0,0.0,0.0,0.0,0.0,0.0,0.0,0.0,0.0,0.0,0.0,0.0,0.0,0.0,0.0,0.0,0.0,0.0,0.0,0.0,0.0,0.0,0.0,0.0,0.0,0.0,0.0,0.0,0.0,1.0256,1.204,1.2288,1.2162,1.2233,1.2501,1.2416,1.242,1.2501,1.2501,1.2501,1.2501,1.2501,1.2501,1.2501,1.2501,1.2501,1.2501,1.2501,1.2501,1.2501,1.2501,1.2501,1.2501,1.2501,1.2349,1.2179,1.2118,1.1898,1.1668,1.1668,1.1627,1.1674,1.1901,1.1823,1.1687,1.2019,1.1843,1.1617,1.1759,1.1753,1.1702,1.1671,1.1692,1.1759,1.1789,1.1701,1.1636,1.1658,1.1657,1.1604,1.1658,1.1844,1.2081,1.2264,1.2413,1.2501,1.2501,1.2501,1.2501,1.2501,1.2501,1.2501,1.2501,1.2501,1.2501,1.2501,1.2501,1.2501,1.2501,1.2593,1.2593,1.2501,1.2615,1.2723,1.2823,1.2823,1.2979,0.0,0.0,0.0,0.0,0.0,0.0,0.0,0.0,0.0,0.0,0.0,0.0,0.0,0.0,0.0,0.0,0.0,0.0,0.0,0.0,0.0,0.0,0.0,0.0,0.0,0.0,0.0,0.0,0.0,0.0,0.0,0.0,0.0,0.856,1.0675,1.1948,1.2267,1.2383,1.2461,0.0,1.2488,1.2488,1.2501,1.2501,1.2501,1.2501,1.2501,1.2501,1.2501,1.2501,1.2501,1.2501,1.2501,1.2501,1.2501,1.2501,1.2501,1.2501,1.2501,1.24,1.2247,1.2162,1.1969,1.1797,1.181,1.1726,1.1745,1.2155,1.1965,1.1701,1.2009,1.1833,1.1614,1.1746,1.1688,1.1638,1.1766,1.1695,1.1714,1.2009,1.1813,1.1641,1.1756,1.1678,1.1687,1.1793,1.2101,1.2294,1.2308,1.2423,1.2501,1.2501,1.2501,1.2501,1.2501,1.2501,1.2501,1.2501,1.2501,1.2501,1.2501,1.2501,1.2501,1.2501,1.2528,1.2528,1.2501,1.2667,1.2823,1.3003,1.3003,1.3159,0.0,0.0,0.0,0.0,0.0,0.0,0.0,0.0,0.0,0.0,0.0,0.0,0.0,0.0,0.0,0.0,0.0,0.0,0.0,0.0,0.0,0.0,0.0,0.0,0.0,0.0,0.0,0.0,0.0,0.0,0.0,0.0,0.0,0.6413,0.8399,1.0315,1.2145,1.202,1.2152,0.0,1.2389,1.2393,1.2501,1.2501,1.2501,1.2501,1.2501,1.2501,1.2501,1.2501,1.2501,1.2501,1.2501,1.2501,1.2501,1.2501,1.2501,1.2501,1.2501,1.2332,1.2162,1.2213,1.2054,1.1817,1.1976,1.203,1.2023,1.2121,1.1952,1.1763,1.1864,1.1712,1.1626,1.1621,1.1692,1.1756,1.1786,1.1769,1.1736,1.1725,1.1715,1.1722,1.1644,1.1695,1.1837,1.2026,1.221,1.2332,1.244,1.2481,1.2501,1.2501,1.2501,1.2501,1.2501,1.2501,1.2501,1.2501,1.2501,1.2501,1.2501,1.2501,1.2501,1.2501,1.2778,1.2742,1.2501,1.2776,1.2969,1.3003,1.3003,1.3159,0.0,0.0,0.0,0.0,0.0,0.0,0.0,0.0,0.0,0.0,0.0,0.0,0.0,0.0,0.0,0.0,0.0,0.0,0.0,0.0,0.0,0.0,0.0,0.0,0.0,0.0,0.0,0.0,0.0,0.0,0.0,0.1856,0.3826,0.5823,0.7797,0.9866,1.2098,1.1982,1.2098,1.24,1.2325,1.2366,1.2501,1.2501,1.2501,1.2501,1.2501,1.2501,1.2501,1.2501,1.2501,1.2501,1.2501,1.2501,1.2501,1.2501,1.2461,1.24,1.24,1.2203,1.1965,1.2043,1.1915,1.1736,1.2033,1.1999,1.1894,1.2149,1.1959,1.1709,1.1776,1.1688,1.1636,1.1668,1.1688,1.1712,1.178,1.1742,1.1736,1.1911,1.1844,1.1817,1.1928,1.2003,1.2077,1.2196,1.2298,1.242,1.2491,1.2501,1.2501,1.2501,1.2501,1.2501,1.2501,1.2501,1.2501,1.2501,1.2501,1.2501,1.2501,1.2501,1.2501,1.2501,1.2732,1.2735,1.2501,1.285,1.3003,1.3003,1.3071,1.3227,0.0,0.0,0.0,0.0,0.0,0.0,0.0,0.0,0.0,0.0,0.0,0.0,0.0,0.0,0.0,0.0,0.0,0.0,0.0,0.0,0.0,0.0,0.0,0.0,0.0,0.0,0.0,0.0,0.0,0.0,0.0,0.1529,0.3505,0.5895,0.7519,0.9566,1.202,1.206,1.2111,1.2291,1.2315,1.2389,1.2501,1.2501,1.2501,1.2501,1.2501,1.2501,1.2501,1.2501,1.2501,1.2501,1.2501,1.2501,1.2501,1.2501,1.2413,1.2291,1.2291,1.2088,1.1797,1.1827,1.1736,1.1704,1.2016,1.1928,1.1772,1.2145,1.1962,1.1648,1.1763,1.1688,1.1614,1.1729,1.1668,1.1621,1.1763,1.1702,1.1765,1.2138,1.2026,1.1959,1.2244,1.2291,1.2291,1.2291,1.241,1.2501,1.2501,1.2501,1.2501,1.2501,1.2501,1.2501,1.2501,1.2501,1.2501,1.2501,1.2501,1.2501,1.2501,1.2501,1.2501,1.2501,1.2615,1.2615,1.2501,1.2783,1.2962,1.2965,1.3108,1.3258,0.0,0.0,0.0,0.0,0.0,0.0,0.0,0.0,0.0,0.0,0.0,0.0,0.0,0.0,0.0,0.0,0.0,0.0,0.0,0.0,0.0,0.0,0.0,0.0,0.0,0.0,0.0,0.0,0.0,0.0,0.0,0.0255,0.2076,0.5715,0.6078,0.8013,1.1787,1.1824,1.2006,1.2291,1.2416,1.2484,1.2501,1.2501,1.2501,1.2501,1.2501,1.2501,1.2501,1.2501,1.2501,1.2501,1.2501,1.2501,1.2501,1.2501,1.2413,1.2291,1.2291,1.2088,1.1817,1.1986,1.1928,1.1797,1.2047,1.207,1.2053,1.2115,1.1952,1.1769,1.179,1.1688,1.1587,1.1607,1.1597,1.1621,1.1763,1.178,1.1783,1.1844,1.1969,1.2125,1.226,1.2291,1.2291,1.2291,1.241,1.2501,1.2501,1.2501,1.2501,1.2501,1.2501,1.2501,1.2501,1.2501,1.2501,1.2501,1.2501,1.2501,1.2501,1.2501,1.2501,1.2501,1.2615,1.2615,1.2501,1.2674,1.272,1.2723,1.2958,1.3108,0.0,0.0,0.0,0.0,0.0,0.0,0.0,0.0,0.0,0.0,0.0,0.0,0.0,0.0,0.0,0.0,0.0,0.0,0.0,0.0,0.0,0.0,0.0,0.0,0.0,0.0,0.0,0.0,0.0,0.0,0.0,0.0,0.1784,0.5665,0.581,0.7713,1.1639,1.1675,1.1864,1.22,1.2315,1.2423,1.2498,1.242,1.2427,1.2501,1.2501,1.2501,1.2501,1.2501,1.2501,1.2501,1.2501,1.2501,1.2501,1.2501,1.2413,1.2277,1.2193,1.2016,1.1793,1.1816,1.1769,1.1702,1.1887,1.1877,1.183,1.1908,1.1826,1.1675,1.1675,1.1631,1.1584,1.1584,1.1584,1.1636,1.1661,1.1739,1.1844,1.2054,1.2145,1.2237,1.2383,1.241,1.241,1.241,1.2461,1.2501,1.2501,1.2501,1.2501,1.2501,1.2501,1.2501,1.2501,1.2501,1.2501,1.2501,1.2501,1.2501,1.2501,1.2501,1.2501,1.2501,1.2615,1.2615,1.2501,1.2615,1.2689,1.2693,1.2928,1.3033,0.0,0.0,0.0,0.0,0.0,0.0,0.0,0.0,0.0,0.0,0.0,0.0,0.0,0.0,0.0,0.0,0.0,0.0,0.0,0.0,0.0,0.0,0.0,0.0,0.0,0.0,0.0,0.0,0.0,0.0,0.0,0.0,0.1566,0.4939,0.5573,0.7462,1.0815,1.1398,1.1782,1.2043,1.2196,1.2288,1.2386,1.2281,1.2311,1.245,1.2484,1.2501,1.2501,1.2501,1.2501,1.2501,1.2501,1.2501,1.2501,1.2501,1.2386,1.2216,1.2139,1.1938,1.1722,1.1617,1.1584,1.1604,1.1709,1.1668,1.1607,1.1712,1.1665,1.1584,1.1584,1.1584,1.1584,1.1584,1.1584,1.1594,1.1627,1.1719,1.1874,1.2179,1.2233,1.2277,1.2423,1.2447,1.2461,1.2494,1.2501,1.2501,1.2501,1.2501,1.2501,1.2501,1.2501,1.2501,1.2501,1.2501,1.2501,1.2501,1.2501,1.2501,1.2501,1.2501,1.2501,1.2501,1.2613,1.2617,1.2501,1.2615,1.2672,1.2678,1.2948,1.3016,0.0,0.0,0.0,0.0,0.0,0.0,0.0,0.0,0.0,0.0,0.0,0.0,0.0,0.0,0.0,0.0,0.0,0.0,0.0,0.0,0.0,0.0,0.0,0.0,0.0,0.0,0.0,0.0,0.0,0.0,0.0,0.0,0.0947,0.298,0.4958,0.6901,0.8848,1.0793,1.179,1.1807,1.2036,1.2115,1.2121,1.2115,1.2193,1.2308,1.2444,1.2501,1.2501,1.2501,1.2501,1.2501,1.2501,1.2501,1.2501,1.2501,1.2322,1.2111,1.2101,1.1874,1.1594,1.1584,1.1584,1.1584,1.1594,1.1626,1.1584,1.1594,1.1626,1.1584,1.1584,1.1584,1.1584,1.1584,1.1584,1.1621,1.1753,1.179,1.184,1.2081,1.2111,1.2159,1.2274,1.2301,1.2345,1.2481,1.2501,1.2501,1.2501,1.2501,1.2501,1.2501,1.2501,1.2501,1.2501,1.2501,1.2501,1.2501,1.2501,1.2501,1.2501,1.2501,1.2501,1.2501,1.2508,1.2511,1.2501,1.2615,1.2618,1.2525,1.2999,1.301,0.0,0.0,0.0291,0.1434,0.1726,0.205,0.3204,0.3451,0.3477,0.0,0.0,0.0,0.0,0.0,0.0,0.0,0.0,0.0,0.0,0.0,0.0,0.0,0.0,0.0,0.0,0.0,0.0,0.0,0.0,0.0,0.0,0.0,0.0875,0.2836,0.3612,0.5505,0.8667,1.076,1.1793,1.1793,1.1887,1.1965,1.2094,1.1959,1.205,1.2294,1.2342,1.2416,1.2501,1.2501,1.2501,1.2491,1.2403,1.2366,1.2352,1.2295,1.219,1.2084,1.1948,1.1843,1.1705,1.1614,1.1584,1.1584,1.1584,1.1584,1.1584,1.1584,1.1584,1.1584,1.1584,1.1584,1.1584,1.1584,1.1584,1.1597,1.1648,1.1658,1.1769,1.205,1.1982,1.1993,1.2247,1.2291,1.2308,1.2359,1.2444,1.2467,1.2379,1.2444,1.2501,1.2501,1.2501,1.2501,1.2501,1.2501,1.2501,1.2501,1.2501,1.2501,1.2501,1.2501,1.2501,1.2501,1.2501,1.2501,1.2501,1.2556,1.2556,1.2508,1.2769,1.2779,0.0,0.0,0.0286,0.1479,0.226,0.301,0.4236,0.0,0.539,0.0,0.0,0.0,0.0,0.0,0.0,0.0,0.0,0.0,0.0,0.0,0.0,0.0,0.0,0.0,0.0,0.0,0.0,0.0,0.0,0.0,0.0,0.0,0.0913,0.289,0.3569,0.5456,0.8723,1.0741,1.1722,1.1722,1.1722,1.1813,1.1948,1.1806,1.1898,1.2138,1.2193,1.2325,1.2501,1.2501,1.2501,1.2488,1.2345,1.2291,1.2271,1.2156,1.2067,1.1969,1.1867,1.1763,1.1709,1.1614,1.1584,1.1584,1.1584,1.1584,1.1584,1.1584,1.1584,1.1584,1.1584,1.1584,1.1584,1.1584,1.1584,1.1584,1.1584,1.1584,1.1677,1.1874,1.183,1.1857,1.2162,1.2169,1.2172,1.2274,1.2369,1.2396,1.2301,1.2413,1.2501,1.2501,1.2501,1.2501,1.2501,1.2501,1.2501,1.2501,1.2501,1.2501,1.2501,1.2501,1.2501,1.2501,1.2501,1.2501,1.2501,1.2552,1.2552,1.2508,1.2712,1.2752,0.0,0.0,0.0,0.0,0.0,0.0,0.2841,0.0,0.5494,0.0,0.0,0.0,0.0,0.0,0.0,0.0,0.0,0.0,0.0,0.0,0.0,0.0,0.0,0.0,0.0,0.0,0.0,0.0,0.0,0.0,0.0,0.0,0.0953,0.3036,0.4862,0.679,0.8869,1.0701,1.1584,1.1584,1.1584,1.1584,1.1584,1.1584,1.1661,1.1803,1.1993,1.2264,1.2494,1.2501,1.2501,1.2488,1.2342,1.2284,1.2264,1.2145,1.1952,1.1786,1.1786,1.1698,1.1584,1.1584,1.1584,1.1584,1.1584,1.1584,1.1584,1.1584,1.1584,1.1584,1.1584,1.1584,1.1584,1.1584,1.1584,1.1584,1.1584,1.1584,1.1584,1.1584,1.1584,1.1711,1.2043,1.1932,1.1895,1.2233,1.2281,1.2284,1.2284,1.241,1.2498,1.2501,1.2501,1.2501,1.2501,1.2501,1.2501,1.2501,1.2501,1.2501,1.2501,1.2501,1.2501,1.2501,1.2501,1.2501,1.2501,1.2611,1.2647,1.2508,1.285,1.2986,0.0,0.0,0.0,0.0,0.0,0.0,0.0,0.0,0.0,0.0,0.0,0.0,0.0,0.0,0.0,0.0,0.0,0.0,0.0,0.0,0.0,0.0,0.0,0.0,0.0,0.0,0.0,0.0,0.0,0.0,0.0,0.0,0.0913,0.2887,0.4803,0.6761,0.8749,1.0651,1.1584,1.1584,1.1584,1.1584,1.1584,1.1584,1.1661,1.1803,1.1993,1.221,1.2355,1.2461,1.2501,1.2478,1.2261,1.2162,1.2132,1.1837,1.1714,1.1677,1.1677,1.1617,1.1584,1.1584,1.1584,1.1584,1.1584,1.1584,1.1584,1.1584,1.1584,1.1584,1.1584,1.1584,1.1584,1.1584,1.1584,1.1584,1.1584,1.1584,1.1584,1.1584,1.1584,1.1677,1.1864,1.1824,1.1824,1.1908,1.2054,1.2162,1.2162,1.2254,1.2386,1.2491,1.2501,1.2501,1.2501,1.2501,1.2501,1.2501,1.2501,1.2501,1.2501,1.2501,1.2501,1.2501,1.2501,1.2501,1.2501,1.2545,1.2545,1.2505,1.2589,1.263,0.0,0.0,0.0,0.0,0.0,0.0,0.0,0.747,0.0,0.0,0.0,0.0,0.0,0.0,0.0,0.0,0.0,0.0,0.0,0.0,0.0,0.0,0.0,0.0,0.0,0.0,0.0,0.0,0.0,0.0,0.0,0.0,0.051,0.1638,0.3561,0.5517,0.7472,0.943,1.0815,1.1584,1.1584,1.1584,1.1584,1.1584,1.1627,1.1719,1.2006,1.2149,1.221,1.2416,1.2467,1.2389,1.219,1.206,1.1938,1.1704,1.1584,1.1584,1.1584,1.1584,1.1584,1.1584,1.1584,1.1584,1.1584,1.1584,1.1584,1.1584,1.1584,1.1584,1.1584,1.1584,1.1584,1.1584,1.1584,1.1584,1.1584,1.1584,1.1584,1.1584,1.1584,1.1684,1.1891,1.1874,1.1837,1.2003,1.2101,1.2193,1.2193,1.2288,1.241,1.2491,1.2501,1.2501,1.2501,1.2501,1.2501,1.2501,1.2501,1.2501,1.2501,1.2501,1.2501,1.2501,1.2501,1.2501,1.2501,1.2501,1.2501,1.2501,1.2501,1.2501,0.0,0.0,0.0,0.0,0.0,0.0,0.4679,0.6444,0.8225,0.0,0.0,0.0,0.0,0.0,0.0,0.0,0.0,0.0,0.0,0.0,0.0,0.0,0.0,0.0,0.0,0.0,0.0,0.0,0.0,0.0,0.0,0.0,0.0109,0.0328,0.2219,0.4141,0.6098,0.8052,0.9903,1.1584,1.1584,1.1584,1.1584,1.1584,1.1584,1.1636,1.1932,1.2098,1.2121,1.2379,1.2427,1.2298,1.2166,1.1989,1.1824,1.1648,1.1594,1.1607,1.1607,1.1607,1.1647,1.1664,1.1657,1.1647,1.1664,1.1647,1.1584,1.1584,1.1584,1.1584,1.1584,1.1584,1.1584,1.1584,1.1584,1.1584,1.1584,1.1584,1.1584,1.1584,1.1584,1.1701,1.2006,1.1911,1.1888,1.2199,1.2254,1.2271,1.2288,1.24,1.2484,1.2501,1.2501,1.2501,1.2501,1.2501,1.2501,1.2501,1.2501,1.2501,1.2501,1.2501,1.2501,1.2501,1.2501,1.2501,1.2501,1.2501,1.2501,1.2501,1.2501,1.2501,0.0,0.0,0.0,0.0,0.0,0.0,0.2817,0.463,0.6421,0.0,0.0,0.0,0.0,0.0,0.0,0.0,0.0,0.0,0.0,0.0,0.0,0.0,0.0,0.0,0.0,0.0,0.0,0.0,0.0,0.0,0.0,0.0,0.0729,0.2291,0.4215,0.617,0.8124,1.005,1.1217,1.1584,1.1584,1.1584,1.1584,1.1584,1.1584,1.1636,1.1932,1.2098,1.2121,1.2379,1.2484,1.2433,1.2203,1.2156,1.2155,1.1762,1.1655,1.1753,1.1753,1.1753,1.1773,1.1935,1.1891,1.1776,1.1938,1.1809,1.1584,1.1584,1.1584,1.1584,1.1584,1.1584,1.1584,1.1584,1.1584,1.1584,1.1584,1.1584,1.1584,1.1584,1.1584,1.1636,1.1694,1.1739,1.1813,1.1874,1.2026,1.219,1.2274,1.2315,1.2376,1.2488,1.2501,1.2501,1.2501,1.2501,1.2501,1.2501,1.2501,1.2501,1.2501,1.2501,1.2501,1.2501,1.2501,1.2501,1.2501,1.2501,1.2501,1.2501,1.2501,1.2501,0.0,0.0,0.0,0.0,0.0,0.0,0.0,0.4103,0.5894,0.764,0.0,0.0,0.0,0.0,0.0,0.0,0.0,0.0,0.0,0.0,0.0,0.0,0.0,0.0,0.0,0.0,0.0,0.0,0.0,0.0,0.0,0.0,0.0441,0.142,0.2417,0.3841,0.5806,0.6783,0.8234,1.0158,1.0158,1.0668,1.1584,1.1584,1.1584,1.1597,1.185,1.2026,1.2118,1.2305,1.2437,1.2481,1.2298,1.2213,1.2186,1.1925,1.1837,1.1803,1.1918,1.185,1.1726,1.2026,1.1908,1.1715,1.1901,1.1792,1.1584,1.1584,1.1584,1.1584,1.1584,1.1584,1.1584,1.1584,1.1584,1.1584,1.1584,1.1584,1.1584,1.1584,1.1584,1.1607,1.1675,1.1746,1.182,1.1935,1.2077,1.2203,1.2281,1.2352,1.2423,1.2494,1.2501,1.2501,1.2501,1.2501,1.2501,1.2501,1.2501,1.2501,1.2501,1.2501,1.2501,1.2501,1.2576,1.2576,1.2501,1.2579,1.2576,1.2501,1.2501,1.2501,0.0,0.0,0.0,0.0,0.0,0.0392,0.0,0.0,0.0,0.6679,0.0,0.0,0.0,0.0,0.0,0.0,0.0,0.0,0.0,0.0,0.0,0.0,0.0,0.0,0.0,0.0,0.0,0.0,0.0,0.0,0.0,0.0,0.0,0.0,0.0369,0.1328,0.2872,0.3633,0.5588,0.8703,0.9067,1.0083,1.1584,1.1584,1.1584,1.1594,1.1763,1.1945,1.2115,1.2257,1.2396,1.2488,1.2345,1.2268,1.2176,1.2121,1.1982,1.1894,1.2057,1.1884,1.1704,1.2013,1.1934,1.1714,1.1736,1.1692,1.1617,1.1626,1.1584,1.1584,1.1584,1.1584,1.1584,1.1584,1.1584,1.1584,1.1584,1.1584,1.1584,1.1584,1.1584,1.1621,1.1736,1.1776,1.1874,1.2036,1.2172,1.2291,1.2291,1.2413,1.2501,1.2501,1.2501,1.2501,1.2501,1.2501,1.2501,1.2501,1.2501,1.2501,1.2501,1.2501,1.2501,1.2501,1.2623,1.2623,1.2501,1.2627,1.2623,1.2501,1.2501,1.2501,0.0,0.0,0.0,0.0,0.0,0.0,0.0,0.0,0.3047,0.3253,0.0,0.0,0.0,0.0,0.0,0.0,0.0,0.0,0.0,0.0,0.0,0.0,0.0,0.0,0.0,0.0,0.0,0.0,0.0,0.0,0.0,0.0,0.0,0.0,0.1659,0.2689,0.2909,0.6311,0.8268,0.8739,1.0449,1.14,1.1584,1.1584,1.1584,1.1636,1.1915,1.2084,1.2121,1.2362,1.2488,1.2488,1.2345,1.2355,1.242,1.2196,1.2087,1.2077,1.2094,1.1948,1.1797,1.2043,1.2077,1.2002,1.1718,1.1685,1.1746,1.1617,1.1584,1.1584,1.1584,1.1584,1.1584,1.1584,1.1584,1.1584,1.1584,1.1584,1.1584,1.1584,1.1584,1.1587,1.1604,1.1712,1.18,1.1817,1.2104,1.2291,1.2291,1.2413,1.2501,1.2501,1.2501,1.2501,1.2501,1.2501,1.2501,1.2501,1.2501,1.2501,1.2501,1.2501,1.2501,1.2501,1.2518,1.2518,1.2501,1.2518,1.2518,1.2501,1.2501,1.2501,0.0,0.0,0.0,0.0,0.0,0.0,0.0,0.0,0.2685,0.0,0.0,0.0,0.0,0.0,0.0,0.0,0.0,0.0,0.0,0.0,0.0,0.0,0.0,0.0,0.0,0.0,0.0,0.0,0.0,0.0,0.0,0.0,0.0,0.0,0.0775,0.177,0.2872,0.4502,0.6456,0.8703,0.9538,1.0524,1.1584,1.1584,1.1584,1.1597,1.184,1.1979,1.2115,1.2291,1.2427,1.2494,1.2437,1.2447,1.2484,1.2362,1.2267,1.223,1.223,1.2094,1.1962,1.1935,1.1928,1.1891,1.1681,1.1624,1.1658,1.1636,1.1584,1.1584,1.1584,1.1584,1.1584,1.1584,1.1584,1.1584,1.1584,1.1584,1.1584,1.1584,1.1584,1.1584,1.1584,1.1634,1.1671,1.1671,1.1887,1.2054,1.2183,1.2288,1.241,1.2491,1.2501,1.2501,1.2501,1.2501,1.2501,1.2501,1.2501,1.2501,1.2501,1.2501,1.2501,1.2501,1.2589,1.2589,1.2501,1.2589,1.2586,1.2501,1.2501,1.2501,0.0,0.0,0.0,0.0,0.0,0.0,0.0,0.0,0.0,0.0,0.0,0.0,0.0,0.0,0.0,0.0,0.0,0.0,0.0,0.0,0.0,0.0,0.0,0.0,0.0,0.0,0.0,0.0,0.0,0.0,0.0,0.0,0.0,0.0,0.0517,0.1475,0.2872,0.3958,0.5913,0.8703,0.9247,1.023,1.1584,1.1584,1.1604,1.1648,1.1749,1.1942,1.2173,1.2244,1.2372,1.2501,1.2501,1.2501,1.2501,1.2501,1.2413,1.2291,1.2291,1.2162,1.1972,1.1786,1.1736,1.1715,1.1614,1.1584,1.1584,1.1584,1.1584,1.1584,1.1584,1.1584,1.1584,1.1584,1.1584,1.1584,1.1584,1.1584,1.1584,1.1584,1.1584,1.1584,1.1584,1.1584,1.1584,1.1584,1.1702,1.1834,1.1982,1.2169,1.2328,1.2433,1.2444,1.2444,1.2444,1.2444,1.2461,1.2501,1.2501,1.2501,1.2501,1.2501,1.2501,1.2501,1.261,1.2613,1.2501,1.2613,1.261,1.2501,1.2501,1.2501,0.0,0.0,0.0,0.0,0.0,0.0,0.0,0.0,0.01,0.0,0.0,0.0,0.0,0.0,0.0,0.0,0.0,0.0,0.0,0.0,0.0,0.0,0.0,0.0,0.0,0.0,0.0,0.0,0.0,0.0,0.0,0.0,0.0,0.0,0.1843,0.2836,0.2909,0.6637,0.8593,0.8739,1.0596,1.1544,1.1584,1.1584,1.1658,1.1786,1.1793,1.2003,1.2284,1.2288,1.2372,1.2501,1.2501,1.2501,1.2501,1.2501,1.2413,1.2291,1.2291,1.2091,1.178,1.1638,1.1626,1.1626,1.1584,1.1584,1.1584,1.1584,1.1584,1.1584,1.1584,1.1584,1.1584,1.1584,1.1584,1.1584,1.1584,1.1584,1.1584,1.1584,1.1584,1.1584,1.1584,1.1584,1.1584,1.1584,1.1702,1.1797,1.18,1.2104,1.2291,1.2298,1.2298,1.2298,1.2298,1.2298,1.2355,1.2491,1.2501,1.2501,1.2501,1.2501,1.2501,1.2501,1.2508,1.2508,1.2501,1.2508,1.2508,1.2501,1.2501,1.2501,0.0,0.0,0.0,0.0,0.0,0.0,0.0,0.0,0.0,0.0,0.0,0.0,0.0,0.0,0.0,0.0,0.0,0.0,0.0,0.0,0.0,0.0,0.0,0.0,0.0,0.0,0.0,0.0,0.0,0.0,0.0,0.0,0.0,0.0,0.0622,0.223,0.4794,0.6134,0.809,1.0632,1.1289,1.1584,1.1584,1.1584,1.1611,1.1661,1.1753,1.1851,1.1993,1.2098,1.2264,1.2352,1.2288,1.2328,1.2501,1.2501,1.2471,1.243,1.243,1.2166,1.1803,1.1894,1.1779,1.1584,1.1584,1.1584,1.1584,1.1584,1.1584,1.1584,1.1584,1.1584,1.1584,1.1584,1.1584,1.1584,1.1584,1.1584,1.1584,1.1584,1.1584,1.1584,1.1584,1.1584,1.1584,1.1584,1.1624,1.1688,1.1783,1.1884,1.2026,1.2166,1.2176,1.2176,1.2176,1.2233,1.2311,1.2359,1.245,1.2501,1.2501,1.2501,1.2501,1.2501,1.2501,1.2501,1.2501,1.2501,1.2501,1.2501,1.2501,1.2501,0.0,0.0,0.0,0.0,0.0,0.0,0.0,0.0,0.0,0.0,0.0,0.0,0.0,0.0,0.0,0.0,0.0,0.0,0.0,0.0,0.0,0.0,0.0,0.0,0.0,0.0,0.0,0.0,0.0,0.0,0.0,0.0,0.0,0.0,0.1348,0.3273,0.5774,0.7185,0.9108,1.1584,1.1584,1.1584,1.1584,1.1584,1.1647,1.1661,1.1702,1.1816,1.1915,1.1962,1.2108,1.2237,1.2139,1.221,1.2427,1.2427,1.2427,1.242,1.2366,1.2118,1.1803,1.1887,1.1775,1.1584,1.1584,1.1584,1.1584,1.1584,1.1584,1.1584,1.1584,1.1584,1.1584,1.1584,1.1584,1.1584,1.1584,1.1584,1.1584,1.1584,1.1584,1.1584,1.1584,1.1584,1.1584,1.1584,1.1584,1.1634,1.1776,1.1793,1.1891,1.2084,1.205,1.204,1.2094,1.219,1.2254,1.2359,1.245,1.2501,1.2501,1.2501,1.2501,1.2501,1.2501,1.2501,1.2501,1.2501,1.2501,1.2501,1.2501,1.2501]},{"header":{"parameterUnit":"m.s-1","parameterCategory":1,"la1":30.6,"la2":29.2853,"lo1":-89.7004,"lo2":-87.6739,"dy":0.0162,"dx":0.0183,"nx":112,"ny":82,"refTime":"2024-08-20T06:00:00:Z","depth":0,"parameterNumber":3,"parameterNumberName":"V-component_of_WINDS"},"data":[0.0,0.0,0.0,0.0,0.0,0.0,0.0,0.0,0.0,0.0,0.0,0.0,0.0,0.0,0.0,0.0,0.0,0.0,0.0,0.0,0.0,0.0,0.0,0.0,0.0,0.0,0.0,0.0,0.0,0.0,0.0,0.0,0.0,0.0,0.0,0.0,0.0,0.0,0.0,0.0,0.0,0.0,0.0,0.0,0.0,0.0,0.0,0.0,0.0,0.0,0.0,0.0,0.0,0.0,0.0,0.0,0.0,0.0,0.0,0.0,0.0,0.0,0.0,0.0,0.0,0.0,0.0,0.0,0.0,0.0,0.0,0.0,0.0,0.0,0.0,0.0,0.0,0.0,0.0,0.0,0.0,0.0,0.0,0.0,0.0,0.0,0.0,0.0,0.0,0.0,0.0,3.9358,3.93,3.9242,3.9107,3.9223,3.8856,3.7779,0.0,0.0,0.0,0.0,0.0,0.0,0.0,0.0,0.0,0.0,0.0,0.0,0.0,0.0,0.0,0.0,0.0,0.0,0.0,0.0,0.0,0.0,0.0,0.0,0.0,0.0,0.0,0.0,0.0,0.0,0.0,0.0,0.0,0.0,0.0,0.0,0.0,0.0,0.0,0.0,0.0,0.0,0.0,0.0,0.0,0.0,0.0,0.0,0.0,0.0,0.0,0.0,0.0,0.0,0.0,0.0,0.0,0.0,0.0,0.0,0.0,0.0,0.0,0.0,0.0,0.0,0.0,0.0,0.0,0.0,0.0,0.0,0.0,0.0,0.0,0.0,0.0,0.0,0.0,0.0,0.0,0.0,0.0,0.0,0.0,0.0,0.0,0.0,0.0,0.0,0.0,0.0,0.0,0.0,0.0,0.0,0.0,0.0,0.0,0.0,0.0,0.0,0.0,0.0,3.8627,3.9223,3.93,3.8992,3.8257,3.8877,3.8355,3.612,0.0,0.0,0.0,0.0,0.0,0.0,0.0,0.0,0.0,0.0,0.0,0.0,0.0,0.0,0.0,0.0,0.0,0.0,0.0,0.0,0.0,0.0,0.0,0.0,0.0,0.0,0.0,0.0,0.0,0.0,0.0,0.0,0.0,0.0,0.0,0.0,0.0,0.0,0.0,0.0,0.0,0.0,0.0,0.0,0.0,0.0,0.0,0.0,0.0,0.0,0.0,0.0,0.0,0.0,0.0,0.0,0.0,0.0,0.0,0.0,0.0,0.0,0.0,0.0,0.0,0.0,0.0,0.0,0.0,0.0,0.0,0.0,0.0,0.0,0.0,0.0,0.0,0.0,0.0,0.0,0.0,0.0,0.0,0.0,0.0,0.0,0.0,0.0,0.0,0.0,0.0,0.0,0.0,0.0,0.0,0.0,0.0,0.0,0.0,0.0,0.0,0.0,0.0,3.8723,3.8684,3.8607,3.8607,3.8238,3.7369,3.7661,3.7215,3.5655,3.5174,0.0,0.0,0.0,0.0,0.0,0.0,0.0,0.0,0.0,0.0,0.0,0.0,0.0,0.0,0.0,0.0,0.0,0.0,0.0,0.0,0.0,0.0,0.0,0.0,0.0,0.0,0.0,0.0,0.0,0.0,0.0,0.0,0.0,0.0,0.0,0.0,0.0,0.0,0.0,0.0,0.0,0.0,0.0,0.0,0.0,0.0,0.0,0.0,0.0,0.0,0.0,0.0,0.0,0.0,0.0,0.0,0.0,0.0,0.0,0.0,0.0,0.0,0.0,0.0,0.0,0.0,0.0,0.0,0.0,0.0,0.0,0.0,0.0,0.0,0.0,0.0,0.0,0.0,0.0,0.0,0.0,0.0,0.0,0.0,0.0,0.0,0.0,0.0,0.0,0.0,0.0,0.0,0.0,0.0,0.0,0.0,0.0,0.0,0.0,0.0,0.0,0.0,3.9723,3.9184,3.8104,3.8007,3.7565,3.6504,3.6423,3.5981,3.4942,3.4302,0.0,0.0,0.0,0.0,0.0,0.0,0.0,0.0,0.0,0.0,0.0,0.0,0.0,0.0,0.0,0.0,0.0,0.0,0.0,0.0,0.0,0.0,0.0,0.0,0.0,0.0,0.0,0.0,0.0,0.0,0.0,0.0,0.0,0.0,0.0,0.0,0.0,0.0,0.0,0.0,0.0,0.0,0.0,0.0,0.0,0.0,0.0,0.0,0.0,0.0,0.0,0.0,0.0,0.0,0.0,0.0,0.0,0.0,0.0,0.0,0.0,0.0,0.0,0.0,0.0,0.0,0.0,0.0,0.0,0.0,0.0,0.0,0.0,0.0,0.0,0.0,0.0,0.0,0.0,0.0,0.0,0.0,0.0,0.0,0.0,0.0,0.0,0.0,0.0,0.0,0.0,0.0,0.0,0.0,0.0,0.0,0.0,0.0,0.0,0.0,0.0,0.0,3.9492,3.98,3.8161,3.8007,3.7331,3.5712,3.5577,3.4869,3.3199,3.3035,0.0,0.0,0.0,0.0,0.0,0.0,0.0,0.0,0.0,0.0,0.0,0.0,0.0,0.0,0.0,0.0,0.0,0.0,0.0,0.0,0.0,0.0,0.0,0.0,0.0,0.0,0.0,0.0,0.0,0.0,0.0,0.0,0.0,0.0,0.0,0.0,0.0,0.0,0.0,0.0,0.0,0.0,0.0,0.0,0.0,0.0,0.0,0.0,0.0,0.0,0.0,0.0,0.0,0.0,0.0,0.0,0.0,0.0,0.0,0.0,0.0,0.0,0.0,0.0,0.0,0.0,0.0,0.0,0.0,0.0,0.0,0.0,0.0,0.0,0.0,0.0,0.0,0.0,0.0,0.0,0.0,0.0,0.0,0.0,0.0,0.0,0.0,0.0,0.0,0.0,0.0,0.0,0.0,0.0,0.0,0.0,0.0,0.0,0.0,0.0,0.0,0.0,3.9454,3.9858,0.0,3.8007,3.7315,3.5635,3.55,3.4753,3.3006,0.0,0.0,0.0,0.0,0.0,0.0,0.0,0.0,0.0,0.0,0.0,0.0,0.0,0.0,0.0,0.0,0.0,0.0,0.0,0.0,0.0,0.0,0.0,0.0,0.0,0.0,0.0,0.0,0.0,0.0,0.0,0.0,0.0,0.0,0.0,0.0,0.0,0.0,0.0,0.0,0.0,0.0,0.0,0.0,0.0,0.0,0.0,0.0,0.0,0.0,0.0,0.0,0.0,0.0,0.0,0.0,0.0,0.0,0.0,0.0,0.0,0.0,0.0,0.0,0.0,0.0,0.0,0.0,0.0,0.0,0.0,0.0,0.0,0.0,0.0,0.0,0.0,0.0,0.0,0.0,0.0,0.0,0.0,0.0,0.0,0.0,0.0,0.0,0.0,0.0,0.0,0.0,0.0,0.0,0.0,0.0,0.0,0.0,0.0,0.0,0.0,0.0,3.7911,3.97,4.0262,0.0,3.8161,3.7427,3.6,3.5388,3.4465,3.2987,0.0,0.0,0.0,0.0,0.0,0.0,0.0,0.0,0.0,0.0,0.0,0.0,0.0,0.0,0.0,0.0,0.0,0.0,0.0,0.0,0.0,0.0,0.0,0.0,0.0,0.0,0.0,0.0,0.0,0.0,0.0,0.0,0.0,0.0,0.0,0.0,0.0,0.0,0.0,0.0,0.0,0.0,0.0,0.0,0.0,0.0,0.0,0.0,0.0,0.0,0.0,0.0,0.0,0.0,0.0,0.0,0.0,0.0,0.0,0.0,0.0,0.0,0.0,0.0,0.0,0.0,0.0,0.0,0.0,0.0,0.0,0.0,0.0,0.0,0.0,0.0,0.0,0.0,0.0,0.0,0.0,0.0,0.0,0.0,0.0,0.0,0.0,0.0,0.0,0.0,0.0,0.0,0.0,0.0,0.0,0.0,0.0,0.0,0.0,0.0,0.0,0.0,3.8027,4.0235,4.1177,3.9492,3.853,3.7642,3.6773,3.5161,3.3837,0.0,0.0,0.0,0.0,0.0,0.0,0.0,0.0,0.0,0.0,0.0,0.0,0.0,0.0,0.0,0.0,0.0,0.0,0.0,0.0,0.0,0.0,0.0,0.0,0.0,0.0,0.0,0.0,0.0,0.0,0.0,0.0,0.0,0.0,0.0,0.0,0.0,0.0,0.0,0.0,0.0,0.0,0.0,0.0,0.0,0.0,0.0,0.0,0.0,0.0,0.0,0.0,0.0,0.0,0.0,0.0,0.0,0.0,0.0,0.0,0.0,0.0,0.0,0.0,0.0,0.0,0.0,0.0,0.0,0.0,0.0,0.0,0.0,0.0,0.0,0.0,0.0,0.0,0.0,0.0,0.0,0.0,0.0,0.0,0.0,0.0,0.0,0.0,0.0,0.0,0.0,0.0,0.0,0.0,0.0,0.0,0.0,0.0,0.0,0.0,0.0,0.0,0.0,3.9761,4.1489,4.2066,4.0323,3.8857,3.7642,3.6773,3.5734,3.4484,3.2987,0.0,0.0,0.0,0.0,0.0,0.0,0.0,0.0,0.0,0.0,0.0,0.0,0.0,0.0,0.0,0.0,0.0,0.0,0.0,0.0,0.0,0.0,0.0,0.0,0.0,0.0,0.0,0.0,0.0,0.0,0.0,0.0,0.0,0.0,0.0,0.0,0.0,0.0,0.0,0.0,0.0,0.0,0.0,0.0,0.0,0.0,0.0,0.0,0.0,0.0,0.0,0.0,0.0,0.0,0.0,0.0,0.0,0.0,0.0,0.0,0.0,0.0,0.0,0.0,0.0,0.0,0.0,0.0,0.0,0.0,0.0,0.0,0.0,0.0,0.0,0.0,0.0,0.0,0.0,0.0,0.0,0.0,0.0,0.0,0.0,0.0,0.0,0.0,0.0,0.0,0.0,0.0,0.0,0.0,0.0,0.0,0.0,0.0,0.0,0.0,0.0,0.0,4.0496,4.2012,4.2566,4.1166,3.9531,3.8315,3.7777,3.6657,3.5385,3.4023,0.0,0.0,0.0,0.0,0.0,0.0,0.0,0.0,0.0,0.0,0.0,0.0,0.0,0.0,0.0,0.0,0.0,0.0,0.0,0.0,0.0,0.0,0.0,0.0,0.0,0.0,0.0,0.0,0.0,0.0,0.0,0.0,0.0,0.0,0.0,0.0,0.0,0.0,0.0,0.0,0.0,0.0,0.0,0.0,0.0,0.0,0.0,0.0,0.0,0.0,0.0,0.0,0.0,0.0,0.0,0.0,0.0,0.0,0.0,0.0,0.0,0.0,0.0,0.0,0.0,0.0,0.0,0.0,0.0,0.0,0.0,0.0,0.0,0.0,0.0,0.0,0.0,0.0,0.0,0.0,0.0,0.0,0.0,0.0,0.0,0.0,0.0,0.0,0.0,0.0,0.0,0.0,0.0,0.0,0.0,0.0,0.0,0.0,0.0,0.0,0.0,0.0,4.0727,4.2128,4.2797,4.2004,4.0354,3.93,3.93,3.7777,3.6465,3.5654,0.0,0.0,0.0,0.0,0.0,0.0,0.0,0.0,0.0,0.0,0.0,0.0,0.0,0.0,0.0,0.0,0.0,0.0,0.0,0.0,0.0,0.0,0.0,0.0,0.0,0.0,0.0,0.0,0.0,0.0,0.0,0.0,0.0,0.0,0.0,0.0,0.0,0.0,0.0,0.0,0.0,0.0,0.0,0.0,0.0,0.0,0.0,0.0,0.0,0.0,0.0,0.0,0.0,0.0,0.0,0.0,0.0,0.0,0.0,0.0,4.3162,0.0,0.0,0.0,0.0,0.0,0.0,0.0,0.0,0.0,0.0,0.0,0.0,0.0,0.0,0.0,0.0,0.0,0.0,0.0,0.0,0.0,0.0,0.0,0.0,0.0,0.0,0.0,0.0,0.0,0.0,0.0,0.0,0.0,0.0,0.0,0.0,0.0,0.0,0.0,0.0,0.0,4.245,4.2874,4.3028,4.2835,4.0704,3.93,3.93,3.8334,3.735,3.6504,3.5677,0.0,0.0,0.0,0.0,0.0,0.0,0.0,0.0,0.0,0.0,0.0,0.0,0.0,0.0,0.0,0.0,0.0,0.0,0.0,0.0,0.0,0.0,0.0,0.0,0.0,0.0,0.0,0.0,0.0,0.0,0.0,0.0,0.0,0.0,0.0,0.0,0.0,0.0,0.0,0.0,0.0,0.0,0.0,0.0,0.0,0.0,0.0,0.0,0.0,0.0,0.0,0.0,0.0,0.0,0.0,0.0,0.0,0.0,0.0,0.0,4.5509,0.0,0.0,0.0,0.0,0.0,0.0,0.0,0.0,0.0,0.0,0.0,0.0,0.0,0.0,0.0,0.0,0.0,0.0,0.0,0.0,0.0,0.0,0.0,0.0,0.0,0.0,0.0,0.0,0.0,0.0,0.0,0.0,0.0,0.0,0.0,0.0,0.0,0.0,0.0,0.0,4.3508,4.3682,4.3528,4.3143,4.1546,4.0335,3.9915,3.9107,3.843,3.7988,3.7157,0.0,0.0,0.0,0.0,0.0,0.0,0.0,0.0,0.0,0.0,0.0,0.0,0.0,0.0,0.0,0.0,0.0,0.0,0.0,0.0,0.0,0.0,0.0,0.0,0.0,0.0,0.0,0.0,0.0,0.0,0.0,0.0,0.0,0.0,0.0,0.0,0.0,0.0,0.0,0.0,0.0,0.0,0.0,0.0,0.0,0.0,0.0,0.0,0.0,0.0,0.0,0.0,0.0,5.1053,5.113,5.113,5.113,5.113,5.1053,4.9779,4.8971,4.8509,0.0,0.0,0.0,0.0,0.0,0.0,0.0,0.0,0.0,0.0,0.0,0.0,0.0,0.0,0.0,0.0,0.0,0.0,0.0,0.0,0.0,0.0,0.0,0.0,0.0,4.8432,4.7759,0.0,0.0,0.0,0.0,0.0,0.0,0.0,0.0,0.0,0.0,0.0,0.0,4.4124,4.4297,4.3989,4.3181,4.2312,4.145,4.0573,3.99,3.9511,3.9511,3.8838,3.8507,0.0,0.0,0.0,0.0,0.0,0.0,0.0,0.0,0.0,0.0,0.0,0.0,0.0,0.0,0.0,0.0,0.0,0.0,0.0,0.0,0.0,0.0,0.0,0.0,0.0,0.0,0.0,0.0,0.0,0.0,0.0,0.0,4.6608,4.8236,0.0,0.0,0.0,0.0,0.0,0.0,0.0,0.0,0.0,0.0,0.0,0.0,0.0,5.0418,5.0534,5.1337,5.1736,5.1755,5.2505,5.2876,5.2876,5.2876,5.2876,5.2895,5.3433,0.0,5.0341,5.0245,0.0,0.0,0.0,0.0,0.0,0.0,0.0,0.0,0.0,0.0,0.0,0.0,0.0,0.0,0.0,0.0,0.0,0.0,0.0,0.0,0.0,0.0,4.988,4.9356,4.9803,5.0034,0.0,4.7432,4.6331,4.6101,0.0,0.0,0.0,0.0,0.0,0.0,0.0,0.0,4.4259,4.4297,4.3989,4.3181,4.2312,4.145,4.0573,4.04,4.0342,4.0342,4.0227,4.0512,4.1273,4.0569,0.0,0.0,0.0,0.0,0.0,0.0,0.0,0.0,0.0,0.0,0.0,0.0,0.0,0.0,0.0,0.0,0.0,0.0,0.0,0.0,0.0,0.0,0.0,0.0,0.0,0.0,0.0,0.0,0.0,4.7129,4.8933,4.8702,4.9601,4.9678,0.0,0.0,0.0,0.0,0.0,0.0,0.0,0.0,0.0,5.1356,5.1856,5.2337,5.2823,5.3626,5.4049,5.4049,5.4414,5.4607,5.4607,5.4607,5.4607,5.4626,5.5011,5.4535,5.3439,5.2491,5.1587,5.0716,0.0,0.0,0.0,0.0,5.0183,5.0341,5.176,5.1952,0.0,0.0,0.0,0.0,0.0,0.0,0.0,0.0,0.0,0.0,0.0,0.0,0.0,5.0091,5.0418,5.0592,5.0207,4.9553,4.874,0.0,4.7355,4.6706,4.5282,0.0,0.0,0.0,0.0,0.0,4.4975,4.5032,4.4705,4.3855,4.3431,4.2874,4.2031,4.1954,4.1954,4.1954,4.1954,4.2124,4.2504,4.2162,4.1954,0.0,0.0,0.0,0.0,0.0,0.0,0.0,0.0,0.0,0.0,0.0,0.0,0.0,0.0,0.0,0.0,0.0,0.0,0.0,0.0,0.0,0.0,0.0,0.0,0.0,0.0,0.0,0.0,4.9322,5.0856,4.9562,5.1274,5.1659,0.0,0.0,0.0,0.0,0.0,0.0,5.2246,5.2304,5.2683,5.3505,5.3953,5.4472,5.5131,5.5516,5.5708,5.5708,5.5708,5.5708,5.5708,5.5708,5.5708,5.5708,5.5708,5.5708,5.5593,5.4126,5.314,5.2486,5.1664,5.1342,5.1419,5.2005,5.1991,5.1938,5.3837,5.4087,5.3568,5.378,0.0,5.2005,5.076,0.0,0.0,0.0,0.0,4.9178,4.9625,4.9726,4.9899,5.0553,5.0707,5.0707,5.0707,5.0707,5.0322,0.0,4.9106,4.8803,4.6898,0.0,0.0,0.0,0.0,4.4878,4.5518,4.5594,4.5263,4.4397,4.4297,4.397,4.3162,4.3104,4.3104,4.3104,4.3297,4.3412,4.3412,4.3624,4.3624,4.3412,0.0,0.0,0.0,0.0,0.0,0.0,0.0,0.0,0.0,0.0,0.0,0.0,0.0,0.0,0.0,0.0,0.0,0.0,0.0,0.0,0.0,0.0,0.0,0.0,0.0,0.0,0.0,0.0,0.0,5.2947,5.3799,0.0,0.0,0.0,0.0,5.2895,5.3005,5.4087,5.6555,5.6684,5.7082,5.7948,5.7228,5.6824,5.6863,5.6093,5.5708,5.5708,5.5708,5.5708,5.5708,5.5708,5.5708,5.5708,5.5708,5.5708,5.5631,5.478,5.4414,5.428,5.3414,5.3063,5.3082,5.3121,5.3626,5.4337,5.4453,5.4472,5.4549,5.5324,5.4472,5.3121,5.3024,5.2409,0.0,0.0,5.1125,5.1543,5.0822,5.063,5.0649,5.0688,5.0707,5.0707,5.0707,5.0707,5.0668,0.0,4.9938,4.9356,4.9221,0.0,4.6812,4.6774,4.6067,4.5556,4.5594,4.5594,4.5263,4.4397,4.4297,4.397,4.3162,4.3104,4.3104,4.3104,4.3816,4.4239,4.4239,4.5032,4.5071,4.4259,4.4201,0.0,0.0,0.0,0.0,0.0,0.0,0.0,0.0,0.0,0.0,0.0,0.0,0.0,0.0,0.0,0.0,0.0,0.0,0.0,0.0,0.0,0.0,0.0,0.0,0.0,0.0,0.0,0.0,5.4799,5.6069,0.0,5.4511,5.4093,5.44,5.5555,5.5651,5.6285,5.7761,5.7833,5.7986,5.8294,5.7992,5.7838,5.7838,5.6978,5.6536,5.6536,5.5978,5.5708,5.5708,5.5708,5.5708,5.5708,5.5708,5.5708,5.5689,5.5401,5.5266,5.5247,5.4934,5.4799,5.4799,5.4799,5.5011,5.5266,5.5266,5.5266,5.5324,5.5612,5.5304,5.4703,5.4184,5.3818,5.328,5.187,5.1678,5.1717,5.0919,5.0707,5.0707,5.0707,5.0707,5.0707,5.0707,5.0707,5.0707,5.0707,5.0457,5.0053,4.949,4.8894,4.8144,4.7062,4.6639,4.622,4.5667,4.5594,4.5475,4.5167,4.5148,4.5013,4.4724,4.4705,4.4705,4.4705,4.4975,4.5148,4.5148,4.5436,4.5455,4.5148,4.459,4.4008,0.0,0.0,0.0,0.0,0.0,0.0,0.0,0.0,0.0,0.0,0.0,0.0,0.0,0.0,0.0,0.0,0.0,0.0,0.0,0.0,0.0,0.0,0.0,0.0,0.0,0.0,5.6472,5.617,5.7665,5.803,5.6305,5.6395,5.694,5.7786,5.7844,5.8223,5.9108,5.9146,5.9146,5.9146,5.8858,5.8698,5.8698,5.7857,5.744,5.744,5.6838,5.6588,5.6569,5.6266,5.6132,5.6112,5.5824,5.5708,5.5708,5.5708,5.5708,5.5708,5.5708,5.5708,5.5708,5.5708,5.5708,5.5708,5.5708,5.5708,5.5708,5.5708,5.5708,5.5593,5.5074,5.4895,5.4607,5.3178,5.2563,5.2159,5.1318,5.0899,5.0707,5.0707,5.0707,5.0707,5.0707,5.0735,5.0775,5.0775,5.073,5.0515,4.9938,4.9591,4.9029,4.7908,4.7255,4.6697,4.6105,4.5782,4.5594,4.5594,4.5594,4.5594,4.5594,4.5594,4.5594,4.5594,4.5594,4.5594,4.5594,4.5594,4.5594,4.5594,4.5032,4.5013,4.5586,0.0,0.0,0.0,0.0,0.0,0.0,0.0,0.0,0.0,0.0,0.0,0.0,0.0,0.0,0.0,0.0,0.0,0.0,0.0,0.0,0.0,0.0,0.0,5.4665,5.6772,5.8042,5.7214,5.855,5.8896,5.7291,5.7877,5.8698,5.9473,5.955,5.9915,6.0748,6.0806,6.0806,6.0806,5.9973,5.955,5.955,5.8742,5.8333,5.8333,5.8313,5.8294,5.828,5.744,5.7036,5.6983,5.6151,5.5785,5.5785,5.5785,5.5766,5.5747,5.5708,5.5708,5.5708,5.5708,5.5708,5.5708,5.5708,5.5708,5.5708,5.57,5.57,5.57,5.571,5.5716,5.5542,5.4729,5.3901,5.305,5.2184,5.1342,5.0755,5.0755,5.0731,5.0712,5.0712,5.0814,5.0919,5.0919,5.0793,5.0712,5.0702,5.0005,4.9442,4.9399,4.8029,0.0,4.6908,4.6163,4.5633,4.5594,4.5594,4.5594,4.5594,4.5594,4.5594,4.5594,4.5594,4.5614,4.5633,4.5633,4.5648,4.5691,4.5706,4.6513,4.8139,0.0,0.0,0.0,0.0,0.0,0.0,0.0,0.0,0.0,0.0,0.0,0.0,0.0,0.0,0.0,0.0,0.0,0.0,0.0,0.0,0.0,5.6061,5.7602,5.7416,5.8547,5.9481,5.9732,6.0171,6.0262,5.9806,5.9973,6.0204,6.0435,6.0435,6.055,6.0787,6.0806,6.0806,6.0806,6.0575,6.0435,6.0435,5.9608,5.916,5.9165,5.8583,5.8294,5.8294,5.805,5.7934,5.7934,5.7684,5.7588,5.7588,5.7588,5.7203,5.6574,5.5958,5.5708,5.5708,5.5708,5.5708,5.5708,5.5708,5.5708,5.5721,5.5811,5.5846,5.5881,5.6015,5.6061,5.5886,5.5035,5.4611,5.4223,5.3356,5.2498,5.1855,5.1855,5.1402,5.0991,5.0991,5.1024,5.1053,5.1053,5.1022,5.095,5.0852,5.065,5.023,4.9499,4.9009,0.0,4.7062,4.6697,4.6297,4.5667,4.5594,4.5594,4.5594,4.5594,4.5594,4.5594,4.5594,4.5879,4.6528,4.6547,4.6817,4.7394,4.8029,4.8586,0.0,0.0,0.0,0.0,0.0,0.0,0.0,0.0,0.0,0.0,0.0,0.0,0.0,0.0,0.0,0.0,0.0,0.0,0.0,0.0,0.0,0.0,5.8141,5.9488,5.9727,6.0144,6.0569,6.0957,6.1016,6.1016,6.1016,6.0939,6.0873,6.0873,6.0873,6.0873,6.0873,6.0959,6.1016,6.1016,6.1016,6.1016,6.1016,6.0513,6.0242,6.0242,5.9693,5.9486,5.9541,5.9025,5.8878,0.0,5.8573,5.8414,5.8475,5.8475,5.8166,0.0,0.0,0.0,0.0,0.0,5.5844,5.5913,5.5913,5.5913,5.5914,5.5992,5.6028,5.6048,5.6167,5.6194,5.6097,5.5594,5.5188,5.4781,5.4278,5.35,5.2835,5.2835,5.2208,5.1602,5.1602,5.1369,5.1146,5.1146,0.0,0.0,5.1047,5.1008,5.0794,5.0201,4.9803,4.9192,4.8151,4.7714,4.7276,4.6715,4.6648,4.6648,4.6648,4.6648,0.0,0.0,0.0,4.7048,4.7913,4.7952,0.0,0.0,0.0,0.0,0.0,0.0,0.0,0.0,5.3662,5.4269,0.0,0.0,0.0,0.0,0.0,0.0,0.0,0.0,0.0,0.0,0.0,0.0,0.0,0.0,0.0,0.0,5.9933,6.0778,6.1426,6.1426,6.1326,6.1289,6.1306,6.1306,6.1306,6.1147,6.104,6.104,6.104,6.104,6.104,0.0,0.0,0.0,0.0,6.1306,6.1306,6.1306,6.1306,6.1303,6.1128,6.1135,6.1258,6.02,5.9873,6.0105,5.9191,5.8886,5.899,5.899,5.8935,5.8732,5.7518,5.6578,5.5909,5.5925,5.6048,5.6194,5.6194,0.0,0.0,5.621,5.6215,5.6239,5.6235,5.6259,5.6259,5.6259,5.5696,5.5095,5.5095,5.4437,5.3797,5.3797,5.313,5.2485,5.2485,5.1988,5.1526,5.1526,5.1613,5.1658,5.1534,5.1286,5.1108,5.1094,5.0437,4.9875,4.965,4.8951,4.8386,4.8174,0.0,0.0,4.8148,4.8148,4.8148,4.8148,4.8326,4.8818,4.9677,4.982,5.0623,5.2213,5.2329,5.3547,5.5903,5.6166,5.7129,5.8583,5.544,5.5666,0.0,0.0,0.0,0.0,0.0,0.0,0.0,0.0,0.0,0.0,0.0,0.0,0.0,0.0,0.0,5.9775,6.0791,6.1504,6.1639,6.1635,6.1546,6.1334,6.1306,6.1306,6.1306,6.1259,6.124,6.124,6.124,6.124,6.124,6.1288,0.0,6.1306,6.1306,6.1306,6.1306,6.1306,6.1306,6.1306,0.0,0.0,6.1283,6.1065,6.0994,6.1033,6.0848,6.0776,6.0803,6.0803,6.038,5.9585,5.7965,5.722,5.701,5.6374,5.6167,5.6194,5.6194,5.6194,5.6212,5.6324,5.6368,5.638,5.6488,5.6515,0.0,5.6515,5.6399,5.6262,5.6262,5.5618,5.4973,5.4973,5.4309,5.3665,5.3665,5.3551,5.3455,5.3455,5.3476,5.3496,5.3456,5.2181,5.1158,5.1108,5.0958,5.0583,4.9863,4.961,4.923,4.8507,4.8427,4.8427,4.8427,4.8427,4.8427,4.8427,4.9732,5.0839,5.1552,5.236,5.3269,5.4302,5.5018,5.597,5.7158,5.783,5.8714,5.9681,5.8992,5.905,0.0,0.0,0.0,0.0,0.0,0.0,0.0,0.0,0.0,0.0,0.0,5.7304,5.8141,0.0,6.0478,6.0886,6.1365,6.1699,6.1699,6.1699,6.1656,6.1512,6.1504,6.1504,6.1504,6.1442,6.1409,6.1409,6.1409,6.1409,6.1409,6.146,6.1504,6.1504,6.1504,6.1504,6.1504,6.1504,6.1504,6.1502,6.1436,6.1438,6.1501,6.1354,6.1364,6.1501,6.1434,6.1442,6.1504,6.1504,6.1232,6.0728,5.9402,5.8596,5.8046,5.7244,5.6982,5.6998,5.6549,5.6391,5.6417,5.6484,5.6509,5.6513,5.6581,5.6601,5.6601,5.6601,5.6601,5.6601,5.6601,5.6289,5.5957,5.5957,5.5273,5.4648,5.4648,5.4316,5.4004,5.4004,5.4004,5.4004,5.4004,5.3219,5.26,5.2555,5.255,5.2363,5.1879,5.1424,5.1133,5.1059,5.0663,5.0583,5.1015,5.1054,5.1054,5.1054,5.1872,5.2696,5.3472,5.3988,5.4845,5.6132,5.6577,5.7433,5.874,5.9215,5.9901,6.0755,6.0827,6.0804,0.0,0.0,0.0,0.0,0.0,0.0,0.0,0.0,5.6871,5.8626,5.9623,6.039,6.1035,6.1738,6.2207,6.2207,6.2207,6.2207,6.2207,6.2051,6.1953,6.1953,6.1797,6.1699,6.1699,6.1607,6.1602,6.1777,6.1797,6.1876,6.2032,6.1987,6.1953,6.1953,6.1797,6.1699,6.1699,6.1699,6.1699,6.1699,6.1584,6.1605,6.1699,6.1488,6.1501,6.1699,6.1582,6.1606,6.1699,6.1699,6.1699,6.1621,6.0937,6.0151,5.9321,5.8344,5.8054,5.8027,5.7148,5.6855,5.6816,5.666,5.6601,5.6601,5.6601,5.6601,5.6601,5.6601,5.6601,5.6601,5.6601,5.6601,5.6601,5.6601,5.6055,5.5547,5.5547,5.5,5.4512,5.4512,5.4512,5.4512,5.4512,5.4512,5.4394,5.4043,5.4004,5.3963,5.3843,5.3232,5.3018,5.3617,5.304,5.2904,5.3627,5.3685,5.3736,5.3888,5.3929,5.4318,5.5168,5.5386,5.6197,5.7717,5.7892,5.875,6.0328,6.0447,6.0844,6.1544,6.1656,6.1636,5.4028,5.499,5.5964,5.6884,5.7176,5.8088,0.0,0.0,6.1464,6.3203,6.3652,6.3769,6.3848,6.3945,6.4004,6.4004,6.4004,6.4004,6.4004,6.334,6.2851,6.2851,6.2168,6.1699,6.1699,6.1699,6.1991,6.2773,6.2831,6.3163,6.3944,6.3261,6.2851,6.2851,6.2109,6.1699,6.1699,6.1699,6.1699,6.1699,6.1679,6.1699,6.1699,6.1678,6.1678,6.1699,6.1679,6.1699,6.1699,6.1699,6.1699,6.1699,6.1582,6.1484,6.1191,5.9609,5.9043,5.8926,5.8066,5.7754,5.7637,5.6855,5.6601,5.6601,5.6601,5.6601,5.6601,5.6601,5.6601,5.6601,5.6601,5.6601,5.6601,5.6601,5.6523,5.6445,5.6445,5.6387,5.6308,5.6308,5.6308,5.6308,5.6308,5.6308,5.5781,5.4238,5.4004,5.3984,5.3984,5.3886,5.3866,5.3943,5.3865,5.3845,5.3943,5.3962,5.4226,5.4898,5.5043,5.5456,5.6206,5.7094,5.8025,5.8982,5.9704,6.0544,6.1501,6.1522,6.1581,6.1679,6.1699,6.1699,5.7222,5.784,5.8128,5.9653,6.0403,6.1167,6.2656,6.3105,6.3418,6.414,6.4707,6.4902,6.4394,6.4707,6.4883,0.0,6.4297,6.4297,6.4297,6.3555,6.3008,6.3008,6.2226,6.1894,6.2402,6.293,6.3359,6.373,6.3769,6.3926,6.4277,6.3945,6.3769,6.3769,6.291,6.2461,6.2461,6.1953,6.1699,6.1699,6.1699,6.1699,6.1699,6.1699,6.1699,6.1699,6.1699,6.1699,6.1699,6.1699,6.1699,6.1699,6.1699,6.1699,6.1543,6.0332,5.9902,5.9785,5.8945,5.8652,5.8594,5.8223,5.7773,5.7441,5.7969,5.7754,5.7461,5.7969,5.8105,5.8105,5.8105,5.8105,5.8105,5.8105,5.8105,5.8105,5.8105,5.8105,5.8105,5.8105,5.7695,5.7363,5.7363,5.7363,5.7109,5.6387,5.584,5.5508,5.5508,5.5078,5.4765,5.4765,5.5215,5.5508,5.5508,5.5508,5.5858,5.6671,5.6776,5.7187,5.7999,5.8436,5.9043,5.9883,6.0234,6.082,6.1699,6.1699,6.1699,6.1699,6.1699,6.1699,5.8877,5.9413,5.9648,6.0995,6.2363,6.3359,6.3359,6.4219,6.5019,6.5019,6.5527,6.5762,6.5137,6.5527,6.582,6.5449,6.5371,6.5371,6.5371,6.4414,6.3711,6.3711,6.2949,6.2754,6.3633,6.3848,6.414,6.4629,6.4668,6.4765,6.5,6.4785,6.4668,6.4668,6.3808,6.3359,6.3359,6.248,6.2051,6.2051,6.1816,6.1699,6.1699,6.1699,6.1699,6.1699,6.1699,6.1699,6.1699,6.1699,6.1699,6.1699,6.1699,6.1699,6.1621,6.0996,6.0762,6.0644,5.9824,5.9531,5.9492,5.9277,5.8769,5.8379,5.9004,5.8769,5.8398,5.9023,5.9199,5.9199,5.9199,5.9199,5.9199,5.9199,5.9199,5.9199,5.9199,5.9199,5.9199,5.9199,5.8691,5.8262,5.8262,5.8262,5.8262,5.8262,5.7715,5.7226,5.6992,5.6191,5.5742,5.5996,5.6582,5.7051,5.7305,5.7324,5.7598,5.8223,5.8262,5.8535,5.918,5.9414,5.9805,6.039,6.0644,6.1074,6.1699,6.1699,6.1699,6.1699,6.1699,6.1836,5.7954,5.9048,6.0371,6.043,6.2363,6.4258,6.4258,6.5586,6.6816,6.6816,6.6836,6.6855,6.6836,6.6836,6.7129,6.7949,6.8086,6.8086,6.8086,6.6601,6.5527,6.5527,6.4746,6.4551,0.0,6.4023,6.373,6.543,6.5566,6.5937,6.6777,6.6015,6.5566,6.5566,6.4726,6.4258,6.4258,6.3398,6.2969,6.2949,6.2109,6.1699,6.1699,6.1699,6.1699,6.1699,6.1699,6.1699,6.1699,6.1699,6.1699,6.1699,6.1699,6.1699,6.1699,6.168,6.166,6.1543,6.0664,6.0351,6.0234,5.9453,5.918,5.918,5.9199,5.918,5.918,5.9199,5.9199,5.9199,5.9199,5.9199,5.9199,5.9199,5.9199,5.9199,5.9199,5.9199,5.9199,5.9199,5.918,5.916,5.916,5.916,5.916,5.916,5.914,5.8828,5.7969,5.7109,5.6875,5.7734,5.7832,5.8203,5.9043,5.9121,5.9121,5.916,5.916,5.918,5.9199,5.9941,6.0371,6.039,6.123,6.168,6.1699,6.1699,6.1699,6.1699,6.1699,6.2148,5.9252,5.994,6.0683,6.1836,6.3223,6.4453,6.5039,6.6055,6.6738,6.6152,6.6035,6.5859,6.5273,6.5644,6.6328,6.7207,6.7812,6.8398,6.8926,6.8027,6.7109,6.6523,6.5683,0.0,0.0,0.0,0.0,6.6426,6.6465,6.6582,6.6875,6.6621,6.6465,6.6465,6.5625,6.5156,6.5156,6.4297,6.3867,6.3848,6.2988,6.2265,6.1699,6.1699,6.1699,6.1699,6.1699,6.1699,6.1699,6.1699,6.1699,6.1699,6.1699,6.1699,6.1699,6.1699,6.1699,6.166,6.1367,6.1269,6.1211,6.0957,6.0469,6.0098,6.0683,6.0449,6.0117,6.0703,6.0859,6.0859,6.0859,6.0859,6.0859,6.0859,6.0859,6.0859,6.0859,6.0859,6.0859,6.0859,6.039,6.0,6.0,6.0,6.0195,6.0762,5.9902,5.9082,5.8808,5.8515,5.8437,5.873,5.8769,5.8887,5.918,5.9199,5.9433,5.9961,6.0,6.0254,6.082,6.1113,6.1269,6.1269,6.1543,6.1699,6.1699,6.1699,6.1992,6.2558,6.2558,6.3027,6.0039,6.039,6.0742,6.2187,6.3183,6.3984,6.4531,6.5351,6.5801,6.5254,6.5137,6.4961,6.4394,6.5019,6.5996,6.7168,6.834,6.9375,7.0215,6.9629,6.8887,6.832,6.7226,6.664,0.0,0.0,0.0,6.6953,6.7187,6.7363,6.7363,6.707,6.7031,6.7344,6.6523,6.6055,6.6055,6.5195,6.4609,6.4297,6.373,6.3164,6.2637,6.2637,6.2461,6.2168,6.2168,6.1992,6.1699,6.1699,6.1699,6.1699,6.1699,6.1699,6.1699,6.1699,6.1699,6.1699,6.1699,6.1699,6.1699,6.1699,6.1328,6.0976,6.1523,6.1308,6.0976,6.1543,6.1699,6.1699,6.1699,6.1699,6.1699,6.1699,6.1699,6.1699,6.1699,6.1699,6.1699,6.1699,6.125,6.0859,6.0859,6.0859,6.1055,6.1621,6.0781,5.998,5.9668,5.9375,5.9316,5.9609,5.9629,5.9746,6.0078,6.0098,6.0312,6.082,6.0859,6.1113,6.168,6.1699,6.1699,6.1699,6.1699,6.1699,6.1699,6.2012,6.2441,6.3008,6.332,6.3926,6.0195,6.043,6.0664,6.1484,6.2363,6.3008,6.3008,6.3672,6.4297,6.4238,6.4238,6.4219,6.418,6.4941,6.6152,6.7851,6.9609,7.1074,7.1933,7.1387,7.0879,0.0,0.0,0.0,0.0,0.0,0.0,6.7148,0.0,6.8262,6.8262,6.748,6.7383,6.8183,6.7402,6.6953,6.6894,6.6074,6.5234,6.4375,6.4375,6.4336,6.4297,6.4297,6.3848,6.3066,6.3066,6.2578,6.1777,6.1777,6.1738,6.1699,6.1699,6.1699,6.1699,6.1699,6.1699,6.1699,6.1699,6.1699,6.1699,6.1699,6.1699,6.1699,6.1699,6.1699,6.1699,6.1699,6.1699,6.1699,6.1699,6.1699,6.1699,6.1699,6.1699,6.1699,6.1699,6.1699,6.1699,6.1699,6.1699,6.1699,6.1699,6.1699,6.1699,6.1699,6.1699,6.1406,6.0566,5.9805,5.9629,6.0371,6.0469,6.0801,6.1621,6.1699,6.1699,6.1699,6.1699,6.1699,6.1699,6.1699,6.1699,6.1699,6.1738,6.1777,6.1777,6.2637,6.3086,6.3144,6.3984,6.4824,6.0332,6.0879,6.1426,6.164,6.2363,6.3008,6.3008,6.3672,6.4121,6.3476,6.332,6.3125,6.248,6.414,0.0,6.7051,6.9726,0.0,7.2851,7.334,0.0,7.2715,0.0,7.0859,7.0449,7.0371,0.0,0.0,6.8965,6.9121,6.918,6.8965,6.8633,6.8203,6.7988,6.7558,6.6914,6.668,6.6133,6.5273,6.5273,6.4922,6.4297,6.4297,6.418,6.3965,6.3965,6.3476,6.2676,6.2676,6.2285,6.1699,6.1699,6.1699,6.1699,6.1699,6.1699,6.1699,6.1699,6.1699,6.1699,6.1699,6.1699,6.1699,6.1699,6.1699,6.1699,6.1699,6.1699,6.1699,6.1699,6.1699,6.1699,6.1699,6.1699,6.1699,6.1699,6.1699,6.1699,6.1699,6.1699,6.1699,6.1699,6.1699,6.1699,6.1699,6.1699,6.1621,6.1406,6.1191,6.1133,6.1348,6.1367,6.1465,6.168,6.1699,6.1699,6.1699,6.1699,6.1699,6.1699,6.1699,6.1699,6.1699,6.2344,6.2676,6.2676,6.3535,6.4297,6.4941,6.5176,6.5742,6.0879,6.1328,6.1699,6.1699,6.207,6.2324,6.1953,6.2539,6.291,6.2031,6.2168,6.2285,6.1797,6.3515,6.5449,0.0,0.0,0.0,7.3691,7.4629,7.498,0.0,7.332,0.0,7.1894,7.1504,7.1074,0.0,7.0195,6.998,7.0019,6.9668,6.9414,6.9297,6.8926,6.832,6.748,6.709,6.664,6.6172,6.6172,6.5918,6.5449,6.5449,6.5234,6.4863,0.0,6.4375,6.3574,6.3574,6.3066,6.2265,6.2265,6.2031,6.1699,6.1699,6.1699,6.1699,6.1699,6.1699,6.1699,6.1699,6.1699,6.1699,6.1699,6.1699,6.1699,6.1699,6.1699,6.1699,6.1699,6.1699,6.1699,6.1699,6.1699,6.1699,6.1699,6.1699,6.1699,6.1699,6.1699,6.1699,6.1699,6.1699,6.1699,6.1699,6.1699,6.1699,6.1699,6.1699,6.1699,6.1699,6.1699,6.1699,6.1699,6.1699,6.1699,6.1699,6.1699,6.1699,6.1699,6.1699,6.1699,6.1699,6.2558,6.3008,6.3008,6.4258,6.5117,6.5605,6.5996,6.6385,6.168,6.1875,6.1875,6.1875,6.1797,6.1504,6.0742,6.1152,6.1484,6.0723,6.1172,6.1699,6.1699,6.3125,6.4902,6.6777,0.0,7.2656,7.4512,7.5527,7.6074,7.6074,7.4648,7.3594,7.3476,7.2676,7.2129,7.2012,7.1308,7.0879,7.0879,7.0156,7.0039,7.0683,6.9844,6.9004,6.8203,6.7441,6.7012,6.6894,6.6894,6.6894,6.6894,6.6894,6.6484,6.5762,0.0,0.0,6.4473,6.4473,6.3965,6.3164,6.3047,6.2539,6.1855,6.1738,6.1699,6.1699,6.1699,6.1699,6.1699,6.1699,6.1699,6.1699,6.1699,6.1699,6.1699,6.1699,6.1699,6.1699,6.1699,6.1699,6.1699,6.1699,6.1699,6.1699,6.1699,6.1699,6.1699,6.1699,6.1699,6.1699,6.1699,6.1699,6.1699,6.1699,6.1699,6.1699,6.1699,6.1699,6.1699,6.1699,6.1699,6.1699,6.1699,6.1699,6.1699,6.1699,6.1699,6.1699,6.1699,6.1816,6.1875,6.1875,6.2832,6.3359,6.3359,6.498,6.5761,6.5741,6.6503,6.6762,6.2734,6.2773,6.2773,6.2773,6.2226,6.166,6.1504,6.1582,0.0,6.1504,6.1582,6.1699,6.1699,6.3125,6.5117,6.7578,7.0234,7.2851,7.5332,7.6426,7.6972,0.0,7.6074,7.5176,7.4433,0.0,0.0,0.0,0.0,7.1777,7.1777,7.1621,7.1289,7.0722,6.9844,6.9004,6.8203,6.8047,6.7617,6.6894,6.6894,6.6894,6.6894,6.6894,6.6816,6.668,6.668,0.0,6.5371,6.5371,6.4863,6.4004,6.3281,6.291,6.2695,6.1973,6.1699,6.1699,6.1699,6.1699,6.1699,6.1699,6.1699,6.1699,6.1699,6.1699,6.1699,6.1699,6.1699,6.1699,6.1699,6.1699,6.1699,6.1699,6.1699,6.1699,6.1699,6.1699,6.1699,6.1699,6.1699,6.1699,6.1699,6.1699,6.1699,6.1699,6.1699,6.1699,6.1699,6.1699,6.1699,6.1699,6.1699,6.1699,6.1699,6.1699,6.1699,6.1699,6.1699,6.1699,6.1699,6.2383,6.2773,6.2773,6.4336,6.5156,6.5156,6.6172,6.6596,6.6422,6.6578,6.6571,6.3008,6.3008,6.3008,6.3008,6.2344,6.1582,6.1133,0.0,0.0,6.1113,6.1387,6.1699,6.1699,6.2754,6.4336,6.6504,6.8633,7.1074,7.4121,7.5293,7.6172,7.709,7.6426,7.5742,0.0,0.0,0.0,0.0,0.0,7.248,7.2012,7.1992,7.1816,7.1387,7.0527,6.9668,6.8828,6.8418,6.7988,6.7578,6.7129,6.7148,6.7558,6.7109,6.6894,6.6894,6.6894,0.0,6.6289,6.6289,6.5762,6.4922,6.4512,6.4082,6.3574,6.2695,6.2383,6.2305,6.1855,6.1699,6.1699,6.1699,6.1699,6.1699,6.1699,6.1699,6.1699,6.1699,6.1699,6.1699,6.1699,6.1699,6.1699,6.1699,6.1699,6.1699,6.1699,6.1699,6.1699,6.1699,6.1699,6.1699,6.1699,6.207,6.2383,6.2383,6.2754,6.3047,6.3047,6.2656,6.2207,6.1758,6.1699,6.1699,6.1699,6.1699,6.1699,6.1699,6.2129,6.2383,6.2383,6.3203,6.3672,6.3672,6.4941,6.5545,6.5451,6.6311,6.6652,6.6495,6.6495,6.6418,6.3047,6.3144,6.3223,6.3047,6.2344,6.1523,6.082,6.1211,6.1504,6.082,6.1211,6.1699,6.1699,6.2265,6.3418,6.5527,6.7187,6.9453,7.3066,7.4492,7.5664,0.0,7.6758,0.0,7.5937,0.0,0.0,0.0,0.0,0.0,7.2051,7.1992,7.1992,7.1992,7.1347,7.0469,6.9414,6.8965,6.8555,6.8183,6.7519,6.7539,6.8164,6.7305,6.6894,6.6894,6.6894,0.0,0.0,6.6894,6.6504,6.5859,6.5664,6.5176,6.4473,6.3594,6.3281,6.3144,6.2285,6.1973,6.1953,6.1758,6.1699,6.1699,6.1699,6.1699,6.1699,6.1699,6.1699,6.1699,6.1699,6.1679,6.1657,6.1657,6.1679,6.1699,6.1658,6.1835,6.1972,6.1931,6.2109,6.2265,6.2265,6.2812,6.3281,6.3281,6.3867,6.4297,6.4297,6.3691,6.3027,6.2324,6.1914,6.1777,6.1953,6.1973,6.2051,6.2246,6.289,6.3281,6.3281,6.4121,6.457,6.457,6.5389,6.5825,6.5852,6.6496,6.6834,6.6871,6.6696,6.6511,6.3223,6.3574,6.3984,6.3203,6.2344,6.168,6.1601,6.164,6.168,6.1601,6.164,6.1699,6.1699,6.1777,6.291,6.623,6.7578,6.9668,7.3887,7.5918,7.7012,7.7187,0.0,0.0,7.6055,0.0,0.0,0.0,0.0,0.0,7.2051,7.1992,7.1992,7.1992,7.1914,7.1074,6.9414,7.0117,6.9707,6.8203,6.8125,6.8125,6.8164,6.7305,6.6894,6.6894,6.6894,0.0,0.0,6.6894,6.6855,6.6699,6.5918,6.5547,6.5371,6.4492,6.418,6.4062,6.3183,6.2871,6.2754,6.1953,6.1699,6.1699,6.1699,6.1699,6.1699,6.1699,6.1699,6.1699,6.1699,6.1609,6.1514,6.1514,6.1609,6.1678,6.1547,6.2235,6.285,6.2718,6.3447,6.4062,6.4062,6.4121,6.418,6.418,6.4258,6.4297,6.4297,6.4238,6.414,6.4062,6.2637,6.2012,6.2812,6.2871,6.3223,6.4004,6.414,6.418,6.418,6.5019,6.5488,6.5488,6.6169,6.6895,6.7663,6.7559,6.7805,6.837,6.7644,6.7198,6.3887,6.4043,6.4219,6.3867,6.2734,6.1699,6.1699,6.1699,6.1699,6.1699,6.1699,6.1699,6.1699,6.1699,6.25,6.4941,6.5625,6.7187,7.0996,7.2539,7.3867,7.5449,7.6406,0.0,0.0,0.0,0.0,0.0,0.0,0.0,7.207,7.1992,7.1992,7.1992,7.1992,7.1406,7.0195,7.0527,7.0371,6.9687,6.8672,6.8476,6.8945,6.7539,6.6894,6.6894,6.6894,0.0,0.0,6.6894,6.6894,6.6875,6.6523,6.6387,6.6289,6.539,6.5078,6.4883,6.3476,6.3008,6.2832,6.1881,6.158,6.1585,6.1679,6.1636,6.1605,6.1679,6.1581,6.149,6.1552,6.1839,6.2107,6.2107,6.2531,6.2959,6.2893,6.3193,6.3466,6.34,6.3724,6.4045,6.4169,6.4585,6.4947,6.5058,6.5527,6.5859,6.5859,6.541,6.5078,6.5078,6.3984,6.3418,6.375,6.3789,6.3926,6.4277,6.4785,6.5078,6.5078,6.5791,6.6208,6.6208,6.6869,6.7325,6.761,6.8007,6.8302,6.847,6.8142,6.796,6.3535,6.3711,6.3848,6.3594,6.2617,6.1699,6.1699,6.1699,6.1699,6.1699,6.1699,6.1699,6.1699,6.1699,6.2265,6.4023,6.4512,6.5898,6.9375,7.0781,7.2246,7.4355,0.0,0.0,0.0,0.0,0.0,0.0,0.0,0.0,0.0,7.1992,7.1875,7.1621,7.1875,7.1444,7.0267,7.0819,7.0937,7.0619,6.9237,6.8866,6.935,6.7612,6.6787,6.6756,0.0,0.0,0.0,6.6854,6.6855,6.6811,6.6811,6.6853,6.6816,6.6149,6.5935,6.5722,6.3942,6.3335,6.3115,6.1846,6.1444,6.1457,6.155,6.1512,6.1458,6.1551,6.1448,6.1379,6.1668,6.2124,6.2549,6.2768,6.3317,6.3787,6.3752,6.3978,6.4176,6.4106,6.4354,6.4601,6.4759,6.5244,6.5679,6.5812,6.6395,6.6811,6.6811,6.6327,6.5976,6.5976,6.5449,6.4961,6.4707,6.4687,6.4785,6.5058,6.5584,6.601,6.6263,6.6679,6.7019,6.729,6.769,6.7971,6.8132,6.8664,6.8996,6.9122,6.8891,6.8641,6.1738,6.2363,6.2812,6.1933,6.1719,6.1699,6.1699,6.1699,6.1699,6.1699,6.1699,6.1699,6.1699,6.1699,6.2265,6.4023,6.5019,6.6777,7.0215,7.2187,7.3594,0.0,0.0,0.0,0.0,0.0,0.0,0.0,0.0,0.0,0.0,7.1992,7.1601,7.0742,7.1543,7.1107,6.9229,7.1066,7.1497,7.0481,6.9817,6.9387,6.914,6.74,6.6525,0.0,0.0,0.0,0.0,6.6758,6.6787,6.6598,6.6598,6.6716,6.6874,6.6665,6.6718,6.662,6.4733,6.4085,6.3779,6.1906,6.1309,6.1309,6.1289,6.1309,6.1309,6.1289,6.1309,6.1441,6.2118,6.2408,6.2675,6.3423,6.3705,6.3754,6.3628,6.4381,6.5024,6.4823,6.5642,6.6367,6.6371,6.6371,6.639,6.6393,6.6514,6.6598,6.6598,6.6766,6.6894,6.6894,6.6875,6.6523,6.5664,6.5586,6.5957,6.6816,6.6694,6.6987,6.784,6.7692,6.7992,6.8857,6.8696,6.9013,6.9879,6.9751,7.009,7.0841,7.0052,6.9218,6.2422,6.2793,6.293,6.2656,6.2148,6.1699,6.1699,6.1699,6.1699,6.1699,6.1699,6.1699,6.1699,6.2187,6.3164,6.4902,6.5918,6.7285,6.9551,0.0,0.0,7.3613,7.5527,0.0,0.0,0.0,0.0,0.0,0.0,0.0,0.0,7.1356,7.0851,7.0578,7.1357,7.1184,6.9894,7.1063,7.149,7.1171,6.9757,6.9058,6.8939,6.7242,0.0,0.0,0.0,0.0,0.0,6.651,6.652,6.6463,6.6463,6.6508,6.6557,6.6498,6.6508,6.638,6.5207,6.4782,6.4466,6.2598,6.1985,6.186,6.1162,6.1018,6.1209,6.1703,6.1908,6.2144,6.2818,6.3469,6.3994,6.4229,6.4762,6.5225,6.5174,6.5424,6.5641,6.5571,6.5821,6.6084,6.6176,6.6183,6.6236,6.639,6.6432,6.6495,6.659,6.6586,6.659,6.6685,6.6604,6.6538,6.6484,6.6356,6.6396,6.669,6.7075,6.7409,6.7682,6.807,6.8415,6.8682,6.9121,6.9488,6.9764,7.0278,7.0648,7.0898,7.0648,7.0379,6.2265,6.2519,6.2519,6.2519,6.2109,6.1699,6.1699,6.1699,6.1699,6.1699,6.1699,6.1797,6.2129,6.2637,6.3574,6.5312,6.6328,6.75,0.0,0.0,0.0,7.3652,0.0,0.0,0.0,0.0,0.0,0.0,0.0,0.0,0.0,7.105,7.0317,6.9907,7.037,7.0303,6.9589,7.0208,7.0656,7.0887,6.9236,6.84,6.8292,6.6908,0.0,0.0,0.0,0.0,0.0,6.668,6.6639,6.6322,6.6652,6.6618,6.64,6.6309,6.633,6.6261,6.5314,6.4993,6.473,6.3173,6.2677,6.2497,6.1576,6.134,6.1503,6.198,6.2381,6.2853,6.3593,6.4179,6.4686,6.5013,6.5513,6.5904,6.5904,6.5904,6.5904,6.5904,6.5904,6.5927,6.6003,6.6016,6.6073,6.6197,6.6252,6.6327,6.6396,6.6392,6.6426,6.6514,6.6446,6.6485,6.6695,6.6597,6.6657,6.6967,6.7314,6.7806,6.8443,6.8814,6.9167,6.9451,6.9926,7.0148,7.0148,7.0667,7.0898,7.0898,7.0898,7.0898,0.0,6.1699,6.1699,6.1699,6.1699,6.1699,6.1699,6.1699,0.0,6.1699,6.1699,6.1992,6.293,6.3086,6.3672,6.5488,6.6523,0.0,0.0,7.1055,0.0,0.0,0.0,0.0,0.0,0.0,0.0,0.0,0.0,0.0,0.0,7.0962,6.9915,6.8923,6.8806,6.8699,6.8601,6.8773,6.9243,6.9957,6.8404,6.7588,6.7435,6.6516,0.0,0.0,0.0,0.0,0.0,6.7215,6.711,6.6332,6.7087,6.6993,6.6427,6.6189,6.6206,6.6229,6.5215,6.4885,6.4711,6.3723,6.3352,6.316,6.2403,6.2191,6.2191,6.2249,6.282,6.3583,6.4474,6.4686,6.4897,6.5705,6.5904,6.5904,6.5904,6.5904,6.5904,6.5904,6.5904,6.5904,6.5904,6.5904,6.5904,6.5904,6.6017,6.6109,6.6187,6.6283,6.6393,6.6465,6.6416,6.6351,6.6351,6.6361,6.6718,6.7528,6.7512,6.8199,6.9815,6.9828,7.0148,7.0898,7.0898,7.0898,7.0898,7.0898,7.0898,7.0898,7.0898,7.0898,6.164,0.0,6.1699,6.1699,6.1699,6.1699,0.0,6.1699,6.1699,6.1699,6.1699,6.2168,6.3711,6.3984,6.4785,6.7207,0.0,0.0,7.0254,0.0,0.0,0.0,0.0,0.0,0.0,0.0,0.0,0.0,0.0,0.0,0.0,7.0086,6.9004,6.8754,6.7954,6.7813,6.843,6.8496,6.9228,7.0639,6.8347,6.7575,6.8114,6.6631,0.0,0.0,0.0,0.0,6.7827,6.8099,6.8073,6.7819,6.7344,6.7064,6.6865,6.6198,6.5984,6.5978,6.5735,6.5648,6.5482,6.4595,6.3833,6.3256,6.3089,6.3025,6.3166,6.382,6.4147,6.4493,6.5378,6.559,6.5647,6.5846,6.5904,6.5904,6.5904,6.5904,6.5904,6.5904,6.5904,6.5904,6.5904,6.5904,6.5904,6.5904,6.5927,6.6217,6.699,6.6467,6.6308,6.7085,6.6485,6.6027,6.6027,6.6104,6.6545,6.7393,6.7893,6.8642,6.9701,7.0304,7.0706,7.0898,7.0898,7.0898,7.0898,7.0898,7.0898,7.0898,7.0898,7.0898,6.1699,6.2285,6.289,6.289,6.289,6.289,6.289,6.2265,6.1699,6.1699,6.1699,6.2226,6.3984,6.4629,6.5625,6.7832,6.9238,0.0,0.0,0.0,0.0,0.0,0.0,0.0,0.0,0.0,0.0,0.0,0.0,0.0,0.0,7.0236,6.9168,6.8709,6.766,6.7513,6.8391,6.8391,6.8853,6.9725,6.7955,6.734,6.7763,6.6865,6.6898,0.0,0.0,0.0,6.843,6.8834,6.8757,6.8391,6.8321,6.7802,6.7058,6.6615,6.6231,6.5904,6.5904,6.5904,6.5763,6.4878,6.4551,6.4416,6.4025,6.4185,6.4512,6.4589,6.4897,6.5301,6.5788,6.5904,6.5904,6.5904,6.5904,6.5904,6.5904,6.5904,6.5904,6.5904,6.5904,6.5904,6.5904,6.5904,6.5904,6.5904,6.5904,6.6235,6.7139,6.6779,6.6665,6.7197,6.6779,6.6442,6.6442,6.6524,6.675,6.7233,6.834,6.9206,6.9687,7.0475,7.0898,7.0898,7.0898,7.0898,7.0898,7.0898,7.0898,7.0898,7.0898,7.0898,6.1855,6.3262,6.457,6.4043,6.4101,6.4238,6.3965,6.2754,6.1699,6.1699,6.1816,6.2461,6.4355,6.541,0.0,0.0,0.0,0.0,7.3066,7.3301,0.0,0.0,0.0,0.0,0.0,0.0,0.0,0.0,0.0,0.0,0.0,7.0687,6.9731,6.8877,6.7978,6.784,6.8584,6.8334,6.8334,6.8584,6.7705,6.7301,6.7301,6.7301,6.7763,0.0,0.0,0.0,6.8834,6.959,6.9456,6.8834,6.9456,6.8802,6.7462,6.7192,6.6673,6.6077,6.5936,6.5904,6.5788,6.5032,6.5301,6.5763,6.5013,6.5301,6.5743,6.5013,6.532,6.5904,6.5904,6.5904,6.5904,6.5904,6.5904,6.5904,6.5904,6.5904,6.5904,6.5904,6.5904,6.5904,6.5904,6.5904,6.5904,6.5904,6.5904,6.6192,6.7,6.7,6.6962,6.7096,6.7,6.6923,6.6923,6.7154,6.7192,6.6923,6.8532,6.9571,6.9687,7.0475,7.0898,7.0898,7.0898,7.0898,7.0898,7.0898,7.0898,7.0898,7.0898,7.0898,6.2598,6.4609,6.5781,6.2832,6.3203,6.3906,6.2441,6.1894,6.1699,6.1699,6.2285,6.3555,6.6035,6.7207,6.8594,0.0,0.0,7.2148,0.0,0.0,0.0,0.0,0.0,0.0,0.0,0.0,0.0,0.0,0.0,0.0,0.0,7.0422,6.9707,6.956,6.9386,6.9379,6.9494,6.8032,6.8032,6.9494,6.8622,6.8199,6.8199,6.8199,6.868,0.0,0.0,6.9898,7.0533,7.0667,7.0648,7.0456,6.9917,6.9533,6.9129,6.7635,6.7019,6.6827,6.6134,6.5904,6.5878,6.5743,6.5788,6.5878,6.5743,6.5788,6.5859,6.5743,6.5807,6.5904,6.5904,6.5904,6.5904,6.5904,6.5904,6.5904,6.5904,6.5904,6.5904,6.5904,6.5904,6.5904,6.5904,6.5904,6.5904,6.5904,6.5904,6.6192,6.7,6.6519,6.6346,6.7039,6.65,6.6077,6.6077,6.7378,6.7609,6.6167,6.7667,6.893,6.9667,7.0475,7.0898,7.0898,7.0898,7.0898,7.0898,7.0898,7.0898,7.0898,7.0898,7.0898,6.2051,6.3867,6.5117,6.3515,6.5117,6.6894,6.6055,6.4805,6.3808,6.3808,6.375,6.4355,6.6504,0.0,6.9023,7.1582,0.0,0.0,0.0,0.0,0.0,0.0,0.0,0.0,0.0,0.0,0.0,0.0,0.0,0.0,0.0,0.0,7.038,6.9719,6.9706,6.9706,6.9706,6.8917,6.8917,6.9706,6.9295,6.9103,6.9103,6.9103,6.9571,7.036,0.0,7.0552,7.0898,7.0898,7.0898,7.086,7.0494,6.9783,6.8795,6.7071,6.6442,6.6404,6.6038,6.5904,6.5904,6.5904,6.5904,6.5904,6.5904,6.5904,6.5904,6.5904,6.5904,6.5904,6.5904,6.5904,6.5904,6.5904,6.5904,6.5904,6.5904,6.5904,6.5904,6.5904,6.5904,6.5904,6.5904,6.5904,6.5904,6.5904,6.6269,6.684,6.7686,6.7898,6.809,6.8475,6.8167,6.7955,6.7955,6.8218,6.8449,6.859,6.8475,6.8987,7.0283,7.0706,7.0898,7.0898,7.0898,7.0898,7.0898,7.0898,7.1148,7.1591,7.111,7.1148,6.1465,6.2969,6.4355,6.4551,6.6465,6.8379,6.873,6.6992,6.541,6.582,6.5371,6.5371,6.6914,6.8242,0.0,7.168,7.2168,0.0,0.0,0.0,0.0,0.0,0.0,0.0,0.0,0.0,0.0,0.0,0.0,0.0,0.0,0.0,7.0976,7.0014,6.9975,6.9975,6.9975,6.9975,6.9898,6.9706,6.9898,6.9879,6.9706,6.9898,7.0321,7.0898,7.0898,7.0898,7.0898,7.0898,7.0898,7.0898,7.0898,6.9994,6.8545,6.7263,6.6538,6.6192,6.6192,6.6051,6.5904,6.5904,6.5904,6.5904,6.5904,6.5904,6.5904,6.5904,6.5904,6.5904,6.5904,6.5904,6.5904,6.5904,6.5904,6.5904,6.5904,6.5904,6.5904,6.5904,6.5904,6.5904,6.5904,6.5904,6.5904,6.5904,6.6423,6.7128,6.7987,6.8686,6.9167,6.9379,6.9398,6.9475,6.9687,6.8706,6.8898,7.0783,6.9526,6.9276,7.0571,7.0802,7.0898,7.0898,7.0898,7.0898,7.0898,7.0898,7.1245,7.1886,7.1206,7.136,6.1465,6.2969,6.4492,6.5293,6.5098,6.5098,6.6719,6.5683,6.4844,6.6465,6.6758,6.6992,6.793,7.0097,7.1797,7.1972,7.2676,0.0,0.0,0.0,0.0,0.0,0.0,0.0,0.0,0.0,0.0,0.0,0.0,0.0,0.0,0.0,0.0,7.0816,7.0802,7.0802,7.0802,7.0802,7.0437,6.9706,7.0456,7.0417,6.9725,7.0475,7.0841,7.0898,7.0898,7.0898,7.0898,7.0898,7.0898,7.0898,7.0898,7.0379,6.959,6.9475,6.8398,6.7019,6.7019,6.6519,6.5904,6.5904,6.5904,6.5904,6.5904,6.5904,6.5904,6.5904,6.5904,6.5904,6.5904,6.5904,6.5904,6.5904,6.5904,6.5904,6.5904,6.5904,6.5904,6.5904,6.5904,6.5904,6.5904,6.5904,6.5904,6.5904,6.5961,6.6288,6.7096,6.725,6.759,6.841,6.8487,6.8814,6.9629,6.8167,6.8244,7.0744,7.009,6.9667,6.9783,7.0494,7.0898,7.0898,7.0898,7.0898,7.0898,7.0898,7.0937,7.0994,7.0937,7.136,6.0664,6.2558,6.4375,6.4707,6.4941,6.5703,6.7949,6.7558,6.7207,6.8906,6.8828,6.8555,6.8887,0.0,7.0566,7.1094,0.0,0.0,0.0,0.0,0.0,0.0,0.0,0.0,0.0,0.0,0.0,0.0,0.0,0.0,0.0,0.0,0.0,7.1083,7.0472,7.0398,7.0898,7.0398,7.0244,7.0456,7.0744,7.0744,7.0456,7.0764,7.0898,7.0898,7.0898,7.0898,7.0898,7.0898,7.0898,7.0841,7.036,6.9975,6.9629,6.9084,6.8468,6.7917,6.7917,6.734,6.6654,6.6654,6.6308,6.5904,6.5904,6.5904,6.5994,6.6519,6.6288,6.6019,6.6519,6.6288,6.6038,6.6538,6.6269,6.5904,6.5904,6.5904,6.5904,6.5904,6.5904,6.5904,6.5904,6.5904,6.5904,6.5904,6.6327,6.6955,6.7802,6.8379,6.9033,6.9879,6.9956,6.9898,6.9706,6.9552,6.9667,7.0129,6.9879,6.9917,7.0437,7.0744,7.0898,7.0898,7.0898,7.0898,7.0898,7.0898,7.1187,7.1694,7.1148,7.1668,5.9863,6.1719,6.3555,6.3828,6.4531,6.5859,6.8437,6.8594,6.875,7.0703,7.0195,6.9316,6.9062,0.0,0.0,0.0,0.0,0.0,0.0,0.0,0.0,0.0,0.0,0.0,0.0,0.0,0.0,0.0,0.0,0.0,0.0,0.0,0.0,0.0,6.9926,6.9956,7.0514,7.0225,7.036,7.0898,7.0898,7.0898,7.0898,7.0898,7.0898,7.0898,7.0898,7.0898,7.0898,7.0898,7.0898,7.0841,7.0283,7.0071,7.0014,6.9411,6.9026,6.8814,6.8814,6.8244,6.7475,6.7192,6.6731,6.6224,6.5981,6.5904,6.6077,6.6865,6.6519,6.6147,6.7225,6.6705,6.6096,6.6904,6.65,6.5904,6.5904,6.5904,6.5904,6.5904,6.5904,6.5904,6.5904,6.5904,6.5904,6.5904,6.6365,6.7128,6.8257,6.8911,6.9706,7.0783,7.0667,7.0398,7.011,7.036,7.0398,7.011,7.0071,7.0321,7.0879,7.0898,7.0898,7.0898,7.0898,7.0898,7.0898,7.0898,7.1341,7.2175,7.1302,7.1975,5.9219,6.0449,6.1933,6.2793,6.3672,6.5019,6.7598,6.8183,6.8926,7.1445,7.0605,6.914,6.8359,6.8183,0.0,0.0,0.0,0.0,0.0,0.0,0.0,0.0,0.0,0.0,0.0,0.0,0.0,0.0,0.0,0.0,0.0,0.0,0.0,0.0,6.9225,6.9687,6.9706,7.0475,7.0879,7.0898,7.0898,7.0898,7.0898,7.0898,7.0898,7.0898,7.0898,7.0898,7.0898,7.0898,7.0898,7.0898,7.0898,7.0898,7.0898,7.0898,7.0398,6.9706,6.9706,6.9148,6.8257,6.7378,6.7096,6.6942,6.6134,6.5904,6.6077,6.6865,6.6519,6.6282,6.7949,6.7167,6.6096,6.6904,6.65,6.5904,6.5904,6.5904,6.5904,6.5904,6.5904,6.5904,6.5904,6.5904,6.5904,6.5904,6.5904,6.6513,6.8199,6.841,6.9064,7.0725,7.0187,7.0033,7.0821,7.0167,7.0052,7.0841,7.0898,7.0898,7.0898,7.0898,7.0898,7.0898,7.0918,7.0918,7.0898,7.0918,7.136,7.2175,7.1302,7.2264,6.0039,6.1758,6.3437,6.3086,6.5039,6.709,6.7246,6.7754,6.8574,6.9902,6.9805,6.9219,6.8359,0.0,0.0,0.0,0.0,0.0,0.0,0.0,0.0,0.0,0.0,0.0,0.0,0.0,0.0,0.0,0.0,0.0,0.0,0.0,0.0,0.0,6.8181,6.8456,6.9687,6.8725,6.9135,7.0898,7.0321,7.036,7.0898,7.0898,7.0898,7.0898,7.0898,7.0898,7.0898,7.0898,7.0898,7.0898,7.0898,7.0898,7.0898,7.0898,7.0744,7.0533,7.0533,6.961,6.8353,6.8103,6.7225,6.6211,6.5981,6.5904,6.6077,6.6865,6.6519,6.6282,6.7949,6.7167,6.6096,6.6904,6.6923,6.6596,6.6019,6.6346,6.6577,6.6019,6.5904,6.5904,6.5904,6.5904,6.5904,6.5904,6.6385,6.7366,6.909,6.9821,7.036,7.0841,7.0687,7.0648,7.0879,7.0687,7.0648,7.0879,7.0898,7.0898,7.0898,7.0898,7.0898,7.0898,7.1495,7.1514,7.0898,7.1521,7.1944,7.2194,7.1925,7.2841,6.0742,6.2324,6.3828,6.3984,6.5879,6.7637,6.7461,6.8066,6.8808,6.9297,6.918,6.8828,6.8301,6.748,0.0,0.0,0.0,0.0,0.0,0.0,0.0,0.0,0.0,0.0,0.0,0.0,0.0,0.0,0.0,0.0,0.0,0.0,0.0,0.0,6.7862,6.8282,6.9687,6.8975,6.9379,7.0898,7.0417,7.0437,7.0898,7.0898,7.0898,7.0898,7.0898,7.0898,7.0898,7.0898,7.0898,7.0898,7.0898,7.0898,7.0898,7.0898,7.0898,7.0898,7.0898,7.0033,6.8853,6.8507,6.7475,6.6385,6.6385,6.6154,6.6205,6.7712,6.7051,6.6282,6.7949,6.7167,6.6096,6.6904,6.6865,6.6577,6.6404,6.6519,6.6686,6.6859,6.6359,6.5994,6.6327,6.6109,6.6019,6.6327,6.7385,6.8513,6.9552,7.0398,7.0898,7.0898,7.0898,7.0898,7.0898,7.0898,7.0898,7.0898,7.0898,7.0898,7.0898,7.0898,7.0898,7.0898,7.1418,7.1418,7.0898,7.1771,7.2386,7.2726,7.2726,7.361,6.1367,6.2402,6.3418,6.5156,6.6269,6.7129,6.8008,6.8691,6.918,6.918,0.0,6.8183,6.8105,0.0,0.0,0.0,0.0,0.0,0.0,0.0,0.0,0.0,0.0,0.0,0.0,0.0,0.0,0.0,0.0,0.0,0.0,0.0,0.0,6.729,6.7877,6.8636,6.9571,7.0225,7.0667,0.0,7.0821,7.0821,7.0898,7.0898,7.0898,7.0898,7.0898,7.0898,7.0898,7.0898,7.0898,7.0898,7.0898,7.0898,7.0898,7.0898,7.0898,7.0898,7.0898,7.0321,6.9456,6.8757,6.7878,6.7116,6.7192,6.6712,6.6609,6.8936,6.7859,6.6359,6.7891,6.7109,6.6077,6.6827,6.65,6.6211,6.6942,6.6538,6.6436,6.7891,6.6994,6.6231,6.6885,6.6442,6.6282,6.7096,6.8629,6.9725,6.9802,7.0456,7.0898,7.0898,7.0898,7.0898,7.0898,7.0898,7.0898,7.0898,7.0898,7.0898,7.0898,7.0898,7.0898,7.0898,7.1052,7.1052,7.0898,7.1841,7.2726,7.3507,7.3507,7.4392,6.2246,6.2851,6.3418,6.5156,6.6269,6.7129,6.8008,6.7793,6.7441,6.7441,6.7832,6.7988,6.7305,0.0,0.0,0.0,0.0,0.0,0.0,0.0,0.0,0.0,0.0,0.0,0.0,0.0,0.0,0.0,0.0,0.0,0.0,0.0,0.0,6.6606,6.6601,6.726,6.866,6.8167,6.8917,0.0,7.0264,7.0283,7.0898,7.0898,7.0898,7.0898,7.0898,7.0898,7.0898,7.0898,7.0898,7.0898,7.0898,7.0898,7.0898,7.0898,7.0898,7.0898,7.0898,6.9937,6.8757,6.9263,6.8359,6.7231,6.7917,6.8007,6.7968,6.8526,6.7782,6.6923,6.7282,6.6635,6.5936,6.6115,6.6519,6.6885,6.7058,6.6962,6.6769,6.6494,6.6654,6.6692,6.625,6.6538,6.7128,6.7987,6.9026,6.9937,7.0552,7.0783,7.0898,7.0898,7.0898,7.0898,7.0898,7.0898,7.0898,7.0898,7.0898,7.0898,7.0898,7.0898,7.0898,7.0898,7.2238,7.2264,7.0898,7.2456,7.3315,7.3507,7.3507,7.4392,6.2422,6.3301,6.4043,6.5781,6.6875,6.7539,6.7578,6.7226,6.6894,6.6894,6.7265,6.7441,0.0,0.0,0.0,0.0,0.0,0.0,0.0,0.0,0.0,0.0,0.0,0.0,0.0,0.0,0.0,0.0,0.0,0.0,0.0,6.6712,6.6726,6.6974,6.6812,6.7268,6.8391,6.7955,6.8609,7.0321,6.9898,7.0129,7.0898,7.0898,7.0898,7.0898,7.0898,7.0898,7.0898,7.0898,7.0898,7.0898,7.0898,7.0898,7.0898,7.0898,7.0667,7.0321,7.0321,6.9206,6.7859,6.8302,6.7571,6.6769,6.8026,6.7833,6.7455,6.868,6.7821,6.6615,6.7,6.65,6.5994,6.6385,6.65,6.6635,6.7019,6.6808,6.6769,6.7552,6.7385,6.7231,6.7648,6.8071,6.8494,6.8949,6.9744,7.0437,7.0841,7.0898,7.0898,7.0898,7.0898,7.0898,7.0898,7.0898,7.0898,7.0898,7.0898,7.0898,7.0898,7.0898,7.0898,7.0898,7.2206,7.2225,7.0898,7.2642,7.3507,7.3507,7.3892,7.4776,6.1894,6.3418,6.4687,6.6289,6.7324,6.7793,6.7051,6.6894,6.6894,6.6894,6.6894,0.0,0.0,0.0,0.0,0.0,0.0,0.0,0.0,0.0,0.0,0.0,0.0,0.0,0.0,0.0,0.0,0.0,0.0,0.0,6.6894,6.674,6.6881,6.7379,6.7296,6.7529,6.8167,6.818,6.8686,6.9706,6.984,7.0264,7.0898,7.0898,7.0898,7.0898,7.0898,7.0898,7.0898,7.0898,7.0898,7.0898,7.0898,7.0898,7.0898,7.0898,7.0398,6.9706,6.9706,6.8552,6.7116,6.7289,6.6769,6.6378,6.793,6.743,6.6763,6.8879,6.784,6.6269,6.6923,6.65,6.6077,6.6731,6.6385,6.6115,6.6923,6.6577,6.6724,6.884,6.8205,6.7821,6.9436,6.9706,6.9706,6.9706,7.0379,7.0898,7.0898,7.0898,7.0898,7.0898,7.0898,7.0898,7.0898,7.0898,7.0898,7.0898,7.0898,7.0898,7.0898,7.0898,7.0898,7.0898,7.1771,7.1771,7.0898,7.2495,7.3276,7.3296,7.4103,7.495,6.0254,6.248,6.4531,6.5527,6.6426,6.7031,6.6933,0.0,6.6894,0.0,0.0,0.0,0.0,0.0,0.0,0.0,0.0,0.0,0.0,0.0,0.0,0.0,0.0,0.0,0.0,0.0,0.0,0.0,0.0,0.0,6.6894,6.6874,6.6764,6.6571,6.6539,6.6767,6.7276,6.7269,6.809,6.9706,7.0417,7.0802,7.0898,7.0898,7.0898,7.0898,7.0898,7.0898,7.0898,7.0898,7.0898,7.0898,7.0898,7.0898,7.0898,7.0898,7.0398,6.9706,6.9706,6.8552,6.7231,6.7975,6.7648,6.7116,6.8103,6.8237,6.8141,6.8487,6.7782,6.6962,6.7077,6.65,6.5923,6.6038,6.5981,6.6115,6.6923,6.7019,6.7039,6.7385,6.7878,6.8545,6.9533,6.9706,6.9706,6.9706,7.0379,7.0898,7.0898,7.0898,7.0898,7.0898,7.0898,7.0898,7.0898,7.0898,7.0898,7.0898,7.0898,7.0898,7.0898,7.0898,7.0898,7.0898,7.1771,7.1771,7.0898,7.1879,7.2367,7.2386,7.3257,7.4103,6.0547,6.2324,6.3906,6.5254,6.6269,6.6777,6.6289,6.6172,6.6035,6.5547,0.0,0.0,0.0,0.0,0.0,0.0,0.0,0.0,0.0,0.0,0.0,0.0,0.0,0.0,0.0,0.0,0.0,0.0,0.0,6.6894,6.6894,6.6894,6.6753,6.6419,6.6406,6.6409,6.6429,6.6423,6.7282,6.8968,6.984,7.0456,7.0879,7.0437,7.0475,7.0898,7.0898,7.0898,7.0898,7.0898,7.0898,7.0898,7.0898,7.0898,7.0898,7.0898,7.0398,6.9629,6.9148,6.8148,6.7096,6.7013,6.6744,6.6577,6.7417,6.7359,6.709,6.7532,6.7071,6.6423,6.6423,6.6173,6.5904,6.5904,6.5904,6.5994,6.6346,6.6789,6.7385,6.8359,6.8879,6.9398,7.0225,7.0379,7.0379,7.0379,7.0667,7.0898,7.0898,7.0898,7.0898,7.0898,7.0898,7.0898,7.0898,7.0898,7.0898,7.0898,7.0898,7.0898,7.0898,7.0898,7.0898,7.0898,7.1771,7.1771,7.0898,7.1771,7.2194,7.2213,7.3084,7.368,6.0156,6.1523,6.2695,6.4238,6.543,6.6074,6.543,0.0,6.5098,0.0,0.0,0.0,0.0,0.0,0.0,0.0,0.0,0.0,0.0,0.0,0.0,0.0,0.0,0.0,0.0,0.0,0.0,0.0,0.0,6.6894,6.6894,6.6894,6.6759,6.6457,6.6623,6.6457,6.5955,6.6114,6.6821,6.8084,6.8949,6.9687,7.0244,6.9648,6.9821,7.061,7.0802,7.0898,7.0898,7.0898,7.0898,7.0898,7.0898,7.0898,7.0898,7.0898,7.0244,6.9283,6.8622,6.7705,6.6692,6.6096,6.5904,6.6019,6.6615,6.6385,6.6038,6.6635,6.6365,6.5904,6.5904,6.5904,6.5904,6.5904,6.5904,6.5961,6.6154,6.6673,6.7558,6.9071,6.9379,6.9629,7.0456,7.0591,7.0667,7.086,7.0898,7.0898,7.0898,7.0898,7.0898,7.0898,7.0898,7.0898,7.0898,7.0898,7.0898,7.0898,7.0898,7.0898,7.0898,7.0898,7.0898,7.0898,7.1533,7.1552,7.0898,7.1771,7.2098,7.1898,7.3199,7.3584,5.7832,5.9297,6.0762,6.168,6.3183,6.4414,0.0,0.0,0.0,0.0,0.0,0.0,0.0,0.0,0.0,0.0,0.0,0.0,0.0,0.0,0.0,0.0,0.0,0.0,0.0,0.0,0.0,0.0,0.0,6.6894,6.6894,6.6894,6.679,6.6593,6.722,6.7068,6.609,6.673,6.7077,6.7173,6.8045,6.8487,6.8526,6.8487,6.893,6.9802,7.0571,7.0898,7.0898,7.0898,7.0898,7.0898,7.0898,7.0898,7.0898,7.0898,6.9879,6.8468,6.841,6.734,6.5961,6.5904,6.5904,6.5904,6.5961,6.5936,6.5904,6.5961,6.5936,6.5904,6.5904,6.5904,6.5904,6.5904,6.5904,6.6115,6.6865,6.7077,6.7366,6.8295,6.8468,6.8737,6.961,6.9763,7.0014,7.0783,7.0898,7.0898,7.0898,7.0898,7.0898,7.0898,7.0898,7.0898,7.0898,7.0898,7.0898,7.0898,7.0898,7.0898,7.0898,7.0898,7.0898,7.0898,7.0937,7.0956,7.0898,7.1771,7.179,7.1033,7.3488,7.3783,5.7519,5.834,5.9237,6.1116,6.2046,6.2623,6.3102,6.3207,6.3049,0.0,0.0,0.0,0.0,0.0,0.0,0.0,0.0,0.0,0.0,0.0,0.0,0.0,0.0,0.0,0.0,0.0,0.0,0.0,0.0,0.0,6.6894,6.6894,6.6811,6.6619,6.6836,6.6687,6.6114,6.6755,6.7096,6.7096,6.7417,6.7859,6.8372,6.7821,6.834,6.9725,6.9994,7.0417,7.0898,7.0898,7.0898,7.0841,7.0341,7.0129,7.0052,6.9507,6.8911,6.8314,6.7763,6.7167,6.6596,6.6077,6.5904,6.5904,6.5904,6.5904,6.5904,6.5904,6.5904,6.5904,6.5904,6.5904,6.5904,6.5904,6.5904,6.5981,6.6269,6.6327,6.6744,6.8122,6.7955,6.8013,6.9456,6.9706,6.9802,7.009,7.0571,7.0706,7.0206,7.0571,7.0898,7.0898,7.0898,7.0898,7.0898,7.0898,7.0898,7.0898,7.0898,7.0898,7.0898,7.0898,7.0898,7.0898,7.0898,7.0898,7.0898,7.1206,7.1206,7.0937,7.2418,7.2476,5.6719,5.7441,5.8359,6.0255,6.0895,6.1274,6.2043,0.0,6.1993,0.0,0.0,0.0,0.0,0.0,0.0,0.0,0.0,0.0,0.0,0.0,0.0,0.0,0.0,0.0,0.0,0.0,0.0,0.0,0.0,0.0,6.6894,6.6894,6.6947,6.7027,6.6701,6.6534,6.654,6.664,6.6692,6.6692,6.6692,6.6994,6.7545,6.6955,6.7475,6.884,6.9148,6.9898,7.0898,7.0898,7.0898,7.0821,7.0014,6.9706,6.959,6.8718,6.8218,6.7878,6.7301,6.6923,6.6615,6.6077,6.5904,6.5904,6.5904,6.5904,6.5904,6.5904,6.5904,6.5904,6.5904,6.5904,6.5904,6.5904,6.5904,6.5904,6.5904,6.5904,6.6224,6.734,6.709,6.7244,6.8975,6.9013,6.9033,6.961,7.0148,7.0302,6.9763,7.0398,7.0898,7.0898,7.0898,7.0898,7.0898,7.0898,7.0898,7.0898,7.0898,7.0898,7.0898,7.0898,7.0898,7.0898,7.0898,7.0898,7.0898,7.1187,7.1187,7.0937,7.2091,7.2322,0.0,0.0,0.0,0.0,0.0,0.0,6.1243,0.0,6.1258,0.0,0.0,0.0,0.0,0.0,0.0,0.0,0.0,0.0,0.0,0.0,0.0,0.0,0.0,0.0,0.0,0.0,0.0,0.0,0.0,6.6894,6.6894,6.6894,6.72,6.7842,6.6913,6.6706,6.7368,6.6389,6.5904,6.5904,6.5904,6.5904,6.5904,6.5904,6.6346,6.7154,6.8013,6.9334,7.086,7.0898,7.0898,7.0821,6.9994,6.9667,6.9552,6.866,6.7782,6.7058,6.7058,6.6558,6.5904,6.5904,6.5904,6.5904,6.5904,6.5904,6.5904,6.5904,6.5904,6.5904,6.5904,6.5904,6.5904,6.5904,6.5904,6.5904,6.5904,6.5904,6.5904,6.5904,6.5904,6.6417,6.8084,6.7667,6.7673,6.9379,6.9648,6.9667,6.9667,7.0379,7.0879,7.0898,7.0898,7.0898,7.0898,7.0898,7.0898,7.0898,7.0898,7.0898,7.0898,7.0898,7.0898,7.0898,7.0898,7.0898,7.0898,7.1752,7.1725,7.0937,7.2642,7.3411,5.5293,0.0,0.0,0.0,0.0,0.0,0.0,0.0,0.0,0.0,0.0,0.0,0.0,0.0,0.0,0.0,0.0,0.0,0.0,0.0,0.0,0.0,0.0,0.0,0.0,0.0,0.0,0.0,6.6894,6.6894,6.6894,6.6894,6.6927,6.6969,6.6604,6.6414,6.6458,6.6081,6.5904,6.5904,6.5904,6.5904,6.5904,6.5904,6.6346,6.7154,6.8013,6.9026,7.0071,7.0667,7.0898,7.0764,6.9314,6.8757,6.8584,6.7128,6.6436,6.6224,6.6224,6.6096,6.5904,6.5904,6.5904,6.5904,6.5904,6.5904,6.5904,6.5904,6.5904,6.5904,6.5904,6.5904,6.5904,6.5904,6.5904,6.5904,6.5904,6.5904,6.5904,6.5904,6.5904,6.6224,6.7282,6.7269,6.7269,6.775,6.8359,6.8757,6.8757,6.9494,7.0244,7.0841,7.0898,7.0898,7.0898,7.0898,7.0898,7.0898,7.0898,7.0898,7.0898,7.0898,7.0898,7.0898,7.0898,7.0898,7.0898,7.1148,7.1148,7.0918,7.1398,7.1629,5.5293,0.0,0.0,0.0,0.0,0.0,0.0,6.0025,0.0,0.0,0.0,0.0,0.0,0.0,0.0,0.0,0.0,0.0,0.0,0.0,0.0,0.0,0.0,0.0,0.0,0.0,0.0,6.6894,6.6894,6.6894,6.6894,6.6894,6.6853,6.6738,6.6565,6.6392,6.622,6.6049,6.5955,6.5904,6.5904,6.5904,6.5904,6.5904,6.6154,6.6673,6.7872,6.868,6.9244,7.0417,7.0706,7.0264,6.8911,6.818,6.7705,6.6378,6.5904,6.5904,6.5904,6.5904,6.5904,6.5904,6.5904,6.5904,6.5904,6.5904,6.5904,6.5904,6.5904,6.5904,6.5904,6.5904,6.5904,6.5904,6.5904,6.5904,6.5904,6.5904,6.5904,6.5904,6.5904,6.6263,6.7436,6.734,6.7346,6.8071,6.8629,6.893,6.893,6.9687,7.0379,7.0841,7.0898,7.0898,7.0898,7.0898,7.0898,7.0898,7.0898,7.0898,7.0898,7.0898,7.0898,7.0898,7.0898,7.0898,7.0898,7.0898,7.0898,7.0898,7.0898,7.0898,5.5351,5.6562,0.0,0.0,0.0,0.0,6.0718,6.036,5.9946,0.0,0.0,0.0,0.0,0.0,0.0,0.0,0.0,0.0,0.0,0.0,0.0,0.0,0.0,0.0,0.0,6.75,6.6992,6.6914,6.6894,6.6894,6.6894,6.6894,6.6894,6.6874,6.6682,6.6512,6.6361,6.6172,6.6019,6.5904,6.5904,6.5904,6.5904,6.5904,6.5904,6.5994,6.7667,6.8391,6.8526,7.0206,7.0475,6.9744,6.8776,6.7994,6.7269,6.6269,6.5961,6.6038,6.6038,6.6038,6.6051,6.6147,6.6109,6.6051,6.6147,6.6051,6.5904,6.5904,6.5904,6.5904,6.5904,6.5904,6.5904,6.5904,6.5904,6.5904,6.5904,6.5904,6.5904,6.5904,6.5904,6.6359,6.7872,6.7552,6.7635,6.9186,6.9494,6.959,6.9687,7.0321,7.0802,7.0898,7.0898,7.0898,7.0898,7.0898,7.0898,7.0898,7.0898,7.0898,7.0898,7.0898,7.0898,7.0898,7.0898,7.0898,7.0898,7.0898,7.0898,7.0898,7.0898,7.0898,5.5683,5.6562,5.7773,5.7246,0.0,0.0,5.9328,5.9664,6.0146,0.0,0.0,0.0,0.0,0.0,0.0,0.0,0.0,0.0,0.0,0.0,0.0,0.0,0.0,0.0,0.0,6.8047,6.7656,6.6953,6.6894,6.6894,6.6894,6.6894,6.6832,6.666,6.6527,6.6354,6.6163,6.6017,6.5927,6.5904,6.5904,6.5904,6.5904,6.5904,6.5904,6.5994,6.7667,6.8391,6.8526,7.0206,7.0802,7.0514,6.8987,6.8718,6.8936,6.6705,6.6308,6.6865,6.6865,6.6865,6.6981,6.7686,6.7436,6.7,6.7705,6.6974,6.5904,6.5904,6.5904,6.5904,6.5904,6.5904,6.5904,6.5904,6.5904,6.5904,6.5904,6.5904,6.5904,6.5904,6.5904,6.5994,6.632,6.6789,6.7212,6.7558,6.8205,6.8911,6.961,6.984,7.0187,7.0821,7.0898,7.0898,7.0898,7.0898,7.0898,7.0898,7.0898,7.0898,7.0898,7.0898,7.0898,7.0898,7.0898,7.0898,7.0898,7.0898,7.0898,7.0898,7.0898,7.0898,5.6308,5.6894,5.789,5.789,0.0,0.0,0.0,6.0094,6.0181,6.085,0.0,0.0,0.0,0.0,0.0,0.0,0.0,0.0,0.0,0.0,0.0,0.0,0.0,0.0,0.0,6.8691,6.7832,6.6972,6.6894,6.6894,6.6894,6.7305,6.7303,6.6762,6.7105,6.6999,6.6367,6.6275,6.6169,6.6,6.6,6.5959,6.5904,6.5904,6.5904,6.5981,6.7205,6.7987,6.8507,6.9783,7.0533,7.0783,6.9526,6.9045,6.8891,6.7628,6.7128,6.7154,6.759,6.7205,6.6712,6.7987,6.7532,6.6654,6.7494,6.6878,6.5904,6.5904,6.5904,6.5904,6.5904,6.5904,6.5904,6.5904,6.5904,6.5904,6.5904,6.5904,6.5904,6.5904,6.5904,6.6038,6.6423,6.6827,6.725,6.7686,6.8494,6.9206,6.9648,7.0052,7.0456,7.086,7.0898,7.0898,7.0898,7.0898,7.0898,7.0898,7.0898,7.0898,7.0898,7.0898,7.0898,7.0898,7.1321,7.1321,7.0898,7.1341,7.1321,7.0898,7.0898,7.0898,0.0,0.0,0.0,0.0,0.0,5.996,0.0,0.0,0.0,6.0983,0.0,0.0,0.0,0.0,0.0,0.0,0.0,0.0,0.0,0.0,0.0,0.0,0.0,0.0,0.0,6.8691,6.748,6.6933,6.6738,6.6719,6.6894,6.7734,6.7793,6.6933,6.7714,6.7643,6.6618,6.6541,6.6367,6.6109,6.608,6.5992,6.5904,6.5904,6.5904,6.5961,6.6923,6.7744,6.8487,6.9513,7.0302,7.0821,7.0014,6.9353,6.8834,6.8526,6.7955,6.7455,6.816,6.7398,6.6378,6.791,6.7468,6.6436,6.6769,6.6519,6.6096,6.5936,6.5904,6.5904,6.5904,6.5904,6.5904,6.5904,6.5904,6.5904,6.5904,6.5904,6.5904,6.5904,6.5904,6.6115,6.6769,6.7,6.734,6.8045,6.9033,6.9706,6.9706,7.0398,7.0898,7.0898,7.0898,7.0898,7.0898,7.0898,7.0898,7.0898,7.0898,7.0898,7.0898,7.0898,7.0898,7.0898,7.1591,7.1591,7.0898,7.161,7.1591,7.0898,7.0898,7.0898,0.0,0.0,0.0,0.0,5.9746,0.0,0.0,0.0,6.135,6.1437,0.0,0.0,0.0,0.0,0.0,0.0,0.0,0.0,0.0,0.0,0.0,0.0,0.0,0.0,0.0,0.0,6.6172,6.6855,6.6172,6.6074,6.6855,6.7734,6.7793,6.6933,6.7577,6.7505,6.6616,6.6302,6.6145,6.6104,6.5974,6.5916,6.5904,6.5904,6.5904,6.5994,6.7571,6.8314,6.8526,7.011,7.0821,7.0821,7.0014,7.0071,7.0437,6.8949,6.8334,6.8276,6.8372,6.7763,6.7116,6.8084,6.8276,6.7853,6.6455,6.6481,6.6827,6.6096,6.5904,6.5904,6.5904,6.5904,6.5904,6.5904,6.5904,6.5904,6.5904,6.5904,6.5904,6.5904,6.5904,6.5923,6.6019,6.6635,6.7135,6.7231,6.8648,6.9706,6.9706,7.0398,7.0898,7.0898,7.0898,7.0898,7.0898,7.0898,7.0898,7.0898,7.0898,7.0898,7.0898,7.0898,7.0898,7.0898,7.0994,7.0994,7.0898,7.0994,7.0994,7.0898,7.0898,7.0898,0.0,0.0,0.0,0.0,0.0,0.0,0.0,0.0,6.0741,0.0,0.0,0.0,0.0,0.0,0.0,0.0,0.0,0.0,0.0,0.0,0.0,0.0,0.0,0.0,0.0,0.0,0.0,0.0,0.0,6.5976,6.6855,6.7734,6.7793,6.6933,6.7652,6.7594,6.6618,6.6469,6.6288,6.6109,6.6033,6.5982,6.5904,6.5904,6.5904,6.5981,6.7148,6.7936,6.8487,6.9706,7.0475,7.086,7.0533,7.0591,7.0802,7.011,6.9571,6.9141,6.9141,6.859,6.784,6.7686,6.7648,6.7436,6.6244,6.6134,6.6327,6.5994,6.5904,6.5904,6.5904,6.5904,6.5904,6.5904,6.5904,6.5904,6.5904,6.5904,6.5904,6.5904,6.5904,6.5904,6.5904,6.6192,6.6404,6.6404,6.7417,6.8359,6.8872,6.9687,7.0379,7.0841,7.0898,7.0898,7.0898,7.0898,7.0898,7.0898,7.0898,7.0898,7.0898,7.0898,7.0898,7.0898,7.1398,7.1398,7.0898,7.1398,7.1379,7.0898,7.0898,7.0898,5.6894,0.0,0.0,0.0,0.0,0.0,0.0,0.0,0.0,0.0,0.0,0.0,0.0,0.0,0.0,0.0,0.0,0.0,0.0,0.0,0.0,0.0,0.0,0.0,0.0,0.0,0.0,0.0,0.0,0.0,6.6836,6.7734,6.7793,6.6933,6.7693,6.762,6.6618,6.6503,6.6338,6.6109,6.6055,6.5989,6.5904,6.5904,6.6019,6.6269,6.6846,6.7725,6.8814,6.9436,7.0167,7.0898,7.0898,7.0898,7.0898,7.0898,7.0398,6.9706,6.9706,6.8975,6.7898,6.7058,6.6769,6.6654,6.6077,6.5904,6.5904,6.5904,6.5904,6.5904,6.5904,6.5904,6.5904,6.5904,6.5904,6.5904,6.5904,6.5904,6.5904,6.5904,6.5904,6.5904,6.5904,6.5904,6.5904,6.5904,6.6577,6.7327,6.7955,6.9013,6.9917,7.0514,7.0571,7.0571,7.0571,7.0571,7.0667,7.0898,7.0898,7.0898,7.0898,7.0898,7.0898,7.0898,7.1514,7.1533,7.0898,7.1533,7.1514,7.0898,7.0898,7.0898,0.0,0.0,0.0,5.8105,0.0,0.0,0.0,0.0,6.1406,0.0,0.0,0.0,0.0,0.0,0.0,0.0,0.0,0.0,0.0,0.0,0.0,0.0,0.0,0.0,0.0,0.0,0.0,0.0,0.0,0.0,6.6816,6.7734,6.7793,6.6933,6.7553,6.7499,6.6616,6.627,6.6104,6.6104,6.5971,6.5891,6.5904,6.5904,6.6327,6.7058,6.7096,6.8071,6.9667,6.9687,7.0167,7.0898,7.0898,7.0898,7.0898,7.0898,7.0398,6.9706,6.9706,6.8571,6.7019,6.6211,6.5936,6.5936,6.5904,6.5904,6.5904,6.5904,6.5904,6.5904,6.5904,6.5904,6.5904,6.5904,6.5904,6.5904,6.5904,6.5904,6.5904,6.5904,6.5904,6.5904,6.5904,6.5904,6.5904,6.5904,6.6577,6.7116,6.7135,6.8648,6.9706,6.9744,6.9744,6.9744,6.9744,6.9744,7.0071,7.0841,7.0898,7.0898,7.0898,7.0898,7.0898,7.0898,7.0937,7.0937,7.0898,7.0937,7.0937,7.0898,7.0898,7.0898,0.0,0.0,5.8984,5.8125,0.0,0.0,0.0,0.0,0.0,0.0,0.0,0.0,0.0,0.0,0.0,0.0,0.0,0.0,0.0,0.0,0.0,0.0,0.0,0.0,0.0,0.0,0.0,0.0,0.0,0.0,0.0,6.7187,6.7207,6.6914,6.7126,6.6994,6.6468,6.6358,6.6187,6.5965,6.5915,6.5904,6.5904,6.5904,6.6058,6.6346,6.6865,6.7423,6.8013,6.8609,6.9334,7.0052,6.9468,6.9917,7.0898,7.0898,7.0725,7.0494,7.0494,6.8994,6.7154,6.7455,6.6801,6.5904,6.5904,6.5904,6.5904,6.5904,6.5904,6.5904,6.5904,6.5904,6.5904,6.5904,6.5904,6.5904,6.5904,6.5904,6.5904,6.5904,6.5904,6.5904,6.5904,6.5904,6.5904,6.5904,6.6134,6.65,6.7039,6.7616,6.8205,6.8776,6.8834,6.8834,6.8834,6.9379,6.9821,7.009,7.061,7.0898,7.0898,7.0898,7.0898,7.0898,7.0898,7.0898,7.0898,7.0898,7.0898,7.0898,7.0898,7.0898,5.7363,5.8066,0.0,5.8047,5.8945,0.0,5.8223,0.0,0.0,0.0,0.0,0.0,0.0,0.0,0.0,0.0,0.0,0.0,0.0,0.0,0.0,0.0,0.0,0.0,0.0,0.0,6.3125,6.457,0.0,0.0,0.0,0.0,6.6894,6.6894,6.6783,6.6619,6.6409,6.6272,6.6114,6.5904,6.5904,6.5904,6.5904,6.5904,6.6051,6.6346,6.6577,6.7013,6.7571,6.784,6.8449,6.918,6.8622,6.9244,7.0475,7.0475,7.0475,7.0437,7.0129,6.8725,6.7154,6.7417,6.6782,6.5904,6.5904,6.5904,6.5904,6.5904,6.5904,6.5904,6.5904,6.5904,6.5904,6.5904,6.5904,6.5904,6.5904,6.5904,6.5904,6.5904,6.5904,6.5904,6.5904,6.5904,6.5904,6.5904,6.5904,6.6192,6.7,6.7096,6.7436,6.8314,6.8122,6.8064,6.8372,6.8911,6.9494,7.009,7.061,7.0898,7.0898,7.0898,7.0898,7.0898,7.0898,7.0898,7.0898,7.0898,7.0898,7.0898,7.0898,7.0898]}]]